     2.11           OBSERVATION DATA    G (GPS)             RINEX VERSION / TYPE
teqc 2010Oct21 OPUS Account 20111027 18:48:51UTC            PGM / RUN BY / DATE
U 1525                                                      MARKER NAME
3029                                                        MARKER NUMBER
CSMIDDLETON NGS                                             OBSERVER / AGENCY
0220390632 TRIMBLE R7 2.28                                  REC # / TYPE / VERS
11909788 TRM41249.00 NONE                                   ANT # / TYPE
  -759591.6364 -5555910.0339  3028930.8363                  APPROX POSITION XYZ
        1.9990        0.0000        0.0000                  ANTENNA: DELTA H/E/N
     1     1                                                WAVELENGTH FACT L1/2
     5    L1    L2    C1    P1    P2                        # / TYPES OF OBSERV
    15                                                      LEAP SECONDS
  2011     8    18     0     0   30.0000000     GPS         TIME OF FIRST OBS
                                                            END OF HEADER
 11  8 18  0  0 30.0000000  0  8G17G10G09G12G05G02G04G28
   4008714.43056   3140678.66054  22663911.0234                   22663908.4574
 -14349904.67257 -11173919.53555  21091435.8444                   21091434.0004
   -990128.62956   -764852.88753  22895775.8134                   22895774.5904
 -10055053.76657  -7997485.44955  22205987.1174                   22205983.9024
  -7015204.59856  -5431598.18754  23032187.2424                   23032186.0904
 -15481310.25857 -12056688.07456  20719191.2664                   20719186.0944
 -10168072.04357  -7880445.45355  20939406.8444                   20939404.1254
  18500690.63355  14414713.90253  24268058.0704                   24268059.3834
 11  8 18  0  1  0.0000000  0  8G17G10G09G12G05G02G04G28
   4074406.53546   3191867.27344  22676411.2194                   22676409.1094
 -14363309.03947 -11184364.47345  21088884.5394                   21088883.2154
   -905631.01246   -699010.63743  22911854.8364                   22911854.4534
 -10114296.16047  -8043648.29744  22194713.7664                   22194710.3954
  -7096538.24246  -5494974.94944  23016709.0864                   23016708.3834
 -15478425.02347 -12054439.82445  20719740.6564                   20719735.3524
 -10081517.95347  -7813000.72745  20955877.4064                   20955875.7704
  18623307.46145  14510259.25443  24291391.7894                   24291392.4924
 11  8 18  0  1 30.0000000  0  8G17G10G09G12G05G02G04G28
   4140255.60946   3243178.20744  22688941.9534                   22688940.1884
 -14376106.90647 -11194336.79745  21086449.9454                   21086447.6174
   -820742.56646   -632863.83643  22928008.7034                   22928007.6684
 -10173215.08247  -8089559.09045  22183501.7274                   22183498.5044
  -7177698.22746  -5558216.37944  23001265.8204                   23001264.5594
 -15475160.41447 -12051895.95745  20720361.6954                   20720356.5664
  -9994667.32047  -7745324.93445  20972404.8524                   20972402.8754
  18746155.17245  14605984.55942  24314768.2034                   24314770.3794
 11  8 18  0  2  0.0000000  0  8G17G10G09G12G05G02G04G28
   4206250.98046   3294603.14544  22701499.9694                   22701498.2544
 -14388307.48447 -11203843.71545  21084128.0784                   21084125.6134
   -735477.73446   -566423.73843  22944234.3754                   22944233.6174
 -10231819.01647  -8135224.43745  22172349.3364                   22172346.3914
  -7258692.80146  -5621328.93444  22985852.9844                   22985851.8954
 -15471528.18447 -12049065.63345  20721052.6484                   20721047.6604
  -9907533.43047  -7677428.41045  20988986.4304                   20988983.4614
                                  24338188.6414                   24338189.8134
 11  8 18  0  2 30.0000000  0  7G17G10G09G12G05G02G04
   4272395.41846   3346144.21544  22714087.6804                   22714085.5044
 -14399907.23847 -11212882.44945  21081920.8914                   21081919.1024
   -649837.99246   -499691.55143  22960530.3834                   22960529.8754
 -10290103.48847  -8180640.85944  22161258.0554                   22161255.3094
  -7339517.37146  -5684309.00444  22970472.3594                   22970471.4534
 -15467527.55547 -12045948.23845  20721814.3754                   20721808.7664
  -9820117.05547  -7609311.77745  21005620.5314                   21005618.4924
 11  8 18  0  3  0.0000000  0  7G17G10G09G12G05G02G04
   4338688.55546   3397801.17644  22726701.9924                   22726700.5004
 -14410905.28547 -11221452.32445  21079827.8134                   21079826.0354
   -563827.24246   -432670.22343  22976898.8054                   22976897.7034
 -10348066.80147  -8225807.02344  22150228.5634                   22150224.9144
  -7420169.76646  -5747154.92244  22955124.6334                   22955123.5864
 -15463160.01247 -12042544.94546  20722644.9144                   20722640.0204
  -9732421.40647  -7540977.52345  21022308.2664                   21022306.7154
 11  8 18  0  3 30.0000000  0  7G17G10G09G12G05G02G04
   4405140.42246   3449581.79744  22739348.0784                   22739345.9304
 -14421290.59047 -11229544.73845  21077851.5554                   21077848.7464
   -477439.75846   -365355.36743  22993337.1724                   22993337.1724
 -10405697.19547  -8270713.77744  22139261.4614                   22139258.3014
  -7500637.43746  -5809856.90244  22939811.6724                   22939811.3244
 -15458416.99647 -12038849.06645  20723547.9304                   20723542.6644
  -9644439.52047  -7472420.22745  21039050.8524                   21039048.9384
 11  8 18  0  4  0.0000000  0  7G17G10G09G12G05G02G04
   4471754.74246   3501489.01244  22752023.6254                   22752022.2114
 -14431057.91847 -11237155.61745  21075992.8284                   21075990.5704
   -390675.27046   -297746.75443  23009848.4694                   23009846.8484
 -10462988.66847  -8315356.44144  22128358.6954                   22128356.1254
  -7580914.20346  -5872410.12944  22924535.0944                   22924533.8714
 -15453296.11347 -12034858.75846  20724521.8914                   20724517.2504
  -9556170.23847  -7403638.99245  21055848.0474                   21055845.9494
 11  8 18  0  4 30.0000000  0  7G17G10G09G12G05G02G04
   4538532.36746   3553523.48044  22764732.2974                   22764729.2814
 -14440205.54747 -11244283.60945  21074252.0864                   21074249.5984
   -303536.88746   -229846.76643  23026431.3054                   23026429.0044
 -10519938.49647  -8359732.88745  22117522.5784                   22117519.0784
  -7660996.98446  -5934812.18744  22909296.0474                   22909295.8794
 -15447798.02747 -12030574.52045  20725567.9774                   20725563.3134
  -9467615.83247  -7334635.57845  21072699.8524                   21072697.4304
 11  8 18  0  5  0.0000000  0  7G17G10G09G12G05G02G04
   4605482.27046   3605692.20744  22777471.2424                   22777470.2894
 -14448723.63747 -11250921.06245  21072631.3204                   21072629.5044
   -216019.53146   -161651.47343  23043084.2194                   23043083.1844
 -10576535.52747  -8403834.43745  22106752.3594                   22106748.8164
  -7740874.33246  -5997054.16844  22894095.7814                   22894094.9844
 -15441915.10247 -12025990.41045  20726687.6174                   20726682.9304
  -9378770.15247  -7265405.19545  21089606.0864                   21089604.1024
 11  8 18  0  5 30.0000000  0  7G17G10G09G12G05G02G04
   4672591.28146   3657984.91044  22790242.1024                   22790240.6914
 -14456624.53147 -11257077.58245  21071127.3674                   21071125.3754
   -128140.60946    -93174.48443  23059807.1484                   23059806.0864
 -10632791.28547  -8447670.06645  22096046.8594                   22096043.7074
  -7820556.84846  -6059144.32444  22878932.7114                   22878931.4694
 -15435661.90647 -12021117.77745  20727877.6094                   20727872.4264
  -9289649.66847  -7195960.68445  21106565.2034                   21106563.0044
 11  8 18  0  6  0.0000000  0  7G17G10G09G12G05G02G04
   4739865.70346   3710406.48844  22803044.9304                   22803042.0514
 -14463900.76647 -11262747.35245  21069743.0704                   21069740.9694
    -39897.69946    -24413.80143  23076599.2274                   23076597.9654
 -10688697.55547  -8491233.37545  22085408.3134                   22085405.1094
  -7900036.60946  -6121076.50444  22863808.1724                   22863807.2814
 -15429033.75447 -12015952.96945  20729139.0004                   20729134.3094
  -9200250.96547  -7126299.37145  21123577.6884                   21123575.4344
 11  8 18  0  6 30.0000000  0  7G17G10G09G12G05G02G04
   4807307.44546   3762958.46544  22815877.3204                   22815876.4494
 -14470549.14847 -11267927.87145  21068477.3594                   21068475.8324
     48707.29346     44629.00443  23093459.5164                   23093459.5434
 -10744250.25447  -8534521.16845  22074837.1094                   22074833.9264
  -7979308.91446  -6182847.00444  22848722.7504                   22848722.0234
 -15422029.88747 -12010495.39846  20730472.2974                   20730466.7664
  -9110574.70347  -7056421.78945  21140642.3914                   21140640.5354
 11  8 18  0  7  0.0000000  0  7G17G10G09G12G05G02G04
   4874915.93046   3815640.35944  22828743.1414                   22828741.3404
 -14476569.58247 -11272619.09445  21067332.5314                   21067330.1484
    137670.04746    113950.56343  23110389.0474                   23110388.2344
 -10799447.96547  -8577532.34845  22064333.0554                   22064329.9804
  -8058371.80946  -6244454.35244  22833677.4614                   22833677.3674
 -15414652.51247 -12004746.77045  20731875.4924                   20731870.2274
  -9020624.50847  -6986330.73845  21157758.6644                   21157757.0274
 11  8 18  0  7 30.0000000  0  7G17G10G09G12G05G02G04
   4942676.87946   3868441.05944  22841637.2034                   22841635.5664
 -14481975.49647 -11276831.47745  21066303.3594                   21066301.5314
    226972.05546    183536.48043  23127383.6174                   23127381.2854
 -10854303.25847  -8620276.73045  22053894.0394                   22053891.3244
  -8137237.49246  -6305908.01644  22818669.7034                   22818668.8794
 -15406917.47747 -11998719.45345  20733347.8134                   20733342.8484
  -8930417.87547  -6916039.87945  21174924.3364                   21174923.1174
 11  8 18  0  8  0.0000000  0  7G17G10G09G12G05G02G04
   5010602.56346   3921370.11344  22854563.4304                   22854561.7384
 -14486753.88747 -11280554.87545  21065394.1334                   21065391.9804
    316621.66446    253393.27343  23144442.8594                   23144441.7854
 -10908802.08247  -8662743.33645  22043523.7664                   22043520.7234
  -8215891.63346  -6367196.82844  22803702.3834                   22803702.1414
 -15398814.36347 -11992405.30945  20734889.3984                   20734884.4734
  -8839945.59847  -6845542.02045  21192141.2194                   21192139.5744
 11  8 18  0  8 30.0000000  0  8G17G10G09G12G05G02G04G30
   5078696.70346   3974430.44944  22867522.4924                   22867520.3984
 -14490899.65647 -11283785.30945  21064605.1254                   21064602.8524
    406618.96546    323520.98443  23161568.0784                   23161568.5554
 -10962938.19947  -8704927.30945  22033222.3834                   22033219.2234
  -8294327.38346  -6428315.49644  22788776.9774                   22788775.5474
 -15390340.20347 -11985802.05546  20736502.4774                   20736497.1134
  -8749206.37947  -6774836.14145  21209408.4304                   21209405.9264
   -123430.38355    -87138.78952  24425262.3594                   24425259.2464
 11  8 18  0  9  0.0000000  0  8G17G10G09G12G05G02G04G30
   5146954.12546   4027618.02044  22880510.3204                   22880508.5514
 -14494417.63347 -11286526.56245  21063935.5864                   21063933.6484
    496954.60546    393912.37543  23178758.8984                   23178757.9224
 -11016714.93447  -8746831.23845  22022988.4224                   22022985.4804
  -8372548.00846  -6489266.51644  22773891.7664                   22773890.4494
 -15381502.13347 -11978915.23845  20738183.8524                   20738179.2194
  -8658208.31247  -6703928.56645  21226724.6484                   21226723.0514
                                  24409235.0474                   24409232.0124
 11  8 18  0  9 30.0000000  0  8G17G10G09G12G05G02G04G30
   5215370.40246   4080929.36344  22893530.1334                   22893527.7934
 -14497311.25847 -11288781.30145  21063385.1804                   21063383.0314
    587619.93446    464560.62143  23196011.7664                   23196012.1024
 -11070134.98447  -8788457.25445  22012823.1254                   22012820.1174
  -8450555.57046  -6550051.51644  22759046.6724                   22759045.9144
 -15372306.06647 -11971749.45345  20739933.6954                   20739928.9654
  -8566958.97347  -6632825.20745  21244089.3754                   21244086.9694
   -291681.95745   -218243.73842  24393244.6804                   24393242.0784
 11  8 18  0 10  0.0000000  0  8G17G10G09G12G05G02G04G30
   5283945.25846   4134364.28144  22906579.4454                   22906577.4224
 -14499580.37147 -11290549.41045  21062953.0554                   21062951.0124
    678610.62546    535462.42243  23213326.9844                   23213326.3594
 -11123196.93747  -8829804.21545  22002725.4694                   22002722.5514
  -8528348.16446  -6610669.01644  22744244.0944                   22744243.2624
 -15362753.83647 -11964306.12945  20741751.7974                   20741746.9844
  -8475461.95747  -6561528.82445  21261500.2664                   21261497.9964
   -375518.78545   -283571.30942  24377290.6334                   24377287.2154
 11  8 18  0 10 30.0000000  0  8G17G10G09G12G05G02G04G30
   5352679.10546   4187923.09444  22919658.8134                   22919657.6134
 -14501223.08247 -11291829.41845  21062640.7344                   21062637.9614
    769923.83646    606615.52343  23230703.4384                   23230702.3954
 -11175897.68047  -8870869.71545  21992697.0394                   21992694.6094
  -8605922.00446  -6671116.04744  22729481.6804                   22729480.8834
 -15352846.19947 -11956585.87145  20743636.1884                   20743631.9144
  -8383718.70747  -6490040.58645  21278958.1724                   21278956.3914
   -459159.07845   -348745.43442  24361374.6564                   24361371.2504
 11  8 18  0 11  0.0000000  0  8G17G10G09G12G05G02G04G30
   5421579.24246   4241611.46544  22932770.1804                   22932767.7894
 -14502232.21947 -11292615.73045  21062448.3284                   21062446.3754
    861561.87546    678021.75043  23248142.0164                   23248140.9384
 -11228228.68047  -8911647.09045  21982738.3364                   21982736.0904
  -8683268.64546  -6731386.05544  22714763.0784                   22714761.8594
 -15342577.77047 -11948584.48445  20745590.6484                   20745585.7544
  -8291725.98047  -6418357.94945  21296463.9064                   21296462.2424
   -542594.20745   -413759.76642  24345497.6484                   24345494.3794
 11  8 18  0 11 30.0000000  0  8G17G10G09G12G05G02G04G30
   5490652.23846   4295434.52344  22945914.4614                   22945912.0234
 -14502600.41047 -11292902.60945  21062378.0944                   21062376.5554
    953527.41046    749683.14843  23265642.4534                   23265641.5084
 -11280181.12147  -8952129.50445  21972852.1174                   21972849.3674
  -8760379.09446  -6791472.02344  22700089.1334                   22700087.8284
 -15331943.59047 -11940298.08645  20747614.0234                   20747609.5704
  -8199479.68447  -6346477.71145  21314018.3444                   21314015.7774
   -625815.40245   -478607.37542  24329661.0004                   24329658.5274
 11  8 18  0 12  0.0000000  0  8G17G10G09G12G05G02G04G30
   5559893.17246   4349388.43844  22959090.4384                   22959088.3404
 -14502331.78547 -11292693.27745  21062429.9454                   21062427.3874
   1045811.90246    821593.10543  23283202.5394                   23283202.5864
 -11331758.31647  -8992319.49245  21963037.3674                   21963035.0434
  -8837255.61746  -6851375.70744  22685459.9224                   22685458.9694
 -15320949.93447 -11931731.58246  20749706.6724                   20749701.4344
  -8106987.45347  -6274405.84045  21331618.4384                   21331616.8674
   -708825.35245   -543290.36742  24313864.8204                   24313862.7584
 11  8 18  0 12 30.0000000  0  8G17G10G09G12G05G02G04G30
   5629308.35246   4403478.15644  22972299.6954                   22972297.9414
 -14501418.79747 -11291981.83645  21062603.1484                   21062600.7624
   1138418.27046    893753.84443  23300825.1414                   23300825.0274
 -11382951.37947  -9032210.15645  21953295.7424                   21953292.6994
  -8913888.94546  -6911089.90644  22670877.4304                   22670875.7854
 -15309591.67647 -11922880.96546  20751867.6024                   20751863.1524
  -8014245.48847  -6202139.37945  21349267.2274                   21349265.0234
   -791615.05945   -607801.71942  24298111.2344                   24298107.8794
 11  8 18  0 13  0.0000000  0  8G17G10G09G12G05G02G04G30
   5698895.41846   4457701.79343  22985541.9614                   22985539.7234
 -14499863.80147 -11290770.11745  21062899.1484                   21062896.8324
   1231339.47346    966159.92643  23318508.4384                   23318506.6054
 -11433761.13347  -9071802.12545  21943627.3674                   21943624.3754
  -8990279.55546  -6970614.96544  22656340.6254                   22656339.3014
 -15297873.16847 -11913749.65245  20754097.2504                   20754093.0124
  -7921259.37147  -6129682.66845  21366961.2974                   21366959.2934
   -874185.18446   -672141.99242  24282398.0704                   24282395.4414
 11  8 18  0 13 30.0000000  0  8G17G10G09G12G05G02G04G30
   5768657.65246   4512061.92244  22998816.6174                   22998814.7894
 -14497663.15247 -11289055.31245  21063317.9224                   21063316.0704
   1324574.81646   1038810.77743  23336249.9384                   23336248.8984
 -11484182.40647  -9111091.39145  21934032.2114                   21934029.1914
  -9066422.20346  -7029946.80144  22641850.9224                   22641849.9454
 -15285792.63747 -11904336.23445  20756396.7894                   20756391.7034
  -7828028.78147  -6057035.45345  21384702.4384                   21384700.6684
   -956530.41446   -736307.06642  24266727.9694                   24266726.2344
 11  8 18  0 14  0.0000000  0  8G17G10G09G12G05G02G04G30
   5838596.64846   4566559.79744  23012126.0944                   23012124.9804
 -14494814.73847 -11286835.74645  21063859.9454                   21063858.3754
   1418121.65646   1111704.38743  23354051.3914                   23354049.7734
 -11534212.03547  -9150075.46145  21924511.7894                   21924509.1094
  -9142312.84046  -7089082.27044  22627409.8364                   22627408.6644
 -15273350.18747 -11894640.79745  20758764.4304                   20758759.4734
  -7734555.44947  -5984199.09045  21402490.0704                   21402488.0004
  -1038647.22345   -800294.13342  24251102.3834                   24251098.5124
 11  8 18  0 14 30.0000000  0  8G17G10G09G12G05G02G04G30
   5908712.43046   4621195.45744  23025468.4844                   23025466.7464
 -14491317.16847 -11284110.35945  21064524.9454                   21064523.4414
   1511976.61746   1184838.09443  23371911.6024                   23371910.2384
 -11583847.25447  -9188752.21145  21915066.5704                   21915063.7074
  -9217948.55546  -7148019.10244  22613016.9384                   22613015.4844
 -15260546.94147 -11884664.22346  20761200.2274                   20761195.7464
  -7640841.35247  -5911175.12545  21420323.1334                   21420321.1914
  -1120532.80546   -864101.00442  24235519.6644                   24235516.7344
 11  8 18  0 15  0.0000000  0  8G17G10G09G12G05G02G04G30
   5979005.27046   4675969.03544  23038845.7034                   23038843.9304
 -14487170.30947 -11280879.02745  21065314.7664                   21065312.0274
   1606135.51646   1258208.62143  23389830.1254                   23389828.7194
 -11633086.09047  -9227120.07845  21905697.1484                   21905693.4654
  -9293326.85546  -7206755.34844  22598672.7664                   22598671.0354
 -15247384.61747 -11874407.86345  20763705.0864                   20763700.3594
  -7546889.42247  -5837965.84045  21438201.5784                   21438199.8284
  -1202185.05145   -927726.05942  24219979.9064                   24219979.5124
 11  8 18  0 15 30.0000000  0  9G17G10G09G12G05G02G04G30G25
   6049474.83646   4730880.36344  23052254.8364                   23052253.0784
 -14482373.81647 -11277141.48845  21066227.5394                   21066225.2664
   1700594.21146   1331812.73443  23407804.1414                   23407803.7704
 -11681927.21947  -9265178.05145  21896402.3204                   21896399.5124
  -9368445.66046  -7265289.40244  22584377.4774                   22584375.9184
 -15233864.87947 -11863872.98846  20766277.9454                   20766273.5234
  -7452702.60247  -5764573.50845  21456124.5784                   21456122.8484
  -1283602.16846   -991167.88742  24204488.6334                   24204486.6414
   -119131.47755    -83662.27353  24780297.3054                   24780298.8284
 11  8 18  0 16  0.0000000  0  9G17G10G09G12G05G02G04G30G25
   6120116.11746   4785925.46544  23065697.8284                   23065695.7034
 -14476932.62147 -11272901.56245  21067262.8914                   21067260.1724
   1795343.20746   1405643.07443  23425834.3134                   23425834.1804
 -11730374.16047  -9302928.85545  21887183.5004                   21887180.5594
  -9443308.17646  -7323623.72344  22570131.5084                   22570130.3364
 -15219994.80147 -11853065.12146  20768917.6094                   20768912.4064
  -7358289.18047  -5691004.61345  21474091.2584                   21474088.9264
  -1364787.21945  -1054428.92642  24189039.1414                   24189037.6334
   -200376.26245   -146969.88742  24764838.1174                   24764838.4414
 11  8 18  0 16 30.0000000  0  9G17G10G09G12G05G02G04G30G25
   6190926.11346   4841102.07044  23079172.0944                   23079170.8404
 -14470849.05547 -11268161.11345  21068420.2894                   21068418.2234
   1890375.79746   1479694.38343  23443919.1024                   23443918.4144
 -11778427.33647  -9340372.84845  21878039.6334                   21878036.0824
  -9517914.48046  -7381758.41444  22555935.0554                   22555932.9534
 -15205778.77047 -11841987.68746  20771622.9304                   20771617.2234
  -7263654.91847  -5617263.63745  21492099.6954                   21492097.7304
  -1445740.74646  -1117509.52742  24173633.2584                   24173632.2344
   -281486.47746   -210172.57442  24749402.8984                   24749403.0234
 11  8 18  0 17  0.0000000  0  9G17G10G09G12G05G02G04G30G25
   6261909.41446   4896413.67244  23092679.7664                   23092678.6564
 -14464118.34447 -11262916.38345  21069701.2974                   21069699.5864
   1985692.51246   1553967.09843  23462056.5314                   23462056.5784
 -11826080.80547  -9377505.36745  21868970.6484                   21868968.1604
  -9592258.28946  -7439688.56244  22541787.1564                   22541785.5474
 -15191213.98447 -11830638.49645  20774394.1254                   20774389.4774
  -7168798.12147  -5543349.24645  21510149.8914                   21510147.8874
  -1526456.28545  -1180404.66842  24158273.4844                   24158272.1764
   -362455.87145   -273265.61742  24733994.5784                   24733994.6134
 11  8 18  0 17 30.0000000  0  9G17G10G09G12G05G02G04G30G25
   6333060.88746   4951856.35243  23106219.8524                   23106217.9344
 -14456744.88347 -11257170.79745  21071104.2584                   21071102.7504
   2081284.48446   1628454.28943  23480248.1484                   23480247.7624
 -11873337.47347  -9414328.70345  21859978.0004                   21859975.2854
  -9666341.80946  -7497415.89844  22527689.9844                   22527688.3914
 -15176306.69947 -11819022.41845  20777231.2814                   20777226.0234
  -7073726.13347  -5469267.18445  21528241.3594                   21528239.9654
  -1606936.33245  -1243116.35942  24142959.6804                   24142956.7624
   -443287.35545   -336251.13743  24718612.6564                   24718613.3444
 11  8 18  0 18  0.0000000  0  9G17G10G09G12G05G02G04G30G25
   4828973.65646   3779840.30144  22820001.5784                   22820000.0904
 -16024137.86347 -12478515.96145  20772839.0704                   20772836.9104
    601740.89145    475563.10543  23198699.0234                   23198699.1134
 -13495606.31247 -10678434.25845  21551270.3754                   21551267.6994
 -11315574.97746  -8782532.56644  22213851.1884                   22213849.3134
 -16736467.98047 -13034732.50446  20480342.2274                   20480337.3164
  -8553848.62147  -6622609.39845  21246584.2814                   21246581.3484
  -3262591.31645  -2533237.07442  23827899.3204                   23827896.7894
  -2099391.69146  -1626721.99642  24403467.1724                   24403467.1994
 11  8 18  0 18 30.0000000  0  9G17G10G09G12G05G02G04G30G25
   4900479.46146   3835559.07444  22833608.5784                   22833607.1604
 -16015460.33647 -12471754.23445  20774489.6174                   20774487.7704
    697888.79746    550483.48043  23216995.7974                   23216995.8754
 -13542045.85247 -10714620.88345  21542433.7114                   21542430.1214
 -11389113.14546  -8839834.94144  22199857.9454                   22199855.0984
 -16720863.10547 -13022572.85246  20483311.6804                   20483306.9574
  -8458337.52047  -6548185.17244  21264759.4144                   21264756.8164
  -3342576.39145  -2595562.98842  23812677.9144                   23812676.1054
  -2179924.38345  -1689474.64542  24388140.2664                   24388141.8324
 11  8 18  0 19  0.0000000  0  9G17G10G09G12G05G02G04G30G25
   4972163.88346   3891417.01244  22847249.7974                   22847247.7194
 -16006128.77347 -12464482.84845  20776266.5704                   20776263.4774
    794310.46146    625617.16043  23235344.0554                   23235344.0004
 -13588072.21947 -10750485.54345  21533675.0634                   21533671.4614
 -11462373.14846  -8896920.58644  22185915.5314                   22185914.5164
 -16704910.31247 -13010142.09845  20486347.4454                   20486342.8634
  -8362609.25447  -6473591.72744  21282975.0634                   21282973.5704
  -3422309.01245  -2657692.28142  23797505.5554                   23797503.3634
  -2260303.11346  -1752107.36342  24372846.2664                   24372846.6884
 11  8 18  0 19 30.0000000  0  9G17G10G09G12G05G02G04G30G25
   5044028.84446   3947415.63344  22860925.5164                   22860923.3594
 -15996141.35247 -12456700.42245  20778166.9614                   20778164.7774
    891003.15245    700962.02743  23253743.7504                   23253744.7074
 -13633682.18447 -10786025.74645  21524995.7734                   21524992.2464
 -11535351.86747  -8953787.05144  22172029.2734                   22172026.9534
 -16688609.82047 -12997440.40646  20489449.0234                   20489444.1604
  -8266665.24647  -6398830.17645  21301232.9534                   21301231.4884
  -3501785.48445  -2719621.98042  23782381.1174                   23782379.5704
  -2340524.52746  -1814617.49243  24357580.1564                   24357581.1134
 11  8 18  0 20  0.0000000  0  9G17G10G09G12G05G02G04G30G25
   5116075.10946   4003555.54744  22874635.4144                   22874633.7074
 -15985497.30547 -12448406.34445  20780192.2894                   20780190.3444
    987963.62545    776515.56343  23272195.8834                   23272195.3244
 -13678873.18047 -10821239.49145  21516395.8594                   21516392.8914
 -11608045.78946  -9010431.56644  22158195.4144                   22158193.4694
 -16671962.11747 -12984468.16046  20492617.2814                   20492612.5354
  -8170507.36347  -6323901.97344  21319531.6804                   21319529.3794
  -3581002.94146  -2781349.80542  23767307.2504                   23767304.7664
  -2420586.07046  -1877002.99243  24342345.6804                   24342345.7624
 11  8 18  0 20 30.0000000  0  9G17G10G09G12G05G02G04G30G25
   5188306.31646   4059839.55144  22888380.4924                   22888379.0664
 -15974191.86347 -12439596.87945  20782343.8364                   20782341.5044
   1085192.15646    852278.03143  23290697.7664                   23290696.6724
 -13723638.96147 -10856121.88745  21507877.0554                   21507873.9804
 -11680448.25846  -9066849.02044  22144417.7734                   22144415.7234
 -16654964.62547 -12971223.33646  20495851.8134                   20495846.9344
  -8074134.26247  -6248806.06244  21337870.3674                   21337868.3134
  -3659954.82445  -2842870.76642  23752282.7194                   23752280.2424
  -2500481.56246  -1939259.19143  24327141.3134                   24327142.0394
 11  8 18  0 21  0.0000000  0  9G17G10G09G12G05G02G04G30G25
   5260717.21546   4116263.59843  22902160.2504                   22902158.0904
 -15962230.66447 -12430276.44945  20784620.0944                   20784617.8554
   1182679.19946    928241.90243  23309249.1644                   23309249.1374
 -13767983.40247 -10890675.97745  21499438.6724                   21499435.6484
 -11752562.73846  -9123042.04344  22130693.8444                   22130692.2344
 -16637625.18447 -12957712.07845  20499151.2034                   20499146.5314
  -7977554.18447  -6173548.87144  21356249.4694                   21356247.3054
  -3738644.56245  -2904187.42642  23737308.9844                   23737305.0864
  -2580214.61746  -2001388.75443  24311968.9924                   24311969.0164
 11  8 18  0 21 30.0000000  0  9G17G10G09G12G05G02G04G30G25
   5333316.23046   4172834.21544  22915974.7814                   22915973.1254
 -15949605.40247 -12420438.54345  20787022.1334                   20787019.5474
   1280428.92646   1004410.46943  23327851.2894                   23327849.8524
 -13811896.25047 -10924893.76645  21491082.9694                   21491079.6294
 -11824378.05546  -9179001.96144  22117028.7274                   22117026.4884
 -16619936.60547 -12943928.74245  20502517.0864                   20502512.4694
  -7880761.54747  -6098126.06644  21374668.2274                   21374666.6334
  -3817061.43446  -2965291.47742  23722385.9614                   23722383.7934
  -2659775.04346  -2063383.87143  24296828.0004                   24296829.1844
 11  8 18  0 22  0.0000000  0  9G17G10G09G12G05G02G04G30G25
   5406102.43046   4229550.68844  22929825.6094                   22929824.0084
 -15936316.25847 -12410083.34445  20789551.3984                   20789548.6374
   1378436.42246   1080779.89143  23346501.6954                   23346500.3524
 -13855376.33247 -10958774.33645  21482809.1094                   21482805.5354
 -11895893.17246  -9234727.94544  22103419.3984                   22103418.1334
 -16601901.25447 -12929875.21545  20505949.1024                   20505944.3164
  -7783759.89847  -6022540.38744  21393126.5784                   21393124.3164
  -3895204.12946  -3026181.86742  23707515.7034                   23707514.2344
  -2739161.69946  -2125243.49243  24281721.4774                   24281723.2734
 11  8 18  0 22 30.0000000  0  9G17G10G09G12G05G02G04G30G25
   5479075.65246   4286412.89844  22943711.7894                   22943710.3634
 -15922363.52747 -12399211.05945  20792206.5394                   20792204.0664
   1476697.62146   1157346.98043  23365199.1414                   23365198.5394
 -13898422.12947 -10992316.50845  21474617.0864                   21474613.9964
 -11967105.93746  -9290218.33645  22089868.4614                   22089866.7384
 -16583521.35947 -12915553.21145  20509446.9534                   20509442.0554
  -7686552.38747  -5946794.27344  21411624.7664                   21411623.1024
  -3973070.69146  -3086857.10543  23692699.1564                   23692696.7194
  -2818372.89546  -2186966.42243  24266648.6724                   24266649.0594
 11  8 18  0 23  0.0000000  0  9G17G10G09G12G05G02G04G30G25
   5552236.54746   4343421.34044  22957634.6484                   22957633.1294
 -15907746.65247 -12387821.26645  20794987.7814                   20794985.5664
   1575209.32846   1234109.28543  23383945.2734                   23383945.2734
 -13941031.12547 -11025518.32445  21466509.0234                   21466506.0044
 -12038013.17647  -9345470.67644  22076375.7194                   22076372.9734
 -16564797.88747 -12900963.47345  20513009.7584                   20513005.2234
  -7589140.62147  -5870889.02044  21430161.8204                   21430160.1644
  -4050658.21146  -3147314.90242  23677935.3284                   23677932.0434
  -2897406.02346  -2248550.66843  24251609.0864                   24251609.6884
 11  8 18  0 23 30.0000000  0  9G17G10G09G12G05G02G04G30G25
   5625590.97346   4400580.60944  22971592.9064                   22971591.2384
 -15892459.85247 -12375909.44945  20797896.5234                   20797894.0044
   1673973.07846   1311067.97343  23402738.9224                   23402739.4774
 -13983195.52047 -11058373.68445  21458485.2974                   21458482.2584
 -12108606.81246  -9400478.62544  22062941.4844                   22062939.6414
 -16545726.65647 -12886102.75446  20516639.3284                   20516634.0164
  -7491521.77047  -5794822.41444  21448737.9534                   21448735.7734
  -4127958.62545  -3207548.95343  23663224.7974                   23663222.6254
  -2976253.36346  -2309990.08243  24236605.4304                   24236605.2544
 11  8 18  0 24  0.0000000  0  9G17G10G09G12G05G02G04G30G25
   5699138.02746   4457889.92243  22985589.3674                   22985586.6724
 -15876504.14147 -12363476.40245  20800933.1094                   20800930.9614
   1772984.40646   1388219.60943  23421581.0864                   23421579.9804
 -14024914.38347 -11090881.89145  21450546.3594                   21450543.3244
 -12178885.28946  -9455241.00844  22049568.1334                   22049566.3834
 -16526309.98847 -12870972.87945  20520333.9614                   20520329.1804
  -7393699.08647  -5718596.96944  21467352.8754                   21467350.3094
  -4204970.44546  -3267558.07843  23648569.5634                   23648568.2194
  -3054913.69146  -2371283.82043  24221636.3364                   24221636.3634
 11  8 18  0 24 30.0000000  0  9G17G10G09G12G05G02G04G30G25
   5772880.62946   4515351.64843  22999621.2194                   22999620.3054
 -15859876.55547 -12350519.81245  20804096.8364                   20804094.0474
   1872241.74646   1465562.89143  23440468.5944                   23440467.9494
 -14066183.39147 -11123039.55145  21442693.3594                   21442690.3094
 -12248843.35946  -9509753.71944  22036255.3914                   22036254.2384
 -16506546.83647 -12855573.00045  20524094.5314                   20524089.7894
  -7295672.64547  -5642212.75844  21486006.8284                   21486004.9184
  -4281688.69146  -3327338.45743  23633971.1644                   23633969.4144
  -3133382.32045  -2432428.16843  24206704.8674                   24206704.4414
 11  8 18  0 25  0.0000000  0  9G17G10G09G12G05G02G04G30G25
   5846812.93846   4572961.20344  23013689.6334                   23013688.0904
 -15842582.55547 -12337043.94945  20807387.5634                   20807385.2504
   1971735.57046   1543090.45343  23459401.2344                   23459401.6024
 -14107006.06247 -11154849.42645  21434925.0004                   21434921.8484
 -12318484.33647  -9564019.32844  22023002.5234                   22023001.2624
 -16486444.48847 -12839908.82046  20527919.5084                   20527914.9924
  -7197450.75447  -5565676.24644  21504697.4304                   21504695.6254
  -4358116.73046  -3386892.69543  23619426.6954                   23619424.6374
  -3211662.83246  -2493425.97342  24191807.5314                   24191808.4104
 11  8 18  0 25 30.0000000  0  9G17G10G09G12G05G02G04G30G25
   5920940.05546   4630722.55544  23027796.8754                   23027794.6844
 -15824617.14847 -12323044.91045  20810806.5634                   20810804.3874
   2071466.91046   1620803.10243  23478380.2974                   23478380.4024
 -14147375.64147 -11186306.25445  21427243.1414                   21427239.5824
 -12387800.56246  -9618031.92245  22009812.2974                   22009810.8324
 -16465999.78947 -12823977.87146  20531810.3594                   20531805.6484
  -7099031.11747  -5488985.64844  21523426.3134                   21523424.8444
  -4434247.41446  -3446215.23443  23604940.0704                   23604937.9614
  -3289748.36346  -2554271.79343  24176948.2344                   24176949.3244
 11  8 18  0 26  0.0000000  0  9G17G10G09G12G05G02G04G30G25
   5995266.21146   4688639.00044  23041940.0234                   23041938.4264
 -15805976.37547 -12308519.60945  20814354.0474                   20814351.0234
   2171436.04346   1698701.04343  23497404.1644                   23497403.0084
 -14187286.08647 -11217405.30545  21419648.2504                   21419645.5784
 -12456786.24246  -9671786.91845  21996685.0164                   21996682.9414
 -16445209.92647 -12807777.96546  20535766.5554                   20535761.9574
  -7000411.97747  -5412139.59044  21542192.5784                   21542191.1804
  -4510074.18746  -3505300.97342  23590510.0314                   23590508.4064
  -3367632.73846  -2614960.91843  24162127.7344                   24162128.9104
 11  8 18  0 26 30.0000000  0  9G17G10G09G12G05G02G04G30G25
   6069786.65646   4746706.85543  23056120.9614                   23056119.4844
 -15786665.43447 -12293472.09845  20818028.9224                   20818026.9924
   2271633.85546   1776777.16843  23516471.0314                   23516469.7344
 -14226740.37147 -11248148.88745  21412140.4304                   21412137.3444
 -12525443.62147  -9725286.11745  21983619.5944                   21983617.8444
 -16424081.48047 -12791314.23446  20539787.2274                   20539782.2234
  -6901601.01647  -5335144.06244  21560996.3914                   21560994.4844
  -4585599.55146  -3564151.78143  23576138.7974                   23576135.8874
  -3445318.57046  -2675495.32843  24147343.5554                   24147345.4384
 11  8 18  0 27  0.0000000  0  9G17G10G09G12G05G02G04G30G25
   6144499.12946   4804924.31343  23070338.5164                   23070336.5314
 -15766686.72347 -12277904.25045  20821829.9304                   20821828.0554
   2372054.35246   1855026.83643  23535580.8134                   23535580.1644
 -14265739.05147 -11278537.45745  21404718.9614                   21404715.8634
 -12593772.71547  -9778529.49245  21970616.6334                   21970614.6914
 -16402618.55547 -12774589.87546  20543871.6884                   20543866.2114
  -6802603.21147  -5258002.94144  21579834.8284                   21579832.3324
  -4660823.68046  -3622767.93042  23561823.2664                   23561821.2934
  -3522806.34446  -2735875.35943  24132598.2274                   24132599.8134
 11  8 18  0 27 30.0000000  0  9G17G10G09G12G05G02G04G30G25
   6219406.91846   4863293.96943  23084592.7034                   23084591.1564
 -15746036.75847 -12261813.34445  20825760.0234                   20825757.7774
   2472696.96546   1933449.57043  23554731.6024                   23554731.8524
 -14304276.96147 -11308566.98445  21397385.1484                   21397382.8874
 -12661767.94546  -9831512.72345  21957678.0474                   21957675.5984
 -16380819.49247 -12757603.58246  20548019.4224                   20548014.6524
  -6703417.53547  -5180715.42644  21598708.8674                   21598707.4414
  -4735740.86346  -3681144.84043  23547566.4144                   23547564.9844
  -3600090.48446  -2796096.78143  24117892.3754                   24117892.7974
 11  8 18  0 28  0.0000000  0  9G17G10G09G12G05G02G04G30G25
   6294509.17646   4921815.16443  23098884.6804                   23098882.8054
 -15724716.70747 -12245200.30145  20829817.4064                   20829814.4774
   2573556.79346   2012041.59843  23573925.3594                   23573924.6524
 -14342353.13347 -11338236.70745  21390139.7344                   21390136.8834
 -12729427.42646  -9884234.33645  21944802.6724                   21944801.0164
 -16358686.88347 -12740357.38345  20552231.2894                   20552226.4774
  -6604047.56647  -5103284.32844  21617619.1484                   21617617.0664
  -4810349.73046  -3739281.52743  23533368.5864                   23533367.1804
  -3677170.00046  -2856158.67243  24103224.6414                   24103225.4654
 11  8 18  0 28 30.0000000  0  9G17G10G09G12G05G02G04G30G25
   6369807.24246   4980488.92643  23113213.8984                   23113211.9804
 -15702725.58647 -12228064.34845  20834001.2194                   20833999.3364
   2674631.29346   2090800.92643  23593158.5784                   23593158.3984
 -14379964.41847 -11367544.16845  21382982.4224                   21382979.4264
 -12796747.24647  -9936691.26244  21931992.1094                   21931990.3244
 -16336220.72747 -12722851.28146  20556506.7894                   20556501.5784
  -6504494.46547  -5025710.50844  21636563.8674                   21636561.7114
  -4884646.50446  -3797175.02343  23519231.6094                   23519229.4494
  -3754041.31246  -2916058.38743  24088596.1024                   24088597.1524
 11  8 18  0 29  0.0000000  0  9G17G10G09G12G05G02G04G30G25
   6445303.91046   5039317.45343  23127579.9064                   23127578.3054
 -15680060.95747 -12210403.56645  20838314.5164                   20838312.1294
   2775919.06645   2169726.38743  23612432.8984                   23612433.7234
 -14417106.39147 -11396485.93745  21375914.5864                   21375911.8444
 -12863722.91047  -9988880.03545  21919247.4454                   21919245.1764
 -16313420.23447 -12705084.64546  20560845.5164                   20560840.3834
  -6404758.06247  -4947993.85244  21655542.1564                   21655540.1524
  -4958626.39146  -3854821.62943  23505152.5634                   23505150.8324
  -3830699.76646  -2975792.16443  24074009.3594                   24074010.1804
 11  8 18  0 29 30.0000000  0  9G17G10G09G12G05G02G04G30G25
   6521000.50046   5098301.77043  23141984.2194                   23141983.3794
 -15656721.42247 -12192216.88745  20842756.0554                   20842753.6844
   2877417.69945   2248816.20343  23631747.6644                   23631748.1914
 -14453775.60247 -11425059.31645  21368936.4844                   21368934.2344
 -12930350.47847 -10040797.55045  21906568.3834                   21906566.3484
 -16290285.47747 -12687057.55945  20565248.0394                   20565242.8484
  -6304839.56647  -4870135.29744  21674556.2504                   21674554.1174
  -5032285.55146  -3912218.29743  23491136.3444                   23491134.0314
  -3907141.87146  -3035357.36343  24059462.3984                   24059462.5514
 11  8 18  0 30  0.0000000  0  9G17G10G09G12G05G02G04G30G25
   6596890.73446   5157436.95743  23156425.3674                   23156423.8554
 -15632713.98847 -12173509.77045  20847324.0314                   20847321.7774
   2979116.75445   2328062.14143  23651100.2894                   23651100.4494
 -14489976.75447 -11453267.96545  21362047.6644                   21362044.7504
 -12996634.02347 -10092447.00445  21893955.2274                   21893953.2234
 -16266824.60247 -12668776.35546  20569712.3594                   20569707.1484
  -6204748.00447  -4792141.91044  21693604.0314                   21693600.7584
  -5105628.05946  -3969368.25043  23477178.7664                   23477177.5164
  -3983372.08646  -3094757.43043  24044956.0164                   24044956.6604
 11  8 18  0 30 30.0000000  0  9G17G10G09G12G05G02G04G30G25
   6672979.47446   5216726.82743  23170905.1724                   23170903.5704
 -15608033.98447 -12154278.57845  20852020.8364                   20852018.4344
   3081017.29345   2407465.05543  23670491.8284                   23670492.2814
 -14525703.03147 -11481106.57845  21355249.4534                   21355246.3674
 -13062566.38747 -10143822.81245  21881408.3984                   21881406.3444
 -16243034.17247 -12650238.35545  20574239.2274                   20574234.2774
  -6104480.78147  -4714011.62144  21712683.8834                   21712681.8244
  -5178646.80546  -4026265.87943  23463284.8054                   23463281.7894
  -4059383.21946  -3153986.79343  24030493.1334                   24030492.6724
 11  8 18  0 31  0.0000000  0  9G17G10G09G12G05G02G04G30G25
   6749272.59446   5276175.96943  23185422.8524                   23185421.2304
 -15582676.09847 -12134519.15645  20856846.2344                   20856843.8444
   3183121.10246   2487026.39543  23689921.5704                   23689921.6214
 -14560947.55147 -11508569.80545  21348542.8054                   21348539.9144
 -13128139.41047 -10194918.59445  21868930.1334                   21868928.0394
 -16218910.59047 -12631440.76245  20578830.1564                   20578824.9654
  -6004034.66847  -4635741.94144  21731798.0314                   21731796.1054
  -5251333.60946  -4082904.88343  23449452.2974                   23449450.1414
  -4135167.62546  -3213039.45343  24016070.4384                   24016070.8594
 11  8 18  0 31 30.0000000  0  9G17G10G09G12G05G02G04G30G25
   6825764.91846   5335780.35543  23199979.4844                   23199977.2034
 -15556645.80947 -12114235.80545  20861799.7274                   20861797.1914
   3285419.03546   2566739.00843  23709388.3134                   23709388.2704
 -14595713.34447 -11535659.98045  21341926.4224                   21341923.5354
 -13193355.96947 -10245736.64145  21856520.1804                   21856518.2074
 -16194460.43747 -12612388.68445  20583482.4144                   20583477.4614
  -5903417.46947  -4557338.96144  21750943.9534                   21750943.1254
  -5323691.46946  -4139287.56243  23435683.0314                   23435680.8484
  -4210728.29346  -3271917.80543  24001691.1334                   24001692.3284
 11  8 18  0 32  0.0000000  0  9G17G10G09G12G05G02G04G30G25
   6902459.50446   5395542.33243  23214573.5784                   23214572.7544
 -15529940.28147 -12093426.28145  20866881.2974                   20866879.1454
   3387910.39846   2646602.34843  23728892.5314                   23728892.1134
 -14629995.74647 -11562373.50845  21335402.9844                   21335400.1884
 -13258210.64547 -10296272.68445  21844178.1334                   21844175.8754
 -16169682.31247 -12593081.05545  20588197.6564                   20588192.5664
  -5802628.63747  -4478802.24244  21770123.5864                   21770122.0664
  -5395714.91046  -4195409.68043  23421977.9304                   23421975.7344
  -4286060.12946  -3330617.81243  23987357.1334                   23987356.3794
 11  8 18  0 32 30.0000000  0  9G17G10G09G12G05G02G04G30G25
   6979357.24246   5455462.57043  23229206.9454                   23229205.8634
 -15502559.14547 -12072090.31245  20872092.2114                   20872089.2504
   3490592.23446   2726614.12943  23748431.9384                   23748431.9184
 -14663792.02347 -11588708.21945  21328971.5314                   21328968.6214
 -13322700.28147 -10346524.30145  21831906.6414                   21831904.3984
 -16144576.97747 -12573518.45745  20592975.2504                   20592970.1054
  -5701669.66847  -4400132.90244  21789336.0944                   21789333.9184
  -5467400.89146  -4251268.84443  23408336.8594                   23408334.3674
  -4361160.14146  -3389137.18743  23973065.2814                   23973066.1844
 11  8 18  0 33  0.0000000  0  9G17G10G09G12G05G02G04G30G25
   7056462.15246   5515544.24643  23243879.7114                   23243878.6294
 -15474498.90647 -12050225.17245  20877431.9534                   20877429.2894
   3593464.30946   2806774.14843  23768007.0004                   23768007.3914
 -14697096.28547 -11614659.55945  21322634.6484                   21322631.0274
 -13386818.32047 -10396486.34445  21819704.9224                   21819703.1454
 -16119142.07847 -12553699.05945  20597815.2664                   20597810.2274
  -5600538.90247  -4321329.75044  21808580.3984                   21808578.4804
  -5538742.85946  -4306859.94543  23394759.8524                   23394758.2074
  -4436022.12546  -3447471.10943  23958818.5944                   23958820.0474
 11  8 18  0 33 30.0000000  0  9G17G10G09G12G05G02G04G30G25
   7133769.88746   5575783.99244  23258590.6954                   23258589.2154
 -15445764.63347 -12027834.81645  20882899.5394                   20882897.7034
   3696518.36346   2887075.96543  23787618.2974                   23787617.5124
 -14729911.28547 -11640229.64545  21316389.9304                   21316386.6054
 -13450567.27747 -10446160.80145  21807574.1804                   21807571.8914
 -16093384.01247 -12533627.82845  20602716.7664                   20602712.1804
  -5499243.66047  -4242398.40644  21827855.8524                   21827854.1024
  -5609743.19946  -4362184.84843  23381249.5314                   23381247.2304
  -4510648.66446  -3505621.53543  23944617.7344                   23944618.8794
 11  8 18  0 34  0.0000000  0  9G17G10G09G12G05G02G04G30G25
   7211285.96146   5636186.08643  23273340.3834                   23273340.0354
 -15416351.21547 -12004915.25445  20888496.6564                   20888494.1454
   3799756.07846   2967520.85943  23807263.7034                   23807263.8404
 -14762229.89847 -11665412.94545  21310239.8134                   21310236.6604
 -13513939.22347 -10495541.48045  21795514.2894                   21795512.7934
 -16067298.68047 -12513301.59046  20607680.8054                   20607675.9104
  -5397780.44547  -4163336.19944  21847163.6954                   21847162.2384
  -5680393.77346  -4417237.21143  23367805.2584                   23367802.3054
  -4585031.83646  -3563582.33643  23930463.3364                   23930464.1724
 11  8 18  0 34 30.0000000  0  9G17G10G09G12G05G02G04G30G25
   7289005.75046   5696746.92643  23288131.1724                   23288129.7114
 -15386263.89547 -11981470.58645  20894221.7274                   20894219.9024
   3903169.07446   3048102.40643  23826942.2734                   23826942.3914
 -14794055.12547 -11690211.80545  21304183.8594                   21304180.7114
 -13576936.43047 -10544630.14845  21783526.8834                   21783524.6884
 -16040892.53147 -12492725.37145  20612705.6334                   20612700.5864
  -5296156.53547  -4084148.75444  21866502.5784                   21866500.0434
  -5750697.19946  -4472019.07043  23354426.2584                   23354424.9344
  -4659174.41846  -3621355.71543  23916353.8284                   23916355.2464
 11  8 18  0 35  0.0000000  0  9G17G10G09G12G05G02G04G30G25
   7366931.09046   5757467.92243  23302960.2274                   23302958.3874
 -15355501.30947 -11957499.72745  20900076.3834                   20900074.1914
   4006755.52045   3128819.05543  23846654.0314                   23846654.7464
 -14825383.02747 -11714623.11745  21298221.5634                   21298218.8524
 -13639554.69547 -10593423.54345  21771610.9694                   21771608.2274
 -16014165.02347 -12471898.73046  20617791.4064                   20617786.4574
  -5194372.29747  -4004836.37544  21885871.4614                   21885869.1914
  -5820648.97346  -4526526.88743  23341115.2734                   23341113.5274
  -4733072.03946  -3678938.21143  23902292.1644                   23902293.0554
 11  8 18  0 35 30.0000000  0  9G17G10G09G12G05G02G04G30G25
   7445063.91446   5818350.60543  23317827.9454                   23317826.6564
 -15324062.23847 -11933001.73045  20906058.7734                   20906056.4964
   4110512.78146   3209668.84842  23866398.7114                   23866398.2624
 -14856210.53947 -11738644.52745  21292355.9144                   21292352.2154
 -13701789.62947 -10641918.23445  21759767.7584                   21759765.7384
 -15987116.23447 -12450821.73845  20622938.4454                   20622933.7624
  -5092428.38747  -3925399.57044  21905270.9224                   21905268.8554
  -5890245.08646  -4580757.56643  23327871.0944                   23327869.0704
  -4806721.02046  -3736326.95343  23888277.3674                   23888277.7344
 11  8 18  0 36  0.0000000  0  9G17G10G09G12G05G02G04G30G25
   7523402.91046   5879393.92643  23332736.1484                   23332733.7304
 -15291948.85247 -11907978.30545  20912169.9844                   20912167.6134
   4214435.81345   3290647.82842  23886175.1954                   23886174.6254
 -14886537.23447 -11762275.70345  21286584.8834                   21286581.3834
 -13763641.06247 -10690114.11345  21747997.7114                   21747995.7664
 -15959749.24647 -12429496.80545  20628146.2664                   20628142.1914
  -4990328.83247  -3845841.50044  21924699.7504                   21924697.3984
  -5959484.79746  -4634710.55943  23314695.7734                   23314693.5234
  -4880120.69146  -3793521.44143  23874310.1724                   23874310.2154
 11  8 18  0 36 30.0000000  0  9G17G10G09G12G05G02G04G30G25
   7601954.36346   5940602.78143  23347683.8444                   23347682.4964
 -15259155.10247 -11882424.71945  20918410.2424                   20918407.6644
   4318527.37945   3371758.08242  23905982.2814                   23905982.6254
 -14916354.57447 -11785509.97745  21280911.0944                   21280907.6414
 -13825099.80547 -10738003.97345  21736301.8524                   21736300.1414
 -15932059.19147 -12407920.12945  20633415.6094                   20633410.9574
  -4888069.18747  -3766158.68744  21944159.1024                   21944157.2114
  -6028358.95746  -4688378.67643  23301588.9924                   23301586.3364
  -4953262.17646  -3850514.77043  23860391.0634                   23860391.7114
 11  8 18  0 37  0.0000000  0  9G17G10G09G12G05G02G04G30G25
   7680710.67646   6001971.30543  23362670.8834                   23362669.1764
 -15225689.32047 -11856347.46945  20924779.1334                   20924776.4654
   4422775.91445   3452990.63742  23925821.0084                   23925820.8874
 -14945669.00847 -11808352.37545  21275331.9614                   21275328.9494
 -13886171.04747 -10785591.88345  21724681.1954                   21724678.8054
 -15904055.59847 -12386099.14545  20638744.3674                   20638739.4064
  -4785659.56647  -3686359.00044  21963647.5394                   21963645.1334
  -6096873.11746  -4741766.23443  23288551.0944                   23288549.2194
  -5026151.12146  -3907311.29743  23846520.5084                   23846520.9304
 11  8 18  0 37 30.0000000  0  9G17G10G09G12G05G02G04G30G25
   7759681.83646   6063507.24243  23377698.0704                   23377696.8164
 -15191542.44947 -11829739.50845  20931276.7814                   20931273.8054
   4527187.57046   3534350.28543  23945689.3284                   23945689.3674
 -14974468.98447 -11830793.89845  21269852.0234                   21269848.9924
 -13946842.80947 -10832868.52045  21713136.0314                   21713133.5594
 -15875730.21147 -12364027.40646  20644135.0554                   20644130.2854
  -4683092.54747  -3606436.66044  21983164.8364                   21983163.5314
  -6165014.88346  -4794863.64543  23275584.8134                   23275582.3714
  -5098775.39146  -3963901.63343  23832701.2424                   23832701.6414
 11  8 18  0 38  0.0000000  0  9G17G10G09G12G05G02G04G30G25
   7838862.86346   6125206.68443  23392766.0784                   23392764.8914
 -15156720.05147 -11802605.15645  20937903.1644                   20937900.1374
   4631753.31346   3615830.03543  23965587.7194                   23965587.5204
 -15002757.80147 -11852837.12145  21264468.3834                   21264465.1884
 -14007117.89547 -10879836.06245  21701665.5314                   21701663.3524
 -15847089.44947 -12341709.91445  20649585.2734                   20649580.1994
  -4580375.25047  -3526397.21944  22002711.5084                   22002709.5594
  -6232787.08646  -4847673.11343  23262687.5004                   23262685.4024
  -5171137.87946  -4020287.93743  23818931.1954                   23818931.6524
 11  8 18  0 38 30.0000000  0  9G17G10G09G12G05G02G04G30G25
   7918247.37146   6187064.72343  23407872.2114                   23407871.1914
 -15121229.25447 -11774949.98045  20944656.3674                   20944654.0664
   4736463.18446   3697422.06343  23985512.6564                   23985513.4734
 -15030540.11347 -11874485.68445  21259181.2664                   21259178.6334
 -14067000.42647 -10926497.71145  21690270.2114                   21690267.8834
 -15818141.73847 -12319153.23045  20655093.7194                   20655088.4804
  -4477516.52047  -3446247.57044  22022284.6254                   22022282.8834
  -6300193.73046  -4900197.66843  23249860.6414                   23249858.1644
  -5243242.68446  -4076473.48843  23805209.4694                   23805209.3054
 11  8 18  0 39  0.0000000  0  9G17G10G09G12G05G02G04G30G25
   7997851.96546   6249094.25443  23423020.6334                   23423019.4844
 -15085054.27747 -11746761.67245  20951540.9224                   20951538.3244
   4841329.58646   3779136.08243  24005469.3444                   24005469.0124
 -15057797.65247 -11895725.30945  21253995.0864                   21253992.4344
 -14126471.27047 -10972838.57045  21678953.5704                   21678950.8364
 -15788871.82847 -12296345.48845  20660663.2194                   20660658.0594
  -4374502.21147  -3365976.70344  22041887.8674                   22041885.7934
  -6367216.06646  -4952422.77343  23237106.4384                   23237103.8874
  -5315071.32046  -4132443.82443  23791542.0314                   23791541.2194
 11  8 18  0 39 30.0000000  0  9G17G10G09G12G05G02G04G30G25
   8077662.96546   6311284.62943  23438207.1954                   23438207.6454
 -15048209.75447 -11718051.64145  20958551.5474                   20958549.5314
   4946335.33646   3860958.62543  24025451.4384                   24025451.3404
 -15084542.61747 -11916565.53145  21248905.5164                   21248902.7424
 -14185542.26247 -11018867.85945  21667712.3984                   21667709.4614
 -15759294.92247 -12273298.53145  20666291.9454                   20666286.7274
  -4271348.20747  -3285596.97344  22061516.8054                   22061515.2034
  -6433865.10946  -5004357.05543  23224423.3674                   23224421.6334
  -5386634.98446  -4188207.70343  23777922.8594                   23777923.7154
 11  8 18  0 40  0.0000000  0  9G17G10G09G12G05G02G04G30G25
   8157680.95746   6373636.25443  23453434.9614                   23453433.8554
 -15010695.72347 -11688819.91445  20965690.4064                   20965687.9414
   5051477.30546   3942887.34843  24045458.6484                   24045459.0354
 -15110772.54747 -11937004.43045  21243914.3364                   21243911.0234
 -14244210.27047 -11064583.13745  21656548.1644                   21656545.9804
 -15729412.52747 -12250013.53145  20671978.1174                   20671972.8984
  -4168056.09447  -3205109.64144  22081172.8134                   22081170.9884
  -6500138.08246  -5055998.27343  23211813.0554                   23211810.0744
  -5457930.79346  -4243762.82843  23764356.5394                   23764356.4734
 11  8 18  0 40 30.0000000  0  9G17G10G09G12G05G02G04G30G25
   8237909.96146   6436152.31343  23468702.1254                   23468700.9574
 -14972509.41847 -11659064.34045  20972956.9304                   20972954.5864
   5156755.16045   4024921.97743  24065492.1954                   24065493.0514
 -15136482.33647 -11957038.03945  21239021.9144                   21239018.0204
 -14302469.68447 -11109980.02745  21645461.1724                   21645459.1524
 -15699222.37547 -12226488.72745  20677723.4304                   20677718.4964
  -4064624.48847  -3124513.59844  22100854.9924                   22100853.9844
  -6566028.99646  -5107341.76243  23199272.9774                   23199271.5204
  -5528953.11346  -4299104.85543  23750840.8284                   23750840.9614
 11  8 18  0 41  0.0000000  0  9G17G10G09G12G05G02G04G30G25
   8318351.75446   6498834.21943  23484009.8364                   23484008.0124
 -14933649.48847 -11628783.87145  20980351.6414                   20980349.6294
   5262167.45745   4107061.30943  24085552.3134                   24085552.6134
 -15161667.80547 -11976663.07845  21234229.3914                   21234226.1374
 -14360315.50847 -11155054.64545  21634453.9774                   21634451.6174
 -15668723.75447 -12202723.53145  20683526.2814                   20683521.8954
  -3961053.22747  -3043808.74644  22120563.9534                   22120563.2664
  -6631533.08246  -5158383.87543  23186808.2194                   23186806.6334
  -5599697.22746  -4354230.09443  23737378.6254                   23737378.4734
 11  8 18  0 41 30.0000000  0  9G17G10G09G12G05G02G04G30G25
   8399009.44146   6561684.28543  23499358.1564                   23499356.7584
 -14894113.82447 -11597976.85545  20987874.9924                   20987872.8594
   5367713.42246   4189304.83243  24105636.9924                   24105637.3794
 -15186325.05947 -11995876.52745  21229536.8204                   21229533.5314
 -14417742.50047 -11199802.89145  21623526.0004                   21623523.9804
 -15637915.65647 -12178717.21145  20689389.4064                   20689384.4964
  -3857341.82447  -2962994.68444  22140299.8284                   22140298.7114
  -6696645.23846  -5209120.56643  23174417.8204                   23174416.1094
  -5670158.21146  -4409134.70743  23723970.4534                   23723970.5354
 11  8 18  0 42  0.0000000  0  9G17G10G09G12G05G02G04G30G25
   8479874.11746   6624695.68043  23514746.1094                   23514746.1214
 -14853912.39547 -11566651.04745  20995525.3674                   20995522.3634
   5473380.14545   4271642.39543  24125743.9924                   24125745.3404
 -15210461.44547 -12014684.09445  21224943.7344                   21224941.1764
 -14474758.28147 -11244230.71145  21612676.0084                   21612673.7934
 -15606808.57447 -12154477.89545  20695309.0704                   20695303.9884
  -3753501.60247  -2882080.24644  22160060.8134                   22160058.2304
  -6761372.20346  -5259557.10543  23162100.5634                   23162098.5394
  -5740342.83246  -4463823.94943  23710614.8524                   23710614.7704
 11  8 18  0 42 30.0000000  0  9G17G10G09G12G05G02G04G30G25
   8560954.89146   6687875.41843  23530175.4924                   23530175.0664
 -14813037.04347 -11534800.10945  21003303.4774                   21003301.0634
   5579173.30545   4354078.54343  24145876.2894                   24145876.6134
 -15234066.01647 -12033077.26645  21220452.3134                   21220449.0164
 -14531350.85947 -11288328.77345  21601906.8444                   21601904.5084
 -15575395.03547 -12129999.79345  20701287.1644                   20701281.9224
  -3649525.59447  -2801060.00044  22179846.4454                   22179844.6524
  -6825702.31246  -5309684.44543  23149858.2114                   23149857.4774
  -5810239.57446  -4518288.88743  23697313.4064                   23697314.1334
 11  8 18  0 43  0.0000000  0  9G17G10G09G12G05G02G04G30G25
   8642248.39846   6751220.95343  23545645.1884                   23545644.8674
 -14771492.23447 -11502427.53545  21011208.9924                   21011207.1804
   5685085.47345   4436607.41042  24166030.5784                   24166030.9734
 -15257140.69147 -12051057.53145  21216060.8754                   21216058.0864
 -14587521.59047 -11332098.12145  21591218.2194                   21591215.7544
 -15543680.14547 -12105286.86745  20707322.1884                   20707316.8134
  -3545419.32046  -2719938.27044  22199656.7664                   22199655.5204
  -6889636.77346  -5359503.44943  23137692.7194                   23137690.9024
  -5879849.80946  -4572530.56643  23684067.4844                   23684067.3054
 11  8 18  0 43 30.0000000  0  9G17G10G09G12G05G02G04G30G25
   8723754.94546   6814732.52043  23561155.5474                   23561154.3094
 -14729278.83647 -11469533.96545  21019242.3444                   21019239.4264
   5791113.25445   4519226.30542  24186207.7894                   24186207.5864
 -15279683.41447 -12068623.28145  21211771.2034                   21211768.4454
 -14643268.10547 -11375536.90645  21580609.9144                   21580607.5634
 -15511665.21947 -12080340.14845  20713413.5864                   20713408.9264
  -3441184.83246  -2638716.61344  22219492.4534                   22219490.7304
  -6953173.03146  -5409012.19143  23125602.3754                   23125601.1414
  -5949171.03946  -4626547.04343  23670875.7424                   23670876.4344
 11  8 18  0 44  0.0000000  0  9G17G10G09G12G05G02G04G30G25
   8805479.23846   6878413.75043  23576707.6954                   23576705.7774
 -14686393.10547 -11436116.50445  21027402.3834                   21027400.6604
   5897257.36346   4601935.97742  24206405.0164                   24206405.6604
 -15301688.61747 -12085770.18445  21207583.7664                   21207581.0164
 -14698583.48447 -11418639.75045  21570083.3524                   21570081.4844
 -15479347.72347 -12055157.67245  20719563.8984                   20719558.6724
  -3336819.65247  -2557393.11744  22239352.3754                   22239350.3284
  -7016304.19946  -5458205.26643  23113588.8914                   23113587.2034
  -6018196.51246  -4680333.03543  23657741.0634                   23657740.8554
 11  8 18  0 44 30.0000000  0  9G17G10G09G12G05G02G04G30G25
   8887414.62946   6942259.43843  23592299.1174                   23592298.4264
 -14642842.29747 -11402180.80545  21035690.5004                   21035688.2854
   6003507.92646   4684728.46942  24226624.0704                   24226624.9104
 -15323160.62147 -12102501.59845  21203498.0704                   21203495.2624
 -14753471.52747 -11461409.59845  21559638.2504                   21559636.4494
 -15446734.86747 -12029745.03946  20725769.4384                   20725764.6954
  -3232332.05546  -2475974.23844  22259235.6024                   22259234.0594
  -7079033.99646  -5507085.58243  23101650.8444                   23101649.9384
  -6086929.96546  -4733891.52743  23644660.7894                   23644661.0044
 11  8 18  0 45  0.0000000  0  9G17G10G09G12G05G02G04G30G25
   8969567.08646   7006274.29343  23607932.3594                   23607930.6914
 -14598621.87947 -11367723.32845  21044105.0474                   21044102.9734
   6109867.10245   4767605.71543  24246864.6024                   24246865.1174
 -15344092.43447 -12118812.09845  21199514.8364                   21199511.6414
 -14807924.51247 -11503840.43745  21549276.5084                   21549274.0314
 -15413822.62147 -12004099.12145  20732032.3054                   20732027.7464
  -3127718.45746  -2394457.20344  22279143.0704                   22279140.9574
  -7141354.32446  -5555646.83643  23089792.4614                   23089790.2304
  -6155363.46146  -4787216.24243  23631638.9924                   23631638.7194
 11  8 18  0 45 30.0000000  0  9G17G10G09G12G05G02G04G30G25
   9051934.82446   7070456.89143  23623606.2734                   23623605.0904
 -14553735.03547 -11332746.55545  21052647.1564                   21052644.5314
   6216329.07845   4850562.98842  24267122.9534                   24267124.7704
 -15364484.53547 -12134702.03145  21195634.8524                   21195631.2034
 -14861942.54747 -11545932.36345  21538997.3134                   21538995.0394
 -15380615.46147 -11978223.40245  20738351.5554                   20738347.0704
  -3022983.28946  -2312845.40644  22299072.8674                   22299071.5744
  -7203265.06646  -5603888.91443  23078011.1094                   23078009.8134
  -6223496.97946  -4840307.23043  23618673.3444                   23618673.0004
 11  8 18  0 46  0.0000000  0  9G17G10G09G12G05G02G04G30G25
   9134515.61746   7134805.55543  23639320.3204                   23639319.1214
 -14508184.72747 -11297252.79345  21061315.2114                   21061312.3594
   6322888.28145   4933596.06642  24287401.0944                   24287400.5944
 -15384337.32447 -12150171.71945  21191856.2974                   21191853.3754
 -14915525.12147 -11587684.96545  21528800.5944                   21528798.6764
 -15347116.27047 -11952120.14145  20744726.6254                   20744721.4454
  -2918130.37546  -2231141.86744  22319026.9384                   22319024.7774
  -7264765.78146  -5651811.47743  23066307.8204                   23066306.1604
  -6291330.12946  -4893164.16843  23605764.1804                   23605765.4734
 11  8 18  0 46 30.0000000  0  9G17G10G09G12G05G02G04G30G25
   9217313.50846   7199323.32843  23655076.4454                   23655075.8324
 -14461967.96947 -11261239.72745  21070110.2114                   21070107.2384
   6429544.96946   5016705.02342  24307697.2194                   24307697.4804
 -15403645.52047 -12165217.03545  21188182.1884                   21188178.6764
 -14968666.32047 -11629093.64145  21518688.2584                   21518685.9654
 -15313322.76247 -11925787.53145  20751157.4064                   20751151.9804
  -2813158.02046  -2149345.25044  22339001.0944                   22339000.0314
  -7325850.16846  -5699409.65643  23054683.6644                   23054681.2774
  -6358856.74646  -4945782.22743  23592914.1954                   23592914.1254
 11  8 18  0 47  0.0000000  0  9G17G10G09G12G05G02G04G30G25
   9300327.90246   7264009.80543  23670873.4774                   23670872.0354
 -14415086.71147 -11224708.86745  21079031.0704                   21079028.7194
   6536294.66845   5099886.55143  24328011.1954                   24328011.6254
 -15422408.16847 -12179837.27345  21184612.0234                   21184608.2034
 -15021364.44547 -11670157.06245  21508660.1334                   21508658.2154
 -15279237.39847 -11899227.49645  20757643.8054                   20757638.4964
  -2708068.71546  -2067457.52344  22358999.5554                   22358998.0824
  -7386516.59046  -5746682.12143  23043139.9384                   23043137.2034
  -6426075.09446  -4998160.10243  23580123.7424                   23580123.0084
 11  8 18  0 47 30.0000000  0  9G17G10G09G12G05G02G04G30G25
   9383556.40246   7328863.13743  23686711.7894                   23686711.4064
 -14367544.55547 -11187663.01645  21088077.7584                   21088075.0784
   6643131.39545   5183135.81642  24348340.8524                   24348341.8754
 -15440626.27047 -12194033.17245  21181145.1564                   21181141.8284
 -15073619.73847 -11710875.41845  21498716.1644                   21498714.0314
 -15244863.96147 -11872442.98045  20764184.6804                   20764179.2854
  -2602867.17247  -1985482.32444  22379018.7584                   22379017.5554
  -7446765.03146  -5793628.88743  23031674.5864                   23031671.8674
  -6492985.39146  -5050297.92643  23567391.0084                   23567390.7344
 11  8 18  0 48  0.0000000  0  9G17G10G09G12G05G02G04G30G25
   9467002.80946   7393886.29343  23702591.6254                   23702590.2464
 -14319339.03947 -11150100.26645  21097251.3054                   21097248.8674
   6750055.47345   5266453.12943  24368688.1484                   24368689.0474
 -15458294.21147 -12207800.37145  21177782.7034                   21177779.8284
 -15125426.09847 -11751243.96145  21488857.6414                   21488855.5984
 -15210200.20747 -11845432.25845  20770780.6564                   20770776.1294
  -2497551.32046  -1903418.05144  22399060.3204                   22399058.3554
  -7506589.28946  -5840245.12943  23020290.3914                   23020288.0864
  -6559581.34846  -5102190.81643  23554718.3754                   23554718.2304
 11  8 18  0 48 30.0000000  0  9G17G10G09G12G05G02G04G30G25
   9550669.40646   7459081.00843  23718512.6644                   23718511.4304
 -14270468.55547 -11112019.35245  21106550.7344                   21106548.8134
   6857065.35946   5349837.33243  24389052.7664                   24389052.9264
 -15475408.60947 -12221136.25045  21174526.1484                   21174522.8364
 -15176779.30547 -11791259.39545  21479085.5394                   21479083.4454
 -15175245.68447 -11818194.97345  20777432.5004                   20777427.5864
  -2392121.32046  -1821264.84844  22419122.9224                   22419121.0084
  -7565984.84446  -5886527.34043  23008987.9534                   23008985.1254
  -6625858.59446  -5153835.33643  23542106.4774                   23542106.0234
 11  8 18  0 49  0.0000000  0  9G17G10G09G12G05G02G04G30G25
   9634552.48846   7524444.41443  23734475.1254                   23734474.0234
 -14220938.80547 -11073424.72745  21115976.0394                   21115973.5474
   6964153.76645   5433282.73442  24409430.8674                   24409431.4534
 -15491972.06647 -12234042.82445  21171374.1254                   21171371.1134
 -15227681.16847 -11830923.14145  21469399.1334                   21469396.8674
 -15140005.99247 -11790735.45745  20784138.4844                   20784133.2504
  -2286582.68446  -1739026.98844  22439206.6334                   22439204.6254
  -7624953.35246  -5932476.75043  22997765.9304                   22997763.7704
  -6691818.67246  -5205232.75843  23529554.3444                   23529554.4344
 11  8 18  0 49 30.0000000  0  9G17G10G09G12G05G02G04G30G25
   9718648.26646   7589973.55143  23750477.1644                   23750477.2194
 -14170754.81247 -11034320.29745  21125525.4224                   21125523.4264
   7071313.44945   5516783.67642  24429822.9924                   24429823.0744
 -15507986.44147 -12246521.52745  21168326.8984                   21168323.8914
 -15278133.00447 -11870236.21945  21459798.3594                   21459796.3094
 -15104486.29347 -11763057.77046  20790897.6334                   20790892.5474
  -2180941.23846  -1656709.01644  22459308.6414                   22459307.8164
  -7683496.07046  -5978094.37543  22986626.4144                   22986623.0824
  -6757462.96546  -5256384.06243  23517062.9454                   23517062.4964
 11  8 18  0 50  0.0000000  0  9G17G10G09G12G05G02G04G30G25
   9802962.89545   7655673.22343  23766521.8674                   23766521.2464
 -14119911.69547 -10994702.27045  21135200.3914                   21135198.3364
   7178546.69545   5600341.96143  24450227.8984                   24450228.8554
 -15523445.01247 -12258567.14845  21165384.7114                   21165381.9224
 -15328127.00847 -11909192.54345  21450284.8524                   21450282.2704
 -15068682.35547 -11735158.59445  20797711.0234                   20797705.8754
  -2075193.25046  -1574308.02744  22479432.0004                   22479430.6884
  -7741604.73846  -6023373.82843  22975568.6254                   22975566.4224
  -6822783.26646  -5307282.95343  23504632.8674                   23504632.1844
 11  8 18  0 50 30.0000000  0  9G17G10G09G12G05G02G04G30G25
   9887491.90246   7721539.92643  23782607.5634                   23782607.4964
 -14068414.53147 -10954574.60945  21144999.9534                   21144997.8014
   7285845.83245   5683951.60543  24470647.1174                   24470647.3324
 -15538350.07847 -12270181.47345  21162548.7034                   21162545.4804
 -15377664.99247 -11947793.51645  21440858.4144                   21440855.9144
 -15032599.28547 -11707041.91845  20804576.7424                   20804571.7734
  -1969344.35946  -1491828.38344  22499574.4774                   22499572.9844
  -7799280.93446  -6068316.22743  22964592.6094                   22964590.8094
  -6887781.20346  -5357930.61343  23492263.7504                   23492263.6454
 11  8 18  0 51  0.0000000  0  9G17G10G09G12G05G02G04G30G25
   9972240.69146   7787577.94543  23798735.3364                   23798733.1884
 -14016259.71947 -10913934.46944  21154924.7424                   21154922.6174
   7393212.91445   5767614.17242  24491078.4384                   24491078.5904
 -15552694.99647 -12281359.31245  21159819.0634                   21159815.7074
 -15426739.20347 -11986033.12945  21431519.6414                   21431517.0594
 -14996233.41847 -11678704.87145  20811496.9694                   20811492.1684
  -1863391.20746  -1409267.52044  22519736.0164                   22519734.7854
  -7856516.94146  -6112915.64143  22953700.8364                   22953698.9804
  -6952448.96946  -5408321.05143  23479957.9384                   23479957.4414
 11  8 18  0 51 30.0000000  0  9G17G10G09G12G05G02G04G30G25
   8481783.05545   6626182.37543  23515110.2114                   23515109.3554
 -15538876.02047 -12100388.72345  20865180.2584                   20865178.2774
   5925218.35245   4623722.18842  24211728.2344                   24211728.6094
 -17141908.14147 -13519707.19945  20857401.6254                   20857398.1054
 -17050778.80147 -13251518.48045  21122474.6334                   21122472.2074
 -16535014.71147 -12877755.24245  20518676.9454                   20518671.9344
  -3332761.69546  -2554231.55144  22240125.0084                   22240123.5164
  -9488741.88346  -7384779.18743  22643098.4694                   22643096.3554
  -8592216.02046  -6686061.54743  23167920.8054                   23167920.4344
 11  8 18  0 52  0.0000000  0  9G17G10G09G12G05G02G04G30G25
   8566954.46546   6692549.69143  23531318.2894                   23531317.0864
 -15485426.96147 -12058740.09045  20875352.1484                   20875349.3324
   6032692.81645   4707468.48042  24232179.8134                   24232179.8874
 -17155145.76247 -13530022.20745  20854882.7344                   20854879.3444
 -17098936.99247 -13289044.30145  21113310.9924                   21113308.2704
 -16498105.71147 -12848994.97745  20525701.0704                   20525695.6214
  -3226623.62546  -2471526.59043  22260322.7894                   22260320.7424
  -9545108.38346  -7428701.08243  22632372.1484                   22632370.1684
  -8656234.43446  -6735945.96943  23155737.5554                   23155737.6564
 11  8 18  0 52 30.0000000  0  9G17G10G09G12G05G02G04G30G25
   8652344.55146   6759087.38343  23547567.4304                   23547565.8364
 -15431325.90247 -12016583.41845  20885646.8834                   20885644.5944
   6140222.85245   4791258.04342  24252641.7424                   24252642.9414
 -17167821.18047 -13539899.13745  20852469.9614                   20852467.0204
 -17146627.07447 -13326205.35545  21104235.5864                   21104233.3404
 -16460920.57447 -12820019.54345  20532776.4454                   20532771.7504
  -3120388.77346  -2388746.20743  22280538.0784                   22280536.5084
  -9601029.45346  -7472275.88743  22621731.2504                   22621729.1954
  -8719917.51246  -6785569.10943  23143619.3284                   23143619.2934
 11  8 18  0 53  0.0000000  0  9G17G10G09G12G05G02G04G30G25
   8737951.59445   6825794.14843  23563858.1644                   23563856.3834
 -15376575.80547 -11973920.98845  20896065.7194                   20896062.8754
   6247803.23045   4875086.82842  24273113.7274                   24273113.6914
 -17179933.90647 -13549337.60945  20850165.7814                   20850162.3164
 -17193848.39847 -13363001.15245  21095249.6484                   21095247.4414
 -16423462.06247 -12790831.10245  20539904.7734                   20539899.9924
  -3014060.61346  -2305893.10944  22300771.6024                   22300769.7584
  -9656504.38746  -7515503.03943  22611175.1644                   22611171.8714
  -8783264.42246  -6834930.27344  23131565.4064                   23131565.2384
 11  8 18  0 53 30.0000000  0  9G17G10G09G12G05G02G04G30G25
   8823773.82045   6892668.63343  23580190.2034                   23580188.6054
 -15321179.82447 -11930755.26645  20906607.9224                   20906604.8404
   6355428.97745   4958950.94542  24293594.0634                   24293595.2624
 -17191484.60547 -13558338.14145  20847967.1094                   20847964.4224
 -17240600.56247 -13399431.37145  21086352.8834                   21086350.5554
 -16385733.61747 -12761432.30145  20547083.6954                   20547078.8594
  -2907642.84046  -2222970.18444  22321022.2734                   22321020.4694
  -9711532.64846  -7558382.15643  22600703.0554                   22600700.2974
  -8846274.69546  -6884029.10943  23119573.5314                   23119573.6454
 11  8 18  0 54  0.0000000  0  9G17G10G09G12G05G02G04G30G25
   8909809.96945   6959709.80943  23596561.5474                   23596560.5824
 -15265140.86747 -11887088.53545  20917270.5944                   20917267.9414
   6463095.20345   5042846.63342  24314082.3134                   24314083.5354
 -17202473.47747 -13566900.88745  20845876.4614                   20845873.3134
 -17286882.69147 -13435495.32445  21077546.3134                   21077543.5864
 -16347737.89547 -12731825.25445  20554314.9614                   20554309.4844
  -2801138.43446  -2139979.73044  22341289.5394                   22341288.1564
  -9766113.05146  -7600912.28143  22590316.8054                   22590313.7194
  -8908947.12146  -6932864.72744  23107648.0164                   23107648.5274
 11  8 18  0 54 30.0000000  0  9G17G10G09G12G05G02G04G30G25
   8996061.38745   7026918.68443  23612975.2194                   23612973.8484
 -15208458.96147 -11842920.80945  20928056.3914                   20928054.5274
   6570799.94945   5126772.25842  24334579.4384                   24334578.7384
 -17212897.61747 -13575023.58245  20843893.0554                   20843889.6484
 -17332691.43747 -13471190.41045  21068828.2974                   21068826.2424
 -16309475.32447 -12702010.27045  20561595.9304                   20561590.6844
  -2694547.82446  -2056922.12544  22361572.6564                   22361571.4964
  -9820241.89846  -7643090.55943  22580017.0474                   22580014.0004
  -8971277.97746  -6981434.16043  23095786.3594                   23095786.7774
 11  8 18  0 55  0.0000000  0  9G17G10G09G12G05G02G04G30G25
   9082531.72745   7094298.18842  23629428.8054                   23629428.6644
 -15151131.62147 -11798250.14845  20938965.9774                   20938963.0744
   6678543.21545   5210727.91842  24355081.7114                   24355081.7584
 -17222752.29747 -13582702.54745  20842017.2274                   20842014.1174
 -17378021.55947 -13506512.53945  21060202.3674                   21060200.4224
 -16270943.75047 -12671985.67245  20568928.0004                   20568922.9884
  -2587869.28946  -1973795.99644  22381873.5164                   22381871.5164
  -9873913.48046  -7684912.52043  22569802.8204                   22569800.0984
  -9033261.53146  -7029732.99243  23083991.6484                   23083991.5864
 11  8 18  0 55 30.0000000  0  9G17G10G09G12G05G02G04G30G25
   9169216.35945   7161844.61342  23645924.5314                   23645924.2814
 -15093165.34047 -11753081.58645  20949997.1174                   20949995.1994
   6786316.83645   5294707.23842  24375589.3834                   24375590.8914
 -17232040.76247 -13589940.30945  20840249.7424                   20840246.9414
 -17422874.99647 -13541463.23845  21051667.2034                   21051664.8164
 -16232149.24647 -12641756.18745  20576310.2814                   20576305.4264
  -2481109.45346  -1890606.53544  22402188.9064                   22402187.8634
  -9927129.94546  -7726379.86743  22559675.9144                   22559673.1724
  -9094899.87946  -7077762.82044  23072261.9924                   23072262.6914
 11  8 18  0 56  0.0000000  0  9G17G10G09G12G05G02G04G30G25
   9256118.93445   7229560.90242  23662461.2664                   23662460.6724
 -15034557.74647 -11707413.33244  20961148.9614                   20961147.2974
   6894121.33645   5378710.63343  24396105.1024                   24396105.5434
 -17240758.05547 -13596732.99645  20838590.8524                   20838587.8954
 -17467246.07047 -13576038.05945  21043223.0704                   21043221.1564
 -16193089.50047 -12611320.02045  20583743.2894                   20583738.3714
  -2374265.98846  -1807351.90244  22422521.1954                   22422519.6214
  -9979885.14846  -7767487.74243  22549637.4694                   22549634.9104
  -9156186.78546  -7125518.77343  23060600.1804                   23060599.8014
 11  8 18  0 56 30.0000000  0  9G17G10G09G12G05G02G04G30G25
   9343236.22745   7297444.44142  23679039.7114                   23679037.4534
 -14975314.09847 -11661249.43745  20972422.5704                   20972420.5634
   7001949.81345   5462732.65242  24416624.1174                   24416624.8594
 -17248906.41047 -13603082.36745  20837040.2034                   20837037.2544
 -17511136.60547 -13610238.44145  21034871.6334                   21034869.5904
 -16153769.18047 -12580680.80945  20591225.0554                   20591220.4654
  -2267344.21146  -1724036.23443  22442867.5234                   22442865.6564
 -10032180.42646  -7808237.28543  22539684.9534                   22539682.9064
  -9217123.58246  -7173001.94544  23049004.2734                   23049003.3714
 11  8 18  0 57  0.0000000  0  9G17G10G09G12G05G02G04G30G25
   9430564.98045   7365492.77042  23695657.1484                   23695655.8594
 -14915439.34447 -11614593.77045  20983816.8834                   20983813.6804
   7109795.62545   5546768.21542  24437145.9304                   24437148.0394
 -17256488.02047 -13608990.10945  20835597.5864                   20835594.5634
 -17554547.55547 -13644065.10945  21026610.5234                   21026608.1454
 -16114193.80947 -12549842.87145  20598756.8984                   20598751.3954
  -2160349.29346  -1640663.58643  22463226.9534                   22463226.3914
 -10084016.82046  -7848629.23443  22529820.8134                   22529818.7854
  -9277711.12146  -7220212.94144  23037474.7734                   23037474.5234
 11  8 18  0 57 30.0000000  0  9G17G10G09G12G05G02G04G30G25
   9518111.93045   7433711.21542  23712317.0554                   23712316.1844
 -14854928.08647 -11567442.13345  20995331.0864                   20995329.6724
   7217662.29346   5630820.02342  24457673.2504                   24457674.0744
 -17263494.86347 -13614449.99245  20834264.8054                   20834261.0634
 -17597469.99647 -13677511.13745  21018442.9144                   21018440.4184
 -16074357.64147 -12518801.69945  20606337.5704                   20606332.0044
  -2053276.10246  -1557229.92243  22483603.3204                   22483601.4694
 -10135384.96946  -7888656.32043  22520046.2504                   22520044.1954
  -9337940.20746  -7267144.62544  23026012.7194                   23026013.2664
 11  8 18  0 58  0.0000000  0  9G17G10G09G12G05G02G04G30G25
   9605874.16845   7502097.39842  23729018.0474                   23729016.9414
 -14793784.86747 -11519798.05545  21006967.0864                   21006964.7074
   7325543.28545   5714882.98042  24478201.8594                   24478203.7234
 -17269928.46547 -13619463.19145  20833040.2034                   20833037.0984
 -17639905.14547 -13710577.43745  21010367.6564                   21010364.9454
 -16034265.05947 -12487560.72345  20613966.4774                   20613961.4104
  -1946129.54346  -1473739.08644  22503991.7894                   22503990.6094
 -10186285.90246  -7928319.33143  22510360.4774                   22510357.3484
  -9397811.46946  -7313797.49244  23014619.1484                   23014619.6994
 11  8 18  0 58 30.0000000  0  9G17G10G09G12G05G02G04G30G25
   9693847.91845   7570648.39542  23745758.3914                   23745757.2154
 -14732015.06247 -11471665.72345  21018721.0004                   21018718.7274
   7433431.33245   5798951.46542  24498733.2584                   24498733.7114
 -17275791.89547 -13624032.09445  20831924.2114                   20831921.0474
 -17681854.86347 -13743265.48845  21002384.9694                   21002381.8204
 -15993921.55147 -12456124.21945  20621643.7894                   20621639.0234
  -1838914.92646  -1390195.23844  22524394.1024                   22524392.7074
 -10236721.05146  -7967619.40243  22500762.5474                   22500760.8594
  -9457326.54746  -7360172.80943  23003294.5784                   23003294.1094
 11  8 18  0 59  0.0000000  0  9G17G10G09G12G05G02G04G30G25
   9782034.34845   7639364.95342  23762540.2664                   23762538.8444
 -14669618.93447 -11423045.35245  21030595.0944                   21030592.8634
   7541324.75845   5883024.10542  24519264.3834                   24519265.1414
 -17281082.14547 -13628154.35945  20830917.4454                   20830914.3634
 -17723315.52047 -13775572.45345  20994495.1564                   20994492.8524
 -15953326.86347 -12424491.99245  20629368.4924                   20629363.5904
  -1731632.41046  -1306598.49643  22544809.3444                   22544808.1994
 -10286686.55946  -8006553.51643  22491254.6254                   22491252.4304
  -9516481.29346  -7406267.34843  22992037.5004                   22992037.2934
 11  8 18  0 59 30.0000000  0  9G17G10G09G12G05G02G04G30G25
   9870436.34855   7708249.59852  23779362.7344                   23779361.1374
 -14606595.86747 -11373936.46545  21042588.2114                   21042585.4774
   7649222.74245   5967100.28942  24539795.8754                   24539797.1174
 -17285795.83647 -13631827.36745  20830020.2814                   20830017.1414
 -17764282.85547 -13807495.00845  20986699.3594                   20986696.6604
 -15912479.99247 -12392663.25445  20637141.0164                   20637136.1174
  -1624281.34446  -1222948.32443  22565237.1094                   22565235.7234
 -10336177.71146  -8045118.02343  22481836.9694                   22481834.0944
  -9575271.00846  -7452077.45744  22980850.0314                   22980850.0434
 11  8 18  1  0  0.0000000  0  9G17G10G09G12G05G02G04G30G25
   9959053.05945   7777301.60542  23796225.9384                   23796224.0004
 -14542948.58247 -11324341.15645  21054699.2504                   21054696.7584
   7757121.02745   6051176.75842  24560329.2894                   24560329.5554
 -17289932.53547 -13635050.76645  20829233.2274                   20829230.3444
 -17804755.61347 -13839032.18745  20978997.4924                   20978995.1414
 -15871383.65647 -12360640.12945  20644961.9534                   20644957.0664
  -1516864.20346  -1139246.64843  22585678.4774                   22585676.8674
 -10385193.17246  -8083311.84843  22472509.1094                   22472506.7814
  -9633694.24246  -7497601.99644  22969732.0084                   22969732.2504
 11  8 18  1  0 30.0000000  0  9G17G10G09G12G05G02G04G30G25
  10047881.26245   7846518.35542  23813129.2974                   23813126.7934
 -14478681.48047 -11274262.88745  21066929.6564                   21066926.6484
   7865013.35245   6135248.61742  24580860.3594                   24580860.3674
 -17293494.29347 -13637826.16845  20828555.8594                   20828552.2974
 -17844735.10947 -13870185.00845  20971389.8284                   20971387.1334
 -15830042.14547 -12328425.95745  20652828.7114                   20652824.0124
  -1409385.82846  -1055497.28543  22606131.1094                   22606129.5084
 -10433733.71546  -8121135.63343  22463272.3984                   22463270.0124
  -9691751.65646  -7542841.47744  22958684.4534                   22958684.0394
 11  8 18  1  1  0.0000000  0  9G17G10G09G12G05G02G04G30G25
  10136921.10945   7915900.10542  23830071.8444                   23830070.6374
 -14413796.22747 -11223702.94145  21079275.9694                   21079273.9414
   7972896.55545   6219313.33642  24601388.6174                   24601389.7034
 -17296479.78147 -13640152.52045  20827987.2034                   20827984.1094
 -17884218.84447 -13900951.51645  20963876.3134                   20963873.1954
 -15788456.41447 -12296021.48045  20660742.4064                   20660737.2424
  -1301847.30946   -971701.05143  22626595.3914                   22626593.5594
 -10481796.75846  -8158587.31243  22454125.6094                   22454124.6294
  -9749440.51646  -7587793.77343  22947706.5314                   22947706.9884
 11  8 18  1  1 30.0000000  0  9G17G10G09G12G05G02G04G30G25
  10226175.53145   7985448.99242  23847056.4534                   23847055.2344
 -14348291.59447 -11172660.35545  21091741.9614                   21091738.7704
   8080770.20345   6303370.55542  24621918.0634                   24621918.1724
 -17298884.61747 -13642026.40645  20827529.8674                   20827526.7154
 -17923202.26647 -13931328.18045  20956457.8594                   20956455.2154
 -15746625.28947 -12263425.79345  20668702.5084                   20668698.1214
  -1194247.41046   -887856.99243  22647070.8984                   22647069.2114
 -10529377.27346  -8195662.98843  22445072.1254                   22445069.8674
  -9806755.72346  -7632454.92643  22936799.8674                   22936799.4494
 11  8 18  1  2  0.0000000  0  9G17G10G09G12G05G02G04G30G25
  10315644.69945   8055165.21142  23864083.3524                   23864081.4654
 -14282169.50847 -11121136.63345  21104323.6954                   21104321.9804
   8188630.82445   6387417.61342  24642443.0234                   24642443.4184
 -17300708.49247 -13643447.60545  20827183.0394                   20827179.3244
 -17961683.59447 -13961313.59045  20949134.8134                   20949132.6564
 -15704550.55147 -12230640.26645  20676709.2034                   20676703.6484
  -1086588.34846   -803966.81643  22667557.9694                   22667555.9304
 -10576473.36746  -8232361.23443  22436110.0554                   22436107.0704
  -9863695.07846  -7676823.20744  22925964.3444                   22925964.7384
 11  8 18  1  2 30.0000000  0  9G17G10G09G12G05G02G04G30G25
  10405322.79745   8125044.29742  23881147.2344                   23881147.4224
 -14215437.61747 -11069137.75445  21117022.3524                   21117020.2704
   8296469.64545   6471447.72742  24662964.7734                   24662965.7894
 -17301956.26647 -13644419.88345  20826945.6414                   20826942.1684
 -17999666.40647 -13990910.56245  20941906.9454                   20941904.6644
 -15662238.77047 -12197670.03945  20684760.9924                   20684756.1174
   -978876.90246   -720035.83243  22688054.5784                   22688052.8794
 -10623088.23846  -8268684.46944  22427239.3444                   22427236.7734
  -9920261.76246  -7720901.08244  22915200.4224                   22915200.3444
 11  8 18  1  3  0.0000000  0  9G17G10G09G12G05G02G04G30G25
  10495208.58245   8195085.11742  23898252.9144                   23898251.2734
 -14148098.56247 -11016665.75444  21129836.7424                   21129834.4804
   8404282.75045   6555457.73442  24683480.3914                   24683481.7774
 -17302627.04747 -13644942.55945  20826818.1724                   20826814.2854
 -18037150.10247 -14020118.59845  20934773.8524                   20934771.4884
 -15619692.40247 -12164517.02045  20692857.1024                   20692852.2624
   -871115.67646   -636066.07843  22708560.5704                   22708558.6174
 -10669220.61346  -8304631.74243  22418460.5004                   22418458.2854
  -9976454.40647  -7764687.53944  22904507.5704                   22904507.4924
 11  8 18  1  3 30.0000000  0  9G17G10G09G12G05G02G04G30G25
  10585308.50845   8265292.82042  23915399.2584                   23915396.2154
 -14080148.08647 -10963717.31645  21142767.4614                   21142765.2544
   8512072.86745   6639449.84043  24703992.3754                   24703994.5234
 -17302714.00447 -13645010.30545  20826801.1884                   20826798.0354
 -18074126.37947 -14048931.25045  20927738.1094                   20927735.2074
 -15576906.78947 -12131177.56245  20700999.4924                   20700993.8794
   -763299.96146   -552053.83243  22729077.3594                   22729075.3754
 -10714862.06646  -8340196.49643  22409775.3834                   22409772.9304
 -10032264.30546  -7808175.75844  22893886.8134                   22893886.7544
 11  8 18  1  4  0.0000000  0  9G17G10G09G12G05G02G04G30G25
  10675616.32455   8335662.57052  23932584.5004                   23932581.3364
 -14011594.31247 -10910298.78545  21155813.0234                   21155809.9574
   8619830.33245   6723416.53142  24724499.4064                   24724499.8324
 -17302222.57447 -13644627.35945  20826894.6564                   20826891.5354
 -18110599.70747 -14077351.97745  20920797.4064                   20920794.8284
 -15533889.62947 -12097657.68445  20709184.6174                   20709180.0784
   -655437.81646   -468005.41843  22749602.8524                   22749601.0784
 -10760016.71546  -8375381.94144  22401183.7034                   22401179.9924
 -10087695.55146  -7851368.89544  22883338.3984                   22883338.6484
 11  8 18  1  4 30.0000000  0  9G17G10G09G12G05G02G04G30G25
  10766137.24255   8406198.37552  23949809.9694                   23949806.9574
 -13942433.47347 -10856407.20344  21168972.8834                   21168970.9344
   8727557.85546   6807359.89543  24744998.5164                   24744999.7704
 -17301146.23047 -13643788.63345  20827099.3204                   20827096.3204
 -18146562.38347 -14105374.81245  20913953.2034                   20913951.2344
 -15490636.77347 -12063954.14845  20717415.2734                   20717410.6334
   -547525.03146   -383917.57043  22770137.2344                   22770136.1804
 -10804676.90246  -8410182.05944  22392684.1414                   22392681.4304
 -10142740.19946  -7894260.80944  22872864.3984                   22872864.0514
 11  8 18  1  5  0.0000000  0  9G17G10G09G12G05G02G04G30G25
  10856867.60955   8476897.33652  23967074.2034                   23967071.9804
 -13872671.21947 -10802046.99244  21182248.6644                   21182246.1134
   8835248.20346   6891274.32443  24765491.3674                   24765492.5234
 -17299487.97347 -13642496.46945  20827415.1254                   20827411.8284
 -18182017.19147 -14133001.90245  20907206.8524                   20907204.5744
 -15447153.65247 -12030071.18045  20725690.0784                   20725685.1454
   -439567.19946   -299794.58243  22790681.3204                   22790680.0204
 -10848844.33646  -8444598.23443  22384279.3444                   22384276.3634
 -10197399.80546  -7936852.68744  22862462.7034                   22862462.5004
 11  8 18  1  5 30.0000000  0  9G17G10G09G12G05G02G04G30G25
  10947805.77045   8547758.21542  23984379.2664                   23984377.1764
 -13802311.29347 -10747221.07845  21195637.4384                   21195635.7624
   8942896.62545   6975155.97342  24785975.7424                   24785977.5554
 -17297247.82447 -13640750.88745  20827841.5234                   20827837.9774
 -18216963.65647 -14160232.87545  20900556.5394                   20900554.2234
 -15403442.87947 -11996010.83245  20734007.7504                   20734002.8444
   -331567.10546   -215638.68043  22811233.6254                   22811231.5004
 -10892518.31246  -8478629.88743  22375968.1254                   22375965.6484
 -10251673.54346  -7979143.90244  22852135.4224                   22852134.8914
 11  8 18  1  6  0.0000000  0  9G17G10G09G12G05G02G04G30G25
  11038951.762 5                  24001724.328
 -13731355.48447 -10691930.83645  21209140.6094                   21209138.1174
   9050499.93845   7059002.50842  24806451.5314                   24806453.6804
 -17294425.43047 -13638551.60245  20828378.8364                   20828375.3444
 -18251399.64147 -14187066.07845  20894003.1334                   20894001.3754
 -15359505.98847 -11961774.28145  20742368.9224                   20742363.7814
   -223526.45746   -131451.18743  22831792.2974                   22831791.8164
 -10935696.69546  -8512275.36344  22367751.8674                   22367749.1604
 -10305559.03547  -8021132.59844  22841880.4774                   22841880.9184
 11  8 18  1  6 30.0000000  0  9G17G10G09G12G05G02G04G30G25
  11130301.719 5                  24019106.633
 -13659809.74247 -10636180.87945  21222755.2034                   21222752.8594
   9158051.25045   7142808.54742  24826918.6804                   24826920.4924
 -17291023.75847 -13635900.94145  20829026.1174                   20829022.1374
 -18285327.28147 -14213503.16845  20887547.3754                   20887544.8444
 -15315348.28547 -11927365.66845  20750771.7344                   20750766.6374
   -115450.47746    -47236.14843  22852359.4694                   22852357.8754
 -10978381.09446  -8545535.91443  22359628.6024                   22359626.2114
 -10359057.73047  -8062819.88344  22831700.1884                   22831700.2464
 11  8 18  1  7  0.0000000  0  9G17G10G09G12G05G02G04G30G25
  11221858.582 5                  24036529.352
 -13587672.84047 -10579970.30144  21236482.2504                   21236479.2544
   9265550.30945   7226573.87542  24847375.0704                   24847376.3754
 -17287038.96947 -13632795.90245  20829784.3444                   20829781.1094
 -18318742.07447 -14239540.62945  20881189.2504                   20881186.0434
 -15270968.10947 -11892783.70345  20759217.2734                   20759212.1764
     -7337.73046     37007.52743  22872932.0704                   22872930.6764
 -11020566.55946  -8578407.68443  22351601.2034                   22351599.3634
 -10412164.43446  -8104201.74244  22821594.1484                   22821594.3244
 11  8 18  1  7 30.0000000  0  9G17G10G09G12G05G02G04G30G25
  11313626.039 5                  24053992.305
 -13514943.32047 -10523297.93044  21250322.3594                   21250319.3244
   9372997.77345   7310298.91442  24867822.0394                   24867823.2194
 -17282466.26647 -13629232.74645  20830653.9304                   20830650.9104
 -18351638.44947 -14265174.13745  20874928.4454                   20874925.8674
 -15226363.19147 -11858026.62145  20767704.6024                   20767700.2664
    100814.10246    121281.65243  22893511.5554                   22893511.5204
 -11062247.24246  -8610886.09843  22343669.5704                   22343667.6644
 -10464873.04347  -8145273.38744  22811564.4844                   22811563.9494
 11  8 18  1  8  0.0000000  0  8G17G10G12G05G02G04G30G25
  11405598.629 5                  24071495.492
 -13441628.52347 -10466169.50444  21264273.0704                   21264271.2034
 -17277310.48847 -13625215.25845  20831634.9144                   20831632.0124
 -18384020.07047 -14290406.53545  20868766.8054                   20868764.1564
 -15181540.24247 -11823099.63345  20776234.0784                   20776229.3284
    208998.07846    205580.84443  22914100.3524                   22914098.4104
 -11103426.45346  -8642973.77344  22335833.7504                   22335831.5204
 -10517186.67247  -8186037.23844  22801609.4924                   22801609.0664
 11  8 18  1  8 30.0000000  0  8G17G10G12G05G02G04G30G25
  11497775.008 5                  24089035.492
 -13367731.40247 -10408587.32045  21278335.7664                   21278332.9454
 -17271571.62547 -13620743.40245  20832727.3364                   20832723.9964
 -18415886.27047 -14315237.30145  20862702.6954                   20862700.3484
 -15136501.57847 -11788004.56245  20784805.4064                   20784800.2194
    317211.78146    289903.19943  22934692.8754                   22934690.1764
 -11144102.98846  -8674669.73044  22328093.1484                   22328090.5394
 -10569103.91847  -8226492.23444  22791730.6484                   22791729.2034
 11  8 18  1  9  0.0000000  0  8G17G10G12G05G02G04G30G25
  11590161.824 5                  24106615.313
 -13293247.61347 -10350548.00044  21292509.3444                   21292506.6294
 -17265242.71947 -13615811.78145  20833931.8754                   20833928.5784
 -18447229.03947 -14339660.21145  20856738.7114                   20856736.0554
 -15091242.13347 -11752737.46545  20793417.8984                   20793412.7274
    425460.24246    374252.62143  22955290.3754                   22955289.1994
 -11184268.47346  -8705967.47744  22320449.8834                   22320448.4144
 -10620616.14147  -8266631.60944  22781927.3054                   22781927.1094
 11  8 18  1  9 30.0000000  0  8G17G10G12G05G02G04G30G25
  11682759.64115                  24124237.609
 -13218178.70747 -10292052.72744  21306794.3134                   21306792.4614
 -17258322.08647 -13610419.08245  20835248.8284                   20835245.6254
 -18478045.69547 -14363673.14145  20850874.6644                   20850871.6914
 -15045762.63347 -11717298.88345  20802071.5634                   20802067.7074
    533742.79746    458628.62943  22975897.0634                   22975894.4884
 -11223920.08246  -8736864.77744  22312903.9304                   22312902.0904
 -10671720.24646  -8306452.95744  22772203.0164                   22772202.5944
 11  8 18  1 10  0.0000000  0  8G17G10G12G05G02G04G30G25
  11775566.23415                  24141899.352
 -13142528.39147 -10233104.42645  21321190.6254                   21321187.6484
 -17250811.00447 -13604566.27045  20836678.0314                   20836674.4024
 -18508336.91447 -14387276.66045  20845109.8524                   20845106.7734
 -15000066.17647 -11681691.25045  20810767.8674                   20810762.8164
    642056.15346    543028.61243  22996508.2274                   22996506.8594
 -11263057.57846  -8767361.48444  22305456.5084                   22305454.1414
 -10722415.76246  -8345955.93444  22762555.1644                   22762554.8164
 11  8 18  1 10 30.0000000  0  8G17G10G12G05G02G04G30G25
  11868585.188 5                  24159598.711
 -13066295.85947 -10173702.43044  21335696.6644                   21335694.5124
 -17242705.64847 -13598250.39845  20838220.2274                   20838216.9264
 -18538097.50847 -14410466.69945  20839446.8984                   20839443.4804
 -14954151.34047 -11645913.44545  20819505.4614                   20819500.6254
    750402.16446    627454.04343  23017125.5234                   23017124.4924
 -11301675.87146  -8797453.60544  22298108.2034                   22298105.8984
 -10772697.27347  -8385136.27744  22752987.1484                   22752987.2464
 11  8 18  1 11  0.0000000  0  8G17G10G12G05G02G04G30G25
                                  24177339.695
 -12989486.51647 -10113851.00444  21350313.2034                   21350310.7274
 -17234008.58247 -13591473.47345  20839874.9614                   20839872.0704
 -18567329.26247 -14433244.65645  20833883.7114                   20833881.1134
 -14908022.45747 -11609968.85945  20828283.1174                   20828278.4454
    858775.85246    711901.03943  23037748.7424                   23037746.8404
 -11339776.25047  -8827142.16844  22290857.6254                   22290854.9224
 -10822565.89147  -8423994.89844  22743497.8134                   22743497.4734
 11  8 18  1 11 30.0000000  0  8G17G10G12G05G02G04G30G25
                                  24195118.789
 -12912103.04346 -10053552.16445  21365038.5394                   21365036.0514
 -17224719.52047 -13584235.23445  20841642.7194                   20841639.4654
 -18596031.28547 -14455609.83245  20828422.0864                   20828419.4844
 -14861681.45347 -11573858.98045  20837101.3834                   20837096.6414
    967175.64146    796368.38743  23058375.5784                   23058374.8284
 -11377357.23846  -8856426.00444  22283705.5314                   22283703.6724
 -10872019.77346  -8462530.35244  22734086.9454                   22734086.3484
 11  8 18  1 12  0.0000000  0  8G17G10G12G05G02G04G30G25
                                  24212938.203
 -12834156.05547  -9992814.24644  21379871.3364                   21379868.4104
 -17214846.45747 -13576541.92245  20843521.2504                   20843518.2934
 -18624210.33647 -14477567.50445  20823059.7194                   20823057.5944
 -14815138.19547 -11537591.49645  20845958.4694                   20845953.6134
   1075591.37146    880848.14143  23079006.6644                   23079005.7194
 -11414425.27746  -8885310.15244  22276652.6414                   22276649.6334
 -10921065.17246  -8500747.49644  22724753.1724                   22724753.4534
 11  8 18  1 12 30.0000000  0  7G10G12G05G02G04G30G25
 -12755651.99247  -9931642.25444  21394810.3524                   21394808.0704
 -17204392.98447 -13568396.35245  20845510.9614                   20845507.3984
 -18651869.20347 -14499119.84045  20817796.2034                   20817793.6094
 -14768398.25847 -11501170.76645  20854853.0004                   20854847.8324
   1184017.83246    965336.25843  23099639.2814                   23099638.7934
 -11450982.71946  -8913796.41844  22269695.9384                   22269693.9774
 -10969704.08246  -8538647.88344  22715497.7584                   22715496.9654
 11  8 18  1 13  0.0000000  0  7G10G12G05G02G04G30G25
 -12676589.09047  -9870034.78544  21409855.3834                   21409853.1484
 -17193354.78147 -13559795.15645  20847611.8134                   20847608.0944
 -18679002.53547 -14520262.66445  20812633.4224                   20812630.3484
 -14721458.55547 -11464594.37145  20863784.7974                   20863780.0944
   1292457.61346   1049834.75043  23120274.8204                   23120273.5554
 -11487023.63346  -8941880.20344  22262837.4774                   22262835.1524
 -11017930.23846  -8576226.66044  22706320.6484                   22706320.8834
 11  8 18  1 13 30.0000000  0  7G10G12G05G02G04G30G25
 -12596964.32847  -9807989.50044  21425008.2974                   21425005.5904
 -17181725.59047 -13550733.43045  20849824.3914                   20849820.5164
 -18705602.80147 -14540990.11745  20807571.7114                   20807568.8164
 -14674315.50447 -11427859.51645  20872756.5314                   20872751.6524
   1400914.78146   1134346.83243  23140914.6414                   23140912.1054
 -11522540.44946  -8969555.60244  22256078.4534                   22256076.4024
 -11065735.82046  -8613477.69944  22697223.4614                   22697222.8714
 11  8 18  1 14  0.0000000  0  7G10G12G05G02G04G30G25
 -12516783.76647  -9745511.12944  21440265.7114                   21440263.2624
 -17169508.81247 -13541213.86345  20852149.4384                   20852145.8284
 -18731672.68047 -14561304.27345  20802610.3524                   20802607.6764
 -14626974.14847 -11390970.15245  20881765.5864                   20881760.3244
   1509383.93846   1218868.24643  23161555.2114                   23161554.5474
 -11557535.30146  -8996824.27744  22249419.1724                   22249416.9224
 -11113122.65246  -8650402.46144  22688206.4304                   22688205.0784
 11  8 18  1 14 30.0000000  0  7G10G12G05G02G04G30G25
 -12436049.96547  -9682601.68744  21455628.7894                   21455626.6054
 -17156704.19547 -13531236.23445  20854586.0164                   20854582.6334
 -18757211.27747 -14581204.45345  20797750.0314                   20797747.9384
 -14579436.37947 -11353927.71145  20890811.4224                   20890806.0864
   1617863.49646   1303397.76243  23182198.0084                   23182197.8444
 -11592006.69146  -9023685.05944  22242859.7894                   22242857.3364
 -11160088.91847  -8686999.49244  22679268.6174                   22679268.2734
 11  8 18  1 15  0.0000000  0  7G10G12G05G02G04G30G25
 -12354767.74247  -9619264.88344  21471095.9064                   21471093.5434
 -17143314.01247 -13520802.31245  20857134.1334                   20857130.8484
 -18782219.66447 -14600691.46545  20792991.0004                   20792988.9494
 -14531705.84447 -11316735.07845  20899893.6094                   20899889.1334
   1726349.73846   1387932.47343  23202841.4694                   23202841.1414
 -11625955.23846  -9050138.44144  22236400.1094                   22236397.1024
 -11206634.87946  -8723269.02044  22670411.1484                   22670410.9884
 11  8 18  1 15 30.0000000  0  7G10G12G05G02G04G30G25
 -12272943.16047  -9555505.46944  21486666.8594                   21486664.1134
 -17129341.01247 -13509914.25445  20859792.7584                   20859789.9104
 -18806699.74647 -14619766.82845  20788333.0394                   20788330.6334
 -14483787.34447 -11279395.98445  20909012.1484                   20909007.5784
   1834837.69146   1472468.53143  23223486.6724                   23223485.9734
 -11659382.60546  -9076185.70344  22230038.1334                   22230036.0514
 -11252761.80147  -8759212.02044  22661633.8754                   22661633.2734
 11  8 18  1 16  0.0000000  0  7G10G12G05G02G04G30G25
 -12190575.72347  -9491323.04344  21502340.7504                   21502338.3714
 -17114782.46147 -13498569.91045  20862562.9384                   20862560.0314
 -18830647.49247 -14638427.37146  20783776.0864                   20783773.4184
 -14435679.39147 -11241909.26245  20918166.9924                   20918162.3054
   1943329.03546   1557007.25443  23244132.1564                   23244130.7664
 -11692284.09846  -9101823.22344  22223777.9224                   22223775.1914
 -11298464.70347  -8794824.64144  22652936.5864                   22652936.1954
 11  8 18  1 16 30.0000000  0  7G10G12G05G02G04G30G25
 -12107662.73047  -9426715.50845  21518118.4774                   21518115.5784
 -17099632.82447 -13486764.99645  20865446.0864                   20865442.8014
 -18854056.25447 -14656667.93745  20779321.6484                   20779318.6054
 -14387378.55147 -11204272.24245  20927358.1804                   20927353.7734
   2051827.60246   1641551.57843  23264778.4224                   23264777.1954
 -11724652.91046  -9127045.65644  22217617.9304                   22217615.6914
 -11343736.42246  -8830101.25444  22644321.4924                   22644321.1524
 11  8 18  1 17  0.0000000  0  7G10G12G05G02G04G30G25
 -12024215.23847  -9361691.47744  21533998.3204                   21533995.8594
 -17083900.31647 -13474505.89545  20868439.5084                   20868436.8674
 -18876933.82847 -14674494.58246  20774968.0784                   20774965.1174
 -14338894.65647 -11166492.57845  20936584.3834                   20936579.3714
   2160323.03946   1726093.48043  23285424.7584                   23285422.8874
 -11756496.04346  -9151858.47744  22211559.0784                   22211555.6804
 -11388583.64847  -8865047.09444  22635787.9844                   22635787.2384
 11  8 18  1 17 30.0000000  0  8G17G10G12G05G02G04G30G25
  -2903430.28115                  24411428.422
 -11940230.44546  -9296248.78144  21549979.6334                   21549977.7114
 -17067579.40247 -13461788.28545  20871545.8754                   20871542.1454
 -18899273.68047 -14691902.22745  20770716.6954                   20770714.2974
 -14290223.87947 -11128567.28945  20945846.4064                   20945841.5634
   2268819.50846   1810636.17243  23306071.2734                   23306069.8914
 -11787806.47746  -9176256.20344  22205600.2814                   22205597.7894
 -11432998.89146  -8899656.34044  22627335.4384                   22627335.7154
 11  8 18  1 18  0.0000000  0  8G17G10G12G05G02G04G30G25
  -2807425.680 5                  24429697.109
 -11855712.23847  -9230390.42244  21566062.9144                   21566060.5514
 -17050671.06647 -13448612.96545  20874763.0164                   20874760.1174
 -18921075.49247 -14708890.61745  20766568.2814                   20766565.3364
 -14241368.75847 -11090498.36345  20955143.1724                   20955138.2624
   2377314.30146   1895177.56643  23326716.3754                   23326715.7704
 -11818583.80546  -9200238.55144  22199743.3204                   22199741.0434
 -11476981.45746  -8933928.43044  22618966.5314                   22618965.5744
 11  8 18  1 18 30.0000000  0  9G17G10G29G12G05G02G04G30G25
  -2711230.434 5                  24448002.516
 -11770666.67247  -9164121.14544  21582246.6724                   21582244.5004
  -3297334.43415                  24742816.781
 -17033179.15247 -13434982.88745  20878092.0314                   20878088.5984
 -18942342.30947 -14725462.12145  20762521.2584                   20762518.6134
 -14192334.82847 -11052290.09445  20964473.5864                   20964468.9774
   2485802.34445   1979713.72343  23347361.2814                   23347359.7774
 -11848830.46946  -9223807.36344  22193987.6564                   22193985.6954
 -11520533.29347  -8967864.90644  22610678.5634                   22610677.9884
 11  8 18  1 19  0.0000000  0  9G17G10G29G12G05G02G04G30G25
  -2614843.42215                  24466344.633
 -11685095.51247  -9097442.31244  21598530.3914                   21598528.5274
  -3350675.117 6                  24732666.156
 -17015102.17247 -13420896.92645  20881531.3364                   20881528.5274
 -18963071.63347 -14741614.80545  20758576.2814                   20758574.0984
 -14143122.06647 -11013942.48045  20973838.5314                   20973833.6804
   2594283.19945   2064244.25043  23368004.5004                   23368003.6954
 -11878543.39146  -9246960.30544  22188333.7344                   22188330.8204
 -11563651.03547  -9001463.11744  22602473.8594                   22602472.9104
 11  8 18  1 19 30.0000000  0  9G17G10G29G12G05G02G04G30G25
                                  24484724.516
 -11598999.34047  -9030354.38344  21614913.5554                   21614911.5944
  -3404085.984 6                  24722502.891
 -16996437.68747 -13406353.18045  20885084.0554                   20885080.2504
 -18983260.41047 -14757346.29345  20754734.2814                   20754731.7304
 -14093730.23847 -10975455.33245  20983237.5784                   20983233.1994
   2702757.82445   2148769.93043  23388646.5704                   23388644.4184
 -11907719.03546  -9269694.57444  22182781.4534                   22182778.9344
 -11606330.72347  -9034720.00444  22594351.3594                   22594351.7774
 11  8 18  1 20  0.0000000  0  9G17G10G29G12G05G02G04G30G25
                                  24503138.828
 -11512385.07047  -8962862.73444  21631396.2114                   21631393.4024
  -3457571.059 6                  24712324.836
 -16977190.47747 -13391355.33645  20888746.4304                   20888742.9844
 -19002911.64147 -14772658.89845  20750995.5704                   20750992.1334
 -14044164.48847 -10936832.66845  20992670.0314                   20992664.9224
   2811220.46946   2233286.22343  23409287.0474                   23409284.1914
 -11936360.12946  -9292012.31244  22177331.2584                   22177329.2704
 -11648574.59847  -9067637.30944  22586312.9534                   22586312.3984
 11  8 18  1 20 30.0000000  0  9G17G10G29G12G05G02G04G30G25
                                  24521587.383
 -11425250.89147  -8894965.96144  21647977.5314                   21647974.7624
  -3511125.52046  -2659421.99253  24702133.4694                   24702131.8404
 -16957356.05947 -13375899.96145  20892520.6174                   20892517.6254
 -19022019.94147 -14787548.44946  20747358.8204                   20747355.9534
 -13994422.40247 -10898072.58645  21002135.3204                   21002130.5904
   2919674.32446   2317795.72343  23429924.4694                   23429922.8984
 -11964460.71946  -9313908.87144  22171983.4454                   22171981.2074
 -11690376.42247  -9100210.13744  22578358.1024                   22578357.8984
 11  8 18  1 21  0.0000000  0  9G17G10G29G12G05G02G04G30G25
  -2227378.01614                  24540077.648
 -11337601.88347  -8826668.04344  21664656.0474                   21664653.8594
  -3564751.77746  -2701208.66443  24691929.0634                   24691926.8714
 -16936936.47747 -13359988.59845  20896406.2504                   20896402.8554
 -19040586.63747 -14802015.96545  20743825.6484                   20743822.9494
 -13944507.31247 -10859177.69545  21011633.7274                   21011629.4454
   3028115.65246   2402295.44143  23450560.2034                   23450558.3674
 -11992021.57046  -9335384.85944  22166738.8134                   22166736.8094
 -11731736.52746  -9132438.78944  22570488.0164                   22570487.5634
 11  8 18  1 21 30.0000000  0  8G10G29G12G05G02G04G30G25
 -11249440.60946  -8757970.92644  21681432.6884                   21681430.7584
  -3618449.55946  -2743051.05943  24681710.6564                   24681708.9884
 -16915931.81647 -13343621.33245  20900403.5784                   20900400.2854
 -19058611.00047 -14816060.88745  20740395.4694                   20740392.7974
 -13894420.94147 -10820149.35545  21021164.8204                   21021160.1134
   3136543.04346   2486784.31343  23471194.3364                   23471191.6884
 -12019041.37546  -9356439.23844  22161597.2424                   22161595.3634
 -11772653.06647  -9164321.79744  22562701.3524                   22562701.2234
 11  8 18  1 22  0.0000000  0  8G10G29G12G05G02G04G30G25
 -12736187.71546  -9916475.16444  21398513.9144                   21398512.0044
  -5247641.59845  -4012551.26643  24371685.0394                   24371684.1884
 -18469761.99647 -14554398.09445  20604719.0394                   20604715.8674
 -20651513.27047 -16057283.40645  20437276.2664                   20437273.8404
 -15419584.05947 -12008588.15245  20730936.3054                   20730931.1564
   1669538.17646   1343663.67243  23192031.2194                   23192030.3524
 -13620940.34847 -10604672.17244  21856766.5084                   21856764.0944
 -13388546.32447 -10423459.40244  22255207.3754                   22255206.8874
 11  8 18  1 22 30.0000000  0  8G10G29G12G05G02G04G30G25
 -12647010.11346  -9846986.12544  21415483.7194                   21415481.9494
  -5301482.01245  -4054504.78143  24361439.1484                   24361438.9344
 -18447586.94547 -14537118.84445  20608939.1804                   20608935.9064
 -20668449.28947 -16070480.27046  20434053.5004                   20434050.7034
 -15369159.27747 -11969296.10245  20740531.4144                   20740526.4804
   1777934.11346   1428128.01643  23212658.4614                   23212657.1764
 -13646873.54747 -10624879.82444  21851830.8524                   21851829.4804
 -13428569.84847 -10454646.56644  22247591.3984                   22247590.9144
 11  8 18  1 23  0.0000000  0  8G10G29G12G05G02G04G30G25
 -12557327.03947  -9777103.20744  21432549.6174                   21432548.0434
  -5355391.66445  -4096512.17242  24351180.4064                   24351178.9304
 -18424825.75447 -14519382.85245  20613270.6254                   20613267.0984
 -20684838.45347 -16083251.01646  20430934.6254                   20430931.9494
 -15318565.81647 -11929872.61345  20750158.9304                   20750154.4454
   1886313.73046   1512579.66843  23233282.7424                   23233280.8014
 -13672259.71946 -10644661.22744  21847000.8754                   21846997.8594
 -13468142.64147 -10485482.48444  22240060.7034                   22240059.9264
 11  8 18  1 23 30.0000000  0  8G10G29G12G05G02G04G30G25
 -12467137.06247  -9706825.28944  21449712.1954                   21449710.5314
  -5409366.34045  -4138570.29342  24340909.8204                   24340907.9414
 -18401473.89547 -14501186.60245  20617714.5554                   20617710.8984
 -20700675.59847 -16095591.60946  20427921.2734                   20427918.5434
 -15267800.77347 -11890315.42645  20759819.1564                   20759814.7704
   1994680.03546   1597020.96143  23253904.1024                   23253902.6954
 -13697093.38347 -10664012.09044  21842276.1884                   21842272.5554
 -13507258.53547 -10515962.39144  22232617.5784                   22232616.5634
 11  8 18  1 24  0.0000000  0  8G10G29G12G05G02G04G30G25
 -12376448.74246  -9636159.05544  21466970.1954                   21466967.6994
  -5463411.82845  -4180683.56642  24330625.2664                   24330623.5634
 -18377537.94147 -14482535.20745  20622268.9384                   20622265.6994
 -20715966.05547 -16107506.21546  20425011.5314                   20425008.2974
 -15216871.88747 -11850630.57045  20769510.6094                   20769505.9924
   2103025.55546   1681446.03943  23274521.6724                   23274520.4104
 -13721379.24647 -10682936.08644  21837653.1804                   21837650.6524
 -13545921.91846 -10546089.68044  22225259.0784                   22225259.4964
 11  8 18  1 24 30.0000000  0  8G10G29G12G05G02G04G30G25
 -12285264.20747  -9565106.15644  21484321.9844                   21484320.2344
  -5517527.18445  -4222851.36742  24320327.1334                   24320325.0044
 -18353017.02747 -14463428.00445  20626934.9694                   20626931.6254
 -20730707.93747 -16118993.37546  20422206.1564                   20422203.4304
 -15165779.59847 -11810818.37945  20779233.5784                   20779228.0864
   2211349.99246   1765854.70843  23295134.9694                   23295133.0354
 -13745115.18447 -10701431.58244  21833136.1334                   21833133.9304
 -13584130.03947 -10575862.20344  22217988.8204                   22217988.5664
 11  8 18  1 25  0.0000000  0  8G10G29G12G05G02G04G30G25
 -12193583.60947  -9493666.70744  21501768.2274                   21501765.5704
  -5571709.42246  -4265071.23442  24310017.3594                   24310014.1134
 -18327908.70347 -14443863.07445  20631713.4774                   20631709.7664
 -20744897.88747 -16130050.44546  20419505.8914                   20419502.9964
 -15114522.96947 -11770878.14545  20788987.3674                   20788982.5744
   2319654.45346   1850247.81243  23315744.8674                   23315742.9844
 -13768297.12946 -10719495.39144  21828724.7894                   21828722.3714
 -13621878.51646 -10605276.55544  22210805.2344                   22210805.3914
 11  8 18  1 25 30.0000000  0  8G10G29G12G05G02G04G30G25
 -12101412.42647  -9421845.01644  21519307.9304                   21519306.0234
  -5625960.82045  -4307345.02342  24299693.2664                   24299690.7384
 -18302215.91047 -14423842.70745  20636602.2194                   20636599.2814
 -20758537.79347 -16140678.90246  20416910.1644                   20416907.2304
 -15063106.05947 -11730813.00845  20798771.9144                   20798766.6334
   2427935.12946   1934622.35543  23336349.5234                   23336348.1804
 -13790926.53147 -10737128.65244  21824418.5784                   21824416.5314
 -13659168.10547 -10634333.33644  22203710.2814                   22203709.3794
 11  8 18  1 26  0.0000000  0  8G10G29G12G05G02G04G30G25
 -12008747.16847  -9349638.31244  21536941.2504                   21536938.9614
  -5680275.14545  -4349667.83242  24289357.8364                   24289354.9694
 -18275932.50447 -14403362.12545  20641603.6024                   20641601.0084
 -20771620.72347 -16150873.35545  20414420.5394                   20414418.0164
 -15011523.42247 -11690618.72745  20808587.8284                   20808582.5744
   2536197.26246   2018982.47343  23356950.3204                   23356949.8674
 -13812995.98847 -10754325.56244  21820218.9224                   21820216.7854
 -13695990.95347 -10663026.40644  22196702.0704                   22196701.9264
 11  8 18  1 26 30.0000000  0  8G10G29G12G05G02G04G30G25
 -11915583.66446  -9277043.36744  21554669.5314                   21554668.2234
  -5734644.61745  -4392033.50442  24279010.8914                   24279008.9144
 -18249051.58247 -14382415.94945  20646719.2894                   20646715.9924
 -20784138.38347 -16160627.35246  20412038.6954                   20412035.5784
 -14959769.48047 -11650290.97345  20818435.7814                   20818431.6134
   2644446.58646   2103332.59443  23377550.4534                   23377549.3324
 -13834496.68447 -10771079.31644  21816127.2894                   21816125.5634
 -13732337.82847 -10691348.60244  22189785.6644                   22189784.9024
 11  8 18  1 27  0.0000000  0  8G10G29G12G05G02G04G30G25
 -11821928.56647  -9204065.35544  21572492.4224                   21572489.3484
  -5789072.69945  -4434444.92242  24268654.0864                   24268651.7854
 -18221577.35247 -14361007.44945  20651947.0164                   20651944.3014
 -20796093.84447 -16169943.25446  20409763.5634                   20409760.9144
 -14907849.43047 -11609833.77745  20828315.4224                   20828310.6844
   2752678.26646   2187668.98043  23398146.1804                   23398144.8014
 -13855431.25847 -10787391.93444  21812143.7974                   21812141.0784
 -13768210.81247 -10719301.52344  22182959.1254                   22182959.4104
 11  8 18  1 27 30.0000000  0  8G10G29G12G05G02G04G30G25
 -11727783.22347  -9130705.35244  21590407.6724                   21590404.5784
  -5843557.94145  -4476900.84842  24258286.6174                   24258283.1094
 -18193508.80147 -14339135.84445  20657288.8054                   20657285.7304
 -20807485.23847 -16178819.62546  20407595.5784                   20407592.9494
 -14855763.35547 -11569247.21145  20838227.7344                   20838222.3244
   2860892.32046   2271991.63743  23418739.2974                   23418737.3404
 -13875797.29747 -10803261.54344  21808268.4454                   21808266.3164
 -13803606.85947 -10746882.82044  22176223.8914                   22176222.8164
 11  8 18  1 28  0.0000000  0  8G10G29G12G05G02G04G30G25
 -11633151.66847  -9056966.47344  21608415.2664                   21608412.4064
  -5898100.66846  -4519401.64542  24247907.5864                   24247903.7854
 -18164847.21547 -14316802.12945  20662742.1484                   20662739.4104
 -20818312.86747 -16187256.69946  20405534.9774                   20405532.4774
 -14803513.57047 -11528533.07445  20848170.5084                   20848165.9344
   2969086.66846   2356298.94143  23439327.7344                   23439325.7234
 -13895594.47346 -10818687.86744  21804500.8754                   21804498.5354
 -13838525.12547 -10774091.80144  22169578.6254                   22169577.6844
 11  8 18  1 28 30.0000000  0  8G10G29G12G05G02G04G30G25
 -11538044.87147  -8982857.27744  21626513.6334                   21626510.6914
  -5952708.82846  -4561953.38343  24237514.7424                   24237512.4924
 -18135601.19547 -14294013.01645  20668307.8134                   20668304.9734
 -20828584.10247 -16195260.22745  20403580.9224                   20403578.0044
 -14751109.73847 -11487698.91845  20858142.5084                   20858137.7074
   3077252.00846   2440583.64143  23459910.5394                   23459909.4264
 -13914829.85247 -10833676.44944  21800840.4694                   21800838.0554
 -13872972.16447 -10800933.61344  22163023.0944                   22163023.1994
 11  8 18  1 29  0.0000000  0  8G10G29G12G05G02G04G30G25
 -11442464.28147  -8908378.87944  21644701.2814                   21644699.3594
  -6007380.59846  -4604554.73043  24227111.2114                   24227109.0124
 -18105769.48847 -14270767.52345  20673984.4924                   20673981.9494
 -20838296.78947 -16202828.51246  20401732.4454                   20401729.5594
 -14698551.67647 -11446744.57045  20868144.1174                   20868139.2344
   3185388.57846   2524845.89843  23480488.1254                   23480487.4494
 -13933500.59046 -10848225.08244  21797287.8834                   21797285.1994
 -13906944.66447 -10827405.64144  22156559.3594                   22156558.7384
 11  8 18  1 29 30.0000000  0  8G10G29G12G05G02G04G30G25
 -11346407.71547  -8833529.60944  21662980.6724                   21662978.2734
  -6062110.96546  -4647201.73842  24216696.1094                   24216693.8444
 -18075347.53947 -14247062.09445  20679773.8444                   20679770.3284
 -20847445.37147 -16209957.25046  20399992.1094                   20399988.8834
 -14645835.43447 -11405666.96545  20878175.4454                   20878170.8954
   3293500.30546   2609088.78943  23501060.0634                   23501060.8674
 -13951600.67247 -10862329.00444  21793842.7584                   21793841.0594
 -13940435.99247 -10853502.74244  22150185.1254                   22150185.1174
 11  8 18  1 30  0.0000000  0  8G10G29G12G05G02G04G30G25
 -11249883.36746  -8758315.82844  21681348.3054                   21681346.5474
  -6116904.69946  -4689898.21142  24206269.1484                   24206266.4384
 -18044341.20347 -14222901.32045  20685673.8984                   20685671.3754
 -20856034.51647 -16216650.05146  20398357.1094                   20398353.9384
 -14592967.75847 -11364471.36745  20888236.0234                   20888230.8874
   3401580.36346   2693307.00043  23521628.2194                   23521626.9654
 -13969134.38747 -10875991.64144  21790506.8914                   21790504.0984
 -13973449.86747 -10879227.81244  22143903.1804                   22143902.7854
 11  8 18  1 30 30.0000000  0  8G10G29G12G05G02G04G30G25
 -11152894.71947  -8682740.24244  21699804.5004                   21699802.4924
  -6171761.60546  -4732643.78942  24195830.3364                   24195827.8324
 -18012751.06647 -14198285.62145  20691685.5084                   20691681.9064
 -20864064.02747 -16222906.78145  20396828.9224                   20396826.1024
 -14539950.31647 -11323159.06245  20898324.6254                   20898319.7194
   3509627.76646   2777499.78943  23542189.2344                   23542187.2894
 -13986100.78547 -10889212.19944  21787278.0944                   21787275.2544
 -14005984.72747 -10904579.61745  22137712.3204                   22137711.7934
 11  8 18  1 31  0.0000000  0  8G10G29G12G05G02G04G30G25
 -11055445.31647  -8606805.62944  21718349.0394                   21718346.4964
  -6226682.04745  -4775438.85942  24185378.7584                   24185376.6764
 -17980578.35947 -14173215.97745  20697808.1414                   20697804.5824
 -20871533.83647 -16228727.38346  20395407.4844                   20395404.4184
 -14486785.25847 -11281731.74645  20908441.4224                   20908436.9024
   3617640.48846   2861665.50042  23562742.4144                   23562740.9804
 -14002499.36347 -10901990.28944  21784157.8134                   21784155.2304
 -14038039.60947 -10929557.41844  22131612.6094                   22131611.3984
 11  8 18  1 31 30.0000000  0  8G10G29G12G05G02G04G30G25
 -10957534.87947  -8530511.76244  21736980.4614                   21736977.5004
  -6281662.57445  -4818280.79343  24174916.3204                   24174914.2974
 -17947820.58647 -14147690.44545  20704041.3364                   20704038.3364
 -20878440.21947 -16234108.94546  20394092.9064                   20394089.8634
 -14433470.93747 -11240188.10545  20918587.2274                   20918582.1524
   3725620.51246   2945805.75442  23583291.7344                   23583289.9534
 -14018326.30546 -10914322.96144  21781145.1254                   21781143.6374
 -14069609.98047 -10954157.69544  22125604.7504                   22125603.9064
 11  8 18  1 32  0.0000000  0  8G10G29G12G05G02G04G30G25
 -10859164.43446  -8453859.45744  21755699.3754                   21755697.3094
  -6336700.80945  -4861167.64543  24164443.0394                   24164441.3754
 -17914476.37147 -14121707.93745  20710386.2424                   20710383.3054
 -20884781.34047 -16239050.04345  20392886.4774                   20392883.2584
 -14380006.44147 -11198527.44945  20928760.8444                   20928756.1024
   3833568.46946   3029921.02342  23603833.0084                   23603831.9454
 -14033578.56646 -10926207.83244  21778243.2894                   21778241.4414
 -14100692.23847 -10978377.61744  22119689.3914                   22119689.2934
 11  8 18  1 32 30.0000000  0  8G10G29G12G05G02G04G30G25
 -10760340.18047  -8376853.53144  21774505.1954                   21774502.5704
  -6391799.59445  -4904101.63343  24153958.0784                   24153956.7424
 -17880549.55547 -14095271.46145  20716842.4304                   20716839.5004
 -20890559.39547 -16243552.40246  20391786.8594                   20391784.0004
 -14326396.29347 -11156753.30145  20938962.7584                   20938957.7274
   3941480.43045   3114008.27342  23624367.8204                   23624366.1334
 -14048258.07846 -10937646.40644  21775449.7424                   21775447.4064
 -14131287.73847 -11002218.25045  22113867.7274                   22113867.4384
 11  8 18  1 33  0.0000000  0  8G10G29G12G05G02G04G30G25
 -10661065.01246  -8299496.25044  21793396.3674                   21793394.4304
  -6446958.19545  -4947082.28943  24143461.7894                   24143460.2974
 -17846040.42247 -14068381.24645  20723409.2814                   20723406.4494
 -20895773.84847 -16247615.58246  20390794.4064                   20390791.7894
 -14272641.50047 -11114866.45345  20949191.6334                   20949186.7384
   4049355.30145   3198066.60542  23644895.6094                   23644893.7894
 -14062363.85247 -10948637.91844  21772765.7424                   21772763.7034
 -14161394.89147 -11025678.34445  22108137.6254                   22108138.0204
 11  8 18  1 33 30.0000000  0  8G10G29G12G05G02G04G30G25
 -10561342.16046  -8221790.12944  21812374.2734                   21812371.2274
  -6502176.48445  -4990109.48043  24132954.0394                   24132952.8324
 -17810950.02347 -14041038.07845  20730086.9774                   20730083.3834
 -20900424.80947 -16251239.66846  20389909.4774                   20389906.4844
 -14218743.85547 -11072868.27045  20959448.3134                   20959443.2774
   4157191.86745   3282095.00442  23665416.7194                   23665413.9574
 -14075895.28946 -10959181.88744  21770190.6644                   21770188.5704
 -14191012.35247 -11048756.89844  22102502.8754                   22102501.8444
 11  8 18  1 34  0.0000000  0  8G10G29G12G05G02G04G30G25
 -10461171.77047  -8143735.25444  21831435.6174                   21831432.4224
  -6557451.02045  -5033180.45343  24122436.4614                   24122434.4804
 -17775275.85547 -14013240.03945  20736875.3834                   20736872.4654
 -20904508.32847 -16254421.60946  20389132.0554                   20389129.6054
 -14164701.46947 -11030757.31645  20969732.1724                   20969726.9804
   4264992.09045   3366095.23042  23685930.0704                   23685926.9264
 -14088848.19147 -10969275.05944  21767725.7894                   21767723.1564
 -14220135.46947 -11071450.22345  22096960.2344                   22096960.1914
 11  8 18  1 34 30.0000000  0  8G10G29G12G05G02G04G30G25
 -10360556.05546  -8065333.41044  21850581.8674                   21850580.3754
  -6612780.94145  -5076294.60943  24111906.1644                   24111904.3594
 -17739017.94147 -13984987.12945  20743775.4534                   20743771.9694
 -20908024.02347 -16257161.07445  20388463.1174                   20388460.2424
 -14110515.28147 -10988534.31245  20980043.7194                   20980038.6804
   4372755.07845   3450066.38742  23706437.4454                   23706434.7734
 -14101221.46947 -10978916.57444  21765371.7114                   21765369.4414
 -14248762.40247 -11093756.93445  22091513.0234                   22091512.8204
 11  8 18  1 35  0.0000000  0  8G10G29G12G05G02G04G30G25
 -10259501.78147  -7986589.81244  21869812.4144                   21869809.6994
  -6668169.07845  -5119454.14143  24101366.4144                   24101364.4454
 -17702181.05147 -13956283.07045  20750784.9304                   20750781.8324
 -20910974.78947 -16259460.33246  20387901.7974                   20387898.7854
 -14056190.04747 -10946202.94145  20990381.1804                   20990376.2974
   4480476.65245   3534005.18742  23726934.6564                   23726933.2504
 -14113017.58247 -10988108.36344  21763126.5784                   21763124.2304
 -14276895.00447 -11115678.42645  22086159.2814                   22086158.7424
 11  8 18  1 35 30.0000000  0  8G10G29G12G05G02G04G30G25
 -10158014.45346  -7907508.75444  21889124.4534                   21889122.2464
  -6723617.48045  -5162660.64843  24090815.6094                   24090813.3634
 -17664767.99647 -13927130.05545  20757904.4844                   20757901.3594
 -20913362.67647 -16261321.00446  20387447.4534                   20387444.3754
 -14001729.37947 -10903766.06245  21000744.9064                   21000740.0434
   4588153.09445   3617908.89842  23747425.8134                   23747423.1914
 -14124238.19547 -10996851.68744  21760991.7814                   21760988.8524
 -14304534.25047 -11137215.48845  22080900.6094                   22080899.8984
 11  8 18  1 36  0.0000000  0  8G10G29G12G05G02G04G30G25
 -10056091.71146  -7828088.42644  21908518.8134                   21908517.0984
  -6779120.51246  -5205909.71543  24080253.5634                   24080251.4924
 -17626774.38747 -13897524.65245  20765134.2344                   20765131.5554
 -20915182.31247 -16262738.87145  20387101.1254                   20387098.4804
 -13947129.51647 -10861220.68745  21011134.4844                   21011130.3834
   4695788.53145   3701780.70742  23767907.9924                   23767905.6134
 -14134877.15647 -11005141.79744  21758966.9534                   21758964.0514
 -14331673.39547 -11158362.86745  22075735.5864                   22075735.3364
 11  8 18  1 36 30.0000000  0  8G10G29G12G05G02G04G30G25
  -9953732.15646  -7748327.73444  21927997.3054                   21927994.9574
  -6834673.03946  -5249197.36343  24069681.8054                   24069679.6564
 -17588196.25847 -13867463.77745  20772475.5864                   20772472.5904
 -20916428.88347 -16263710.19546  20386864.1804                   20386861.0124
 -13892386.85547 -10818564.07045  21021551.7344                   21021547.4534
   4803386.73445   3785623.47742  23788383.3984                   23788381.6724
 -14144929.02347 -11012974.42644  21757054.4614                   21757051.6484
 -14358306.30147 -11179115.78945  22070667.3524                   22070666.6914
 11  8 18  1 37  0.0000000  0  8G10G29G12G05G02G04G30G25
  -9850946.98446  -7668235.37144  21947557.1414                   21947554.7774
  -6890282.70746  -5292529.50443  24059099.8914                   24059097.5124
 -17549042.71947 -13836954.53545  20779925.7194                   20779923.0514
 -20917110.01247 -16264240.92246  20386734.1414                   20386731.5704
 -13837511.02747 -10775803.65645  21031994.1254                   21031989.3834
   4910938.59845   3869430.08642  23808848.9924                   23808848.2934
 -14154401.28947 -11020355.41844  21755251.3914                   21755249.4694
 -14384439.76647 -11199479.52345  22065694.6564                   22065694.0704
 11  8 18  1 37 30.0000000  0  8G10G29G12G05G02G04G30G25
  -9747735.07046  -7587810.51644  21967197.0234                   21967195.6174
  -6945944.74246  -5335902.47343  24048507.2974                   24048504.4694
 -17509310.10547 -13805994.06245  20787486.8524                   20787484.5204
 -20917221.39547 -16264327.68446  20386712.5234                   20386710.3674
 -13782498.85947 -10732937.02745  21042462.4614                   21042457.9844
   5018447.25045   3953203.09042  23829306.8284                   23829305.9614
 -14163288.84447 -11027280.79344  21753560.7894                   21753557.8794
 -14410068.03147 -11219449.59044  22060817.3444                   22060817.0004
 11  8 18  1 38  0.0000000  0  8G10G29G12G05G02G04G30G25
  -9644104.60946  -7507059.50444  21986917.4454                   21986915.1644
  -7001663.95345  -5379320.00443  24037905.7664                   24037902.8954
 -17469004.85547 -13774587.37945  20795157.2734                   20795153.9654
 -20916768.16447 -16263974.49246  20386799.3134                   20386796.1844
 -13727356.91847 -10689969.28145  21052956.1564                   21052951.3754
   5125906.33645   4036937.38742  23849757.9064                   23849754.9804
 -14171596.30547 -11033754.15644  21751979.5864                   21751977.3364
 -14435194.98447 -11239029.03544  22056035.8524                   22056035.6524
 11  8 18  1 38 30.0000000  0  8G10G29G12G05G02G04G30G25
  -9540052.82446  -7425980.18444  22006718.2734                   22006715.7194
  -7057434.18445  -5422777.28943  24027291.7664                   24027289.5984
 -17428121.73447 -13742730.39545  20802937.3364                   20802933.4384
 -20915744.00847 -16263176.42246  20386994.0234                   20386990.7344
 -13672080.66847 -10646896.86745  21063474.3984                   21063469.4654
   5233320.79745   4120637.05542  23870196.9694                   23870195.6644
 -14179316.96947 -11039770.25044  21750510.4774                   21750507.7584
 -14459813.30547 -11258212.13345  22051351.2584                   22051351.1644
 11  8 18  1 39  0.0000000  0  8G10G29G12G05G02G04G30G25
  -9435583.08646  -7344575.19144  22026598.0234                   22026595.9344
  -7113254.49245  -5466273.62542  24016669.2424                   24016666.6024
 -17386662.02047 -13710424.13345  20810826.3524                   20810823.4734
 -20914148.76247 -16261933.33646  20387297.3984                   20387294.6174
 -13616671.02747 -10603720.52045  21074018.8594                   21074014.1884
   5340689.88345   4204301.28942  23890629.5164                   23890626.9344
 -14186450.09447 -11045328.54744  21749153.2974                   21749150.3754
 -14483921.44947 -11276997.69544  22046763.8674                   22046763.1054
 11  8 18  1 39 30.0000000  0  8G10G29G12G05G02G04G30G25
  -9330697.16046  -7262845.90244  22046557.3834                   22046554.7774
  -7169123.30546  -5509807.78543  24006038.8984                   24006035.3244
 -17344625.31647 -13677668.26645  20818825.0394                   20818822.3914
 -20911981.41447 -16260244.47746  20387710.2274                   20387707.1054
 -13561128.27347 -10560440.44545  21084588.0004                   21084583.9924
   5448013.52745   4287930.09442  23911051.9064                   23911050.4414
 -14192994.00047 -11050427.67644  21747907.7584                   21747905.2934
 -14507517.12947 -11295383.91045  22042273.7114                   22042273.2814
 11  8 18  1 40  0.0000000  0  8G10G29G12G05G02G04G30G25
  -9225395.89146  -7180792.95744  22066595.6414                   22066593.1604
  -7225037.88746  -5553377.55143  23995398.2114                   23995395.7074
 -17302009.75047 -13644461.31645  20826935.3674                   20826931.9694
 -20909239.37547 -16258107.79346  20388231.8284                   20388229.3164
 -13505451.30547 -10517055.78545  21095182.8674                   21095177.9964
   5555292.95745   4371524.39542  23931465.7344                   23931464.9184
 -14198945.85547 -11055065.48844  21746775.4844                   21746772.7704
 -14530596.75047 -11313368.03145  22037881.6334                   22037881.3914
 11  8 18  1 40 30.0000000  0  8G10G29G12G05G02G04G30G25
  -9119681.93446  -7098418.44144  22086712.4844                   22086709.7664
  -7280996.69146  -5596981.86743  23984749.0314                   23984746.1334
 -17258816.74647 -13610804.42245  20835154.1174                   20835150.7934
 -20905922.29747 -16255523.02746  20388862.9454                   20388859.9224
 -13449640.94547 -10473567.18445  21105803.7034                   21105798.1994
   5662528.098 5                  23951872.250
 -14204304.45746 -11059241.00444  21745755.6254                   21745752.7194
 -14553158.34847 -11330948.48045  22033588.9614                   22033588.2664
 11  8 18  1 41  0.0000000  0  8G10G29G12G05G02G04G30G25
  -9013561.30146  -7015727.04744  22106905.5234                   22106903.2194
  -7337002.52746  -5640622.77343  23974091.8984                   23974089.9264
 -17215049.91847 -13576700.39545  20843482.8914                   20843479.7304
 -20902032.73447 -16252492.16446  20389602.7974                   20389600.0124
 -13393700.91847 -10429977.55145  21116448.6884                   21116443.5354
   5769714.891 5                  23972269.914
 -14209071.98047 -11062955.94944  21744848.4774                   21744845.4184
 -14575203.46547 -11348126.49245  22029393.4774                   22029393.1174
 11  8 18  1 41 30.0000000  0  8G10G29G12G05G02G04G30G25
  -8907038.50846  -6932722.27744  22127177.3984                   22127174.7074
  -7393055.82846  -5684300.68443  23963425.1804                   23963423.4454
 -17170711.65247 -13542151.08645  20851920.0234                   20851917.0084
 -20897572.27747 -16249016.46146  20390451.9304                   20390448.9614
 -13337634.36347 -10386289.33245  21127117.3054                   21127112.5314
   5876851.016 5                  23992656.305
 -14213249.46947 -11066211.09844  21744052.7584                   21744050.8444
 -14596732.37147 -11364902.23845  22025296.3754                   22025295.7344
 11  8 18  1 42  0.0000000  0  8G10G29G12G05G02G04G30G25
  -8800114.88346  -6849405.16044  22147524.0944                   22147520.9924
  -7449154.18046  -5728013.68443  23952750.1954                   23952748.2274
 -17125800.30947 -13507155.22345  20860466.1884                   20860463.4224
 -20892538.86747 -16245094.29746  20391409.7424                   20391406.7624
 -13281440.20747 -10342501.68045  21137810.8984                   21137806.5744
   5983937.312 5                  24013034.883
 -14216834.43747 -11069004.56244  21743370.6484                   21743368.2544
 -14617741.81647 -11381273.22745  22021298.5394                   22021298.2074
 11  8 18  1 42 30.0000000  0  8G10G29G12G05G02G04G30G25
  -8692793.94946  -6765778.43444  22167946.5554                   22167943.4454
  -7505297.46146  -5771761.72743  23942066.1334                   23942063.7704
 -17080318.39547 -13471714.76645  20869121.4924                   20869118.2194
 -20886933.00847 -16240726.05946  20392476.7194                   20392473.3164
 -13225119.99247 -10298615.79345  21148528.1884                   21148523.9574
   6090972.582 5                  24033402.969
 -14219826.83646 -11071336.27344  21742801.4534                   21742798.7464
 -14638230.98047 -11397238.78145  22017399.4844                   22017398.9304
 11  8 18  1 43  0.0000000  0  8G10G29G12G05G02G04G30G25
  -8585074.21946  -6681840.97744  22188444.7194                   22188442.2664
  -7561480.71546  -5815540.88343  23931375.2504                   23931372.7624
 -17034262.61347 -13435827.14145  20877885.4224                   20877882.6454
 -20880750.04747 -16235908.14146  20393652.8364                   20393650.1094
 -13168670.48447 -10254629.15645  21159270.5554                   21159265.7114
   6197960.453 5                  24053761.609
 -14222221.49247 -11073202.19544  21742345.8914                   21742342.8484
 -14658193.99647 -11412794.37145  22013600.5474                   22013600.3984
 11  8 18  1 43 30.0000000  0  8G10G29G12G05G02G04G30G25
  -8476964.82846  -6597599.88744  22209017.5554                   22209014.6214
  -7617708.96146  -5859355.10942  23920674.7664                   23920672.7194
 -16987639.73847 -13399497.62545  20886757.8054                   20886754.3954
 -20873996.12147 -16230645.31246  20394937.9924                   20394935.5784
 -13112098.87547 -10210547.38345  21170035.9614                   21170031.1724
   6304894.266 5                  24074110.664
 -14224023.99247 -11074606.69544  21742002.7034                   21742000.1644
 -14677635.59847 -11427943.64145  22009901.2114                   22009900.6804
 11  8 18  1 44  0.0000000  0  8G10G29G12G05G02G04G30G25
  -8368469.30946  -6513057.90444  22229663.6884                   22229660.5514
  -7673982.14546  -5903204.32443  23909967.6254                   23909964.4344
 -16940451.39847 -13362727.48445  20895736.9844                   20895734.5744
 -20866671.98047 -16224938.16846  20396331.7734                   20396329.0664
 -13055406.52747 -10166371.52045  21180823.6094                   21180819.4344
   6411772.277 5                  24094449.578
 -14225234.31247 -11075549.77044  21741772.6884                   21741769.8594
 -14696555.14147 -11442686.12145  22006300.8524                   22006300.3954
 11  8 18  1 44 30.0000000  0  8G10G29G12G05G02G04G30G25
  -8259583.75446  -6428212.00843  22250383.4614                   22250380.6684
  -7730292.11346  -5947082.15643  23899251.5554                   23899248.8444
 -16892691.02347 -13325511.60945  20904825.8134                   20904822.3674
 -20858770.26647 -16218780.96546  20397835.6094                   20397832.9574
 -12998587.24647 -10122096.75445  21191636.0944                   21191631.9304
   6518601.348 5                  24114778.844
 -14225844.77347 -11076025.41044  21741657.1804                   21741653.4654
 -14714944.04347 -11457015.08645  22002801.1334                   22002801.0204
 11  8 18  1 45  0.0000000  0  8G10G29G12G05G02G04G30G25
  -8150311.84846  -6343065.06244  22271177.4844                   22271174.3834
  -7786638.87946  -5990988.69943  23888528.4844                   23888526.1914
 -16844361.05147 -13287851.89145  20914022.4304                   20914019.5004
 -20850291.29747 -16212173.94546  20399448.9614                   20399446.4024
 -12941643.02747 -10077724.63345  21202472.3134                   21202467.3794
   6625379.973 5                  24135096.406
 -14225855.57447 -11076033.78144  21741654.0314                   21741651.7464
 -14732801.72347 -11470930.12545  21999402.7664                   21999403.1024
 11  8 18  1 45 30.0000000  0  8G10G29G12G05G02G04G30G25
  -8040667.98846  -6257628.27744  22292042.3674                   22292039.3364
  -7843032.98046  -6034932.12543  23877797.0394                   23877794.6804
 -16795473.42247 -13249757.65245  20923325.6954                   20923322.1414
 -20841246.64847 -16205126.14546  20401170.4304                   20401167.0704
 -12884585.98847 -10033264.58645  21213330.3134                   21213324.5274
   6732096.266 5                  24155404.047
 -14225277.27747 -11075583.12544  21741763.7974                   21741761.2344
 -14750138.04747 -11484438.91045  21996104.0634                   21996103.5394
 11  8 18  1 46  0.0000000  0  8G10G29G12G05G02G04G30G25
  -7930649.52046  -6171899.58644  22312977.1954                   22312975.8524
  -7899467.77746  -6078907.18743  23867057.8204                   23867056.3484
 -16746023.92647 -13211225.58645  20932735.8674                   20932732.9344
 -20831630.80147 -16197633.25446  20402999.5634                   20402997.5554
 -12827411.39147  -9988712.93745  21224209.8444                   21224204.5164
   6838754.922 5                  24175700.703
 -14224104.13347 -11074668.94944  21741987.5234                   21741985.0824
 -14766946.35547 -11497536.24645  21992905.5704                   21992905.2544
 11  8 18  1 46 30.0000000  0  8G10G29G12G05G02G04G30G25
  -7820255.22346  -6085878.05144  22333984.9384                   22333982.3954
  -7955938.14146  -6122910.00843  23856312.0234                   23856309.9614
 -16696009.29747 -13172253.16045  20942253.4144                   20942250.2234
 -20821439.91847 -16189692.27746  20404938.6564                   20404936.3164
 -12770116.07847  -9944067.23045  21235113.1334                   21235108.3954
   6945359.492 5                  24195986.750
 -14222331.39147 -11073287.56244  21742324.4144                   21742322.1684
 -14783221.12147 -11510217.85245  21989808.3444                   21989808.3054
 11  8 18  1 47  0.0000000  0  8G10G29G12G05G02G04G30G25
  -7709490.45746  -5999567.82444  22355062.7194                   22355060.5234
  -8012445.99246  -6166942.00843  23845558.3444                   23845556.0354
 -16645433.21147 -13132843.23045  20951877.7734                   20951874.3364
 -20810675.96547 -16181304.77046  20406987.6804                   20406984.2734
 -12712703.58647  -9899330.21145  21246037.6484                   21246033.2814
   7051906.867 5                  24216263.172
 -14219960.93747 -11071440.43744  21742776.0704                   21742773.4614
 -14798963.54347 -11522484.63345  21986812.7664                   21986812.2274
 11  8 18  1 47 30.0000000  0  8G10G29G12G05G02G04G30G25
  -7598356.22746  -5912969.71144  22376211.2424                   22376209.0594
  -8068987.84046  -6211000.51643  23834798.9924                   23834797.7734
 -16594294.58247 -13092994.96545  20961609.2114                   20961605.4024
 -20799336.98447 -16172469.17246  20409145.2664                   20409141.8444
 -12655172.19547  -9854500.53945  21256985.8834                   21256981.3634
   7158398.906 5                  24236526.734
 -14216990.18747 -11069125.55544  21743341.2504                   21743338.7344
 -14814170.08247 -11534333.84845  21983919.1414                   21983918.9144
 11  8 18  1 48  0.0000000  0  8G10G29G12G05G02G04G30G25
  -7486860.01646  -5826089.53544  22397427.6254                   22397425.5394
  -8125567.18046  -6255088.21943  23824032.2584                   23824030.6564
 -16542599.06647 -13052712.76245  20971446.2504                   20971443.2074
 -20787427.85547 -16163189.31246  20411411.4924                   20411408.7114
 -12597527.59047  -9809582.65645  21267955.3914                   21267950.6484
   7264830.328 5                  24256780.406
 -14213423.19147 -11066346.07444  21744019.7504                   21744017.3014
 -14828844.05547 -11545768.07445  21981126.3984                   21981126.5904
 11  8 18  1 48 30.0000000  0  8G10G29G12G05G02G04G30G25
  -7374999.87946  -5738925.78943  22418713.6414                   22418711.5704
  -8182178.27046  -6299200.66443  23813259.4694                   23813257.7194
 -16490342.84847 -13011993.64545  20981390.0944                   20981387.1374
 -20774943.40647 -16153461.14846  20413787.1174                   20413784.0084
 -12539765.67647  -9764573.37145  21278947.0234                   21278942.3284
   7371205.668 5                  24277023.406
 -14209254.50047 -11063097.73445  21744813.4694                   21744810.9924
 -14842979.15247 -11556782.40245  21978437.1024                   21978437.0824
 11  8 18  1 49  0.0000000  0  8G10G29G12G05G02G04G30G25
  -7262774.32046  -5651477.29743  22440069.8984                   22440067.4964
  -8238816.20346  -6343334.02743  23802481.4614                   23802479.2774
 -16437522.89847 -12970835.25445  20991441.5314                   20991438.2894
 -20761879.41047 -16143281.39546  20416273.0004                   20416270.0594
 -12481883.09447  -9719470.04345  21289961.9144                   21289956.4494
   7477528.320 5                  24297256.484
 -14204479.66847 -11059377.08244  21745722.0784                   21745719.0744
 -14856570.03547 -11567372.67645  21975850.4384                   21975850.0664
 11  8 18  1 49 30.0000000  0  8G10G29G12G05G02G04G30G25
  -7150194.19546  -5563752.49244  22461492.9774                   22461490.7814
  -8295487.32446  -6387493.26243  23791697.2664                   23791694.5474
 -16384148.38347 -12929244.73845  21001597.7894                   21001595.4304
 -20748243.91447 -16132656.31646  20418868.1414                   20418865.0274
 -12423888.38747  -9674279.33645  21300997.5394                   21300992.6454
   7583789.89515                  24317476.438
 -14199106.07447 -11055189.89144  21746745.0864                   21746742.2074
 -14869623.36747 -11577544.08645  21973366.6414                   21973365.8364
 11  8 18  1 50  0.0000000  0  8G10G29G12G05G02G04G30G25
  -7037259.50846  -5475751.44543  22482983.8834                   22482982.0204
  -8352187.38746  -6431675.06643  23780907.9224                   23780906.0984
 -16330217.32447 -12887220.55545  21011861.0864                   21011857.9224
 -20734033.98047 -16121583.61346  20421571.9534                   20421568.9614
 -12365779.18047  -9628999.40645  21312055.8984                   21312050.4844
   7689993.27314                  24337684.984
 -14193130.11347 -11050533.29745  21747881.5234                   21747878.7544
 -14882134.69547 -11587293.14545  21970986.1024                   21970985.5274
 11  8 18  1 50 30.0000000  0  7G10G29G12G05G02G30G25
  -6923974.14146  -5387477.11743  22504541.2344                   22504539.5004
  -8408916.72346  -6475879.69143  23770112.6484                   23770110.8674
 -16275731.42247 -12844764.02345  21022229.2584                   21022226.4844
 -20719250.68747 -16110064.14146  20424385.2734                   20424382.0084
 -12307557.59847  -9583631.91845  21323134.4454                   21323129.9844
 -14186552.46947 -11045407.87944  21749133.3054                   21749130.9844
 -14894103.78147 -11596619.69145  21968707.7974                   21968707.7974
 11  8 18  1 51  0.0000000  0  7G10G29G12G05G02G30G25
  -6810340.15246  -5298931.13743  22526165.5634                   22526162.8444
  -8465673.16446  -6520105.42243  23759311.7974                   23759309.3324
 -16220691.55547 -12801875.81645  21032703.5474                   21032699.8594
 -20703893.38747 -16098097.38346  20427307.3594                   20427304.8134
 -12249223.10547  -9538176.45345  21334235.5084                   21334230.3014
 -14179372.05147 -11039812.78144  21750499.6174                   21750497.1604
 -14905528.69147 -11605522.22345  21966533.8754                   21966533.4774
 11  8 18  1 51 30.0000000  0  8G10G29G12G05G02G04G30G25
  -6696359.85246  -5210115.35243  22547855.3834                   22547852.7384
  -8522455.10946  -6564351.03143  23748505.8134                   23748503.5594
 -16165098.40647 -12758556.48845  21043282.6954                   21043278.7854
 -20687961.92247 -16085683.23046  20430339.3594                   20430336.1604
 -12190776.31247  -9492633.47745  21345357.7974                   21345352.0044
                                  24398248.313
 -14171587.98847 -11033747.30144  21751980.8054                   21751978.3444
 -14916407.83247 -11613999.47745  21964463.7814                   21964463.6764
 11  8 18  1 52  0.0000000  0  8G10G29G12G05G02G04G30G25
  -8157455.75846  -6348631.62543  22269817.7274                   22269814.6994
 -10154686.68746  -7836219.76643  23437902.8054                   23437900.6604
 -17684374.94947 -13942408.34845  20754173.1884                   20754170.2304
 -22246879.05947 -17300423.82446  20133687.2274                   20133684.1844
 -13707638.78147 -10674604.18745  21056708.2814                   21056703.0164
   6538789.422 5                  24118620.023
 -15738622.81247 -12254813.41444  21453784.2504                   21453781.5594
 -16502163.37147 -12849653.14545  21662704.5944                   21662704.3754
 11  8 18  1 52 30.0000000  0  8G10G29G12G05G02G04G30G25
  -8042795.58246  -6259286.01243  22291636.3914                   22291634.1564
 -10211520.15646  -7880505.55543  23427087.9304                   23427085.6334
 -17627682.80547 -13898232.64845  20764961.9924                   20764958.2234
 -22229803.11347 -17287117.86346  20136936.5164                   20136933.8014
 -13648972.37147 -10628890.07845  21067871.7734                   21067866.9494
   6644690.773 5                  24138772.680
 -15729633.94947 -12247809.14845  21455494.4774                   21455492.3324
 -16511950.64147 -12857279.60545  21660841.6954                   21660842.0004
 11  8 18  1 53  0.0000000  0  9G26G10G29G12G05G02G04G30G25
  -6404715.51656  -4978220.86352  24669738.5864                   24669739.6724
  -7927797.92246  -6169677.43444  22313520.1024                   22313517.5164
 -10268375.60946  -7924808.51243  23416268.8444                   23416266.4654
 -17570440.93047 -13853628.59045  20775854.5084                   20775851.2544
 -22212153.34047 -17273364.76646  20140294.9304                   20140292.1484
 -13590196.10947 -10583090.38745  21079057.1484                   21079051.4384
   6750531.684 5                  24158914.180
 -15720040.50847 -12240333.77744  21457320.6334                   21457318.0744
 -16521188.51647 -12864477.95745  21659084.6414                   21659083.9024
 11  8 18  1 53 30.0000000  0  9G26G10G29G12G05G02G04G30G25
  -6470800.78145  -5029715.76243  24657162.7274                   24657162.4964
  -7812466.07846  -6079808.45743  22335467.3054                   22335464.6294
 -10325252.30546  -7969127.96543  23405445.2504                   23405443.1524
 -17512651.37547 -13808597.76245  20786851.9924                   20786848.2464
 -22193930.17247 -17259164.86346  20143762.6564                   20143759.9224
 -13531310.24647 -10537205.27045  21090262.6094                   21090257.2384
   6856311.40645   5385304.29752  24179043.0234                   24179040.9264
 -15709842.55947 -12232387.34045  21459260.7344                   21459258.1884
 -16529876.16047 -12871247.57845  21657431.0234                   21657430.6724
 11  8 18  1 54  0.0000000  0  9G26G10G29G12G05G02G04G30G25
  -6537025.34046  -5081319.18442  24644561.1564                   24644560.8204
  -7696808.07046  -5989685.33243  22357475.7344                   22357473.9614
 -10382154.00846  -8013466.96143  23394618.1174                   23394614.5274
 -17454320.52747 -13763145.16045  20797951.1094                   20797948.5744
 -22175139.13347 -17244522.46546  20147338.3284                   20147335.4264
 -13472320.76247 -10491239.40645  21101487.5164                   21101482.9414
   6962024.51245   5467678.12542  24199159.8444                   24199157.3364
 -15699045.03947 -12223973.71544  21461315.7894                   21461313.1024
 -16538017.63347 -12877591.60945  21655881.5164                   21655881.4104
 11  8 18  1 54 30.0000000  0  9G26G10G29G12G05G02G04G30G25
  -6603390.59446  -5133032.21143  24631932.4774                   24631932.3094
  -7580830.77046  -5899313.40243  22379545.7424                   22379543.3444
 -10439083.90646  -8057827.87143  23383784.5864                   23383781.5904
 -17395453.15247 -13717274.48045  20809153.2424                   20809150.4454
 -22155784.65247 -17229441.02346  20151021.4064                   20151018.9844
 -13413232.46547 -10445196.57445  21112731.4304                   21112727.2274
   7067666.25046   5549996.33242  24219262.2034                   24219260.5164
 -15687651.76647 -12215095.84444  21463483.6414                   21463481.3874
 -16545615.87147 -12883512.32445  21654435.9534                   21654435.6214
 11  8 18  1 55  0.0000000  0  9G26G10G29G12G05G02G04G30G25
  -6669887.41046  -5184847.76642  24619277.8364                   24619277.1524
  -7464531.29746  -5808690.40643  22401676.9924                   22401674.2854
 -10496034.34846  -8102204.84443  23372946.9454                   23372944.8714
 -17336045.25847 -13670982.60545  20820458.8284                   20820455.6604
 -22135861.19947 -17213916.23046  20154813.2344                   20154809.6604
 -13354040.01647 -10399072.56645  21123995.5314                   21123991.0864
   7173242.58245   5632263.65642  24239351.7894                   24239351.0434
 -15675656.55547 -12205748.94544  21465766.3364                   21465763.6604
 -16552663.80147 -12889004.23845  21653094.5314                   21653094.2504
 11  8 18  1 55 30.0000000  0  9G26G10G29G12G05G02G04G30G25
  -6736510.98445  -5236762.03942  24606599.1334                   24606598.8984
  -7347910.30546  -5717816.90643  22423868.8834                   22423866.2584
 -10553002.21946  -8146595.36743  23362106.2814                   23362104.4694
 -17276096.09447 -13624268.96945  20831866.6644                   20831863.2544
 -22115366.74647 -17197946.50446  20158712.7344                   20158709.7774
 -13294742.00047 -10352866.30545  21135279.6414                   21135274.8094
   7278755.10945   5714481.24642  24259430.9924                   24259429.2664
 -15663057.18047 -12195931.23845  21468163.4304                   21468161.5234
 -16559158.28147 -12894064.87545  21651859.1644                   21651858.7194
 11  8 18  1 56  0.0000000  0  9G26G10G29G12G05G02G04G30G25
  -6803258.03145  -5288772.57842  24593898.2034                   24593897.1954
  -7230969.82146  -5626694.46743  22446121.6564                   22446119.2774
 -10609985.63746  -8190998.03543  23351261.8444                   23351260.4064
 -17215606.04747 -13577133.87545  20843376.6804                   20843374.3594
 -22094301.08247 -17181531.67246  20162721.1414                   20162718.7304
 -13235338.23447 -10306577.63345  21146583.2664                   21146578.8874
   7384204.26245   5796649.43042  24279496.9844                   24279495.5204
 -15649852.84847 -12185642.14144  21470676.1724                   21470673.8014
 -16565097.58647 -12898692.91845  21650728.9614                   21650728.0204
 11  8 18  1 56 30.0000000  0  9G26G10G29G12G05G02G04G30G25
  -6870125.21145  -5340876.73842  24581173.3524                   24581172.4224
  -7113712.97346  -5535325.48443  22468434.9774                   22468432.2734
 -10666983.03946  -8235411.53143  23340416.6884                   23340414.4344
 -17154576.67647 -13529578.52045  20854990.7734                   20854987.8164
 -22072664.00447 -17164671.59046  20166838.8054                   20166835.6254
 -13175829.43047 -10260207.13745  21157907.8984                   21157903.0944
   7489590.14145   5878768.33242  24299551.3914                   24299548.9224
 -15636043.18747 -12174881.35944  21473304.5004                   21473302.1994
 -16570480.46147 -12902887.35945  21649704.3754                   21649703.8754
 11  8 18  1 57  0.0000000  0  9G26G10G29G12G05G02G04G30G25
  -6937106.64845  -5393069.80942  24568426.7034                   24568425.8634
  -6996139.53146  -5443709.79743  22490808.5704                   22490805.7344
 -10723990.44146  -8279832.85943  23329568.0084                   23329566.6454
 -17093006.56647 -13481601.80945  20866707.0164                   20866703.6054
 -22050453.40647 -17147364.60546  20171065.4224                   20171062.2664
 -13116212.87547 -10213752.66845  21169252.3134                   21169247.8834
   7594915.17245   5960839.82042  24319593.9454                   24319591.6844
 -15621625.33647 -12163646.66444  21476047.9454                   21476045.1724
 -16575303.11347 -12906645.27045  21648786.3984                   21648786.0664
 11  8 18  1 57 30.0000000  0  9G26G10G29G12G05G02G04G30G25
  -7004201.25445  -5445351.28942  24555658.9144                   24555657.8874
  -6878253.97346  -5351850.92643  22513241.6954                   22513238.9804
 -10781007.94946  -8324262.05943  23318718.1174                   23318716.0664
 -17030898.61347 -13433206.00845  20878526.3674                   20878523.0864
 -22027671.37947 -17129612.35246  20175400.3754                   20175398.1724
 -13056490.75047 -10167215.93745  21180616.8444                   21180611.9964
   7700177.29745   6042862.21542  24339624.0554                   24339622.5554
 -15606600.75847 -12151939.17644  21478906.7034                   21478904.6334
 -16579566.15247 -12909967.09845  21647975.4614                   21647974.9884
 11  8 18  1 58  0.0000000  0  9G26G10G29G12G05G02G04G30G25
  -7071408.92655  -5497720.63752  24542870.4844                   24542867.5004
  -6760062.00846  -5259753.29343  22535732.7894                   22535730.1454
 -10838037.22346  -8368700.43443  23307866.2034                   23307863.9384
 -16968257.34047 -13384394.62545  20890446.2114                   20890443.2384
 -22004320.99647 -17111417.22746  20179844.0784                   20179841.4884
 -12996666.69147 -10120599.77345  21192001.3444                   21191996.2894
   7805373.43045   6124833.33242  24359642.3914                   24359640.8714
 -15590972.39547 -12139761.20344  21481880.5234                   21481878.6134
 -16583271.45347 -12912854.34045  21647269.9304                   21647269.7424
 11  8 18  1 58 30.0000000  0  9G26G10G29G12G05G02G04G30G25
  -7138724.13345  -5550173.94142  24530059.1954                   24530057.3554
  -6641564.34846  -5167417.46543  22558281.8204                   22558279.7074
 -10895074.20746  -8413144.81643  23297012.1954                   23297009.5474
 -16905081.46947 -13335166.67645  20902467.6724                   20902465.0234
 -21980400.18447 -17092777.60546  20184395.7974                   20184392.8674
 -12936738.73047 -10073902.66045  21203405.2274                   21203400.5514
   7910506.17245   6206754.96942  24379649.0234                   24379647.2304
 -15574737.69947 -12127110.77744  21484970.2114                   21484968.3874
 -16586415.63747 -12915304.32445  21646671.8204                   21646671.7664
 11  8 18  1 59  0.0000000  0  9G26G10G29G12G05G02G04G30G25
  -7206147.69145  -5602711.64542  24517229.3134                   24517226.4144
  -6522767.28546  -5074848.34443  22580888.5314                   22580885.5704
 -10952121.45746  -8457597.14843  23286156.1334                   23286153.9414
 -16841376.30947 -13285526.29745  20914591.0314                   20914587.8094
 -21955913.15647 -17073696.77746  20189055.6724                   20189052.6994
 -12876711.40647 -10027128.11345  21214827.8674                   21214822.6134
   8015571.03145   6288623.68442  24399641.2974                   24399640.7154
 -15557900.49247 -12113990.85545  21488174.5394                   21488171.9734
 -16589001.68447 -12917319.41045  21646179.5084                   21646179.1994
 11  8 18  1 59 30.0000000  0  9G26G10G29G12G05G02G04G30G25
  -7273675.72745  -5655330.78542  24504379.9064                   24504376.6564
  -6403672.66846  -4982047.33243  22603552.0634                   22603548.9064
 -11009176.78946  -8502055.80943  23275298.8364                   23275297.1054
 -16777142.69147 -13235474.13345  20926814.2734                   20926811.1484
 -21930859.55147 -17054174.46546  20193822.5554                   20193820.4104
 -12816584.43047  -9980275.92645  21226269.9384                   21226264.6454
   8120569.08645   6370440.43842  24419622.5634                   24419621.0784
 -15540459.78947 -12100400.66444  21491493.2034                   21491490.3674
 -16591027.48047 -12918897.93045  21645794.6484                   21645794.1724
 11  8 18  2  0  0.0000000  0  9G26G10G29G12G05G02G04G30G25
  -7341301.90645  -5708026.39842  24491509.6024                   24491508.4454
  -6284280.54346  -4889014.51643  22626272.5164                   22626268.3634
 -11066235.62146  -8546517.19943  23264441.5314                   23264438.9884
 -16712378.90247 -13185008.85245  20939138.4924                   20939135.2114
 -21905236.75447 -17034208.62146  20198698.9774                   20198696.1454
 -12756354.84047  -9933343.75445  21237730.8834                   21237725.8594
   8225503.09045   6452207.19142  24439591.2584                   24439589.8754
 -15522412.49247 -12086337.80544  21494927.3984                   21494924.9144
 -16592489.13347 -12920036.85245  21645516.1254                   21645515.6294
 11  8 18  2  0 30.0000000  0  9G26G10G29G12G05G02G04G30G25
  -7409019.82045  -5760793.43442  24478624.0474                   24478622.3014
  -6164590.01146  -4795749.14843  22649046.8674                   22649044.7814
 -11123293.20346  -8590977.61743  23253583.5784                   23253581.3364
 -16647082.67647 -13134128.68745  20951563.5474                   20951560.8954
 -21879041.71147 -17013796.87946  20203683.4534                   20203680.7854
 -12696019.38347  -9886329.09845  21249213.1024                   21249207.9734
   8330376.42245   6533926.72742  24459546.1564                   24459545.6214
 -15503755.15247 -12071799.60244  21498477.8754                   21498475.5084
 -16593382.20347 -12920732.72345  21645346.5084                   21645345.7074
 11  8 18  2  1  0.0000000  0  9G26G10G29G12G05G02G04G30G25
  -7476833.44545  -5813635.04742  24465718.1484                   24465718.8714
  -6044611.08646  -4702259.07443  22671878.0474                   22671875.7664
 -11180354.81646  -8635441.18743  23242724.9304                   23242722.7974
 -16581263.20747 -13082840.79345  20964088.7734                   20964085.6254
 -21852281.95747 -16992945.10246  20208776.1564                   20208772.8284
 -12635586.02347  -9839238.14845  21260712.5474                   21260707.4694
   8435181.93045   6615593.35942  24479491.8204                   24479489.7584
 -15484494.95347 -12056791.64544  21502142.9614                   21502140.1214
 -16593712.86347 -12920990.34445  21645284.2584                   21645283.4964
 11  8 18  2  1 30.0000000  0  9G26G10G29G12G05G02G04G30G25
  -7544737.19145  -5866547.01642  24452796.6484                   24452796.9454
  -5924344.13346  -4608544.55143  22694764.7584                   22694762.0394
 -11237416.68446  -8679904.93743  23231867.1644                   23231864.3204
 -16514919.19547 -13031144.17245  20976713.5394                   20976710.6804
 -21824955.60947 -16971651.82446  20213975.8834                   20213973.0634
 -12575052.71947  -9792069.32445  21272231.2894                   21272226.8984
   8539921.77745   6697208.83642  24499422.2344                   24499420.7384
 -15464629.52747 -12041312.08645  21505923.0234                   21505920.8404
 -16593477.94547 -12920807.25845  21645328.1954                   21645327.8954
 11  8 18  2  2  0.0000000  0  9G26G10G29G12G05G02G04G30G25
  -7612731.12545  -5919529.21542  24439859.1804                   24439857.8834
  -5803794.95346  -4514610.12943  22717703.1954                   22717701.7704
 -11294480.32846  -8724370.09043  23221007.6484                   23221005.3984
 -16448055.37147 -12979042.49245  20989437.3674                   20989434.1294
 -21797065.97347 -16949919.61346  20219283.3914                   20219280.2624
 -12514422.77047  -9744825.18745  21283769.4924                   21283764.2974
   8644592.93045   6778770.79742  24519341.6414                   24519338.2974
 -15444162.02747 -12025363.37945  21509817.9774                   21509815.8594
 -16592679.53147 -12920185.07845  21645479.8754                   21645479.3164
 11  8 18  2  2 30.0000000  0  9G26G10G29G12G05G02G04G30G25
  -7680813.50845  -5972580.21142  24426903.6414                   24426901.3594
  -5682968.02346  -4420459.28943  22740697.0864                   22740694.5004
 -11351545.96146  -8768836.79343  23210148.3364                   23210145.9184
 -16380674.65647 -12926538.04745  21002258.8754                   21002256.3244
 -21768615.48447 -16927750.37946  20224696.7344                   20224693.9454
 -12453698.34847  -9697507.44545  21295324.9454                   21295319.8954
   8749193.51645   6860277.62142  24539246.0234                   24539242.9924
 -15423094.20347 -12008946.87944  21513827.5084                   21513824.4384
 -16591318.44147 -12919124.46545  21645738.8984                   21645738.4304
 11  8 18  2  3  0.0000000  0  9G26G10G29G12G05G02G04G30G25
  -7748976.85945  -6025694.37942  24413930.8284                   24413930.2734
  -5561861.43446  -4326090.50443  22763742.1644                   22763740.7034
 -11408607.27746  -8813300.11743  23199289.4144                   23199287.8794
 -16312774.21547 -12873628.62145  21015180.2274                   21015177.5044
 -21739600.01647 -16905140.90646  20230218.7664                   20230215.4774
 -12392875.27347  -9650112.81645  21306898.7894                   21306894.1054
   8853728.35245   6941733.41442  24559138.3674                   24559135.5704
 -15401421.57047 -11992059.11344  21517951.4224                   21517948.6524
 -16589389.17647 -12917621.10945  21646106.0554                   21646105.5124
 11  8 18  2  3 30.0000000  0  9G26G10G29G12G05G02G04G30G25
  -7817213.55145  -6078865.72342  24400946.8914                   24400945.4104
  -5440473.70346  -4231502.68443  22786841.1884                   22786839.7894
 -11465658.71946  -8857755.76643  23188432.7894                   23188430.7344
 -16244351.81247 -12820312.46145  21028200.3914                   21028198.1914
 -21710016.12547 -16882088.50046  20235848.3914                   20235844.7194
 -12331949.97747  -9602638.55145  21318492.6094                   21318487.9104
   8958201.08245   7023140.67242  24579018.1094                   24579016.3484
 -15379140.19947 -11974697.01244  21522191.8444                   21522189.2464
 -16586886.97347 -12915671.30945  21646581.5864                   21646581.6724
 11  8 18  2  4  0.0000000  0  9G26G10G29G12G05G02G04G30G25
  -7885525.72345  -6132095.85242  24387946.6334                   24387946.6804
  -5318812.85946  -4136702.03543  22809992.2194                   22809990.5274
 -11522703.80946  -8902206.45743  23177577.9384                   23177575.1484
 -16175413.95347 -12766594.65245  21041319.3444                   21041316.2074
 -21679869.21547 -16858597.38346  20241584.7734                   20241582.0864
 -12270927.28547  -9555088.38345  21330105.5704                   21330099.8524
   9062606.758 5                  24598886.352
 -15356255.28947 -11956864.60544  21526545.8444                   21526543.6254
 -16583815.96947 -12913278.29745  21647166.0314                   21647166.0824
 11  8 18  2  4 30.0000000  0  9G26G10G29G12G05G02G04G30G25
  -7953916.44946  -6185387.18742  24374933.0314                   24374932.6644
  -5196888.11746  -4041695.73043  22833194.1884                   22833192.4144
 -11579747.62546  -8946656.14543  23166722.7894                   23166719.9774
 -16105968.64147 -12712481.43045  21054534.5004                   21054531.2074
 -21649166.70347 -16834673.33246  20247427.2034                   20247424.4534
 -12209814.34847  -9507467.89145  21341734.0164                   21341729.6094
   9166939.078 5                  24618739.180
 -15332773.57847 -11938567.15644  21531014.1564                   21531012.0204
 -16580181.92647 -12910446.56645  21647858.2034                   21647857.5354
 11  8 18  2  5  0.0000000  0  9G26G10G29G12G05G02G04G30G25
  -8022373.37545  -6238730.05542  24361905.5554                   24361904.1024
  -5074692.73046  -3946478.56243  22856447.7664                   22856444.8204
 -11636778.90646  -8991096.06643  23155870.2034                   23155867.8554
 -16036008.35247 -12657966.92645  21067847.5084                   21067843.9304
 -21617899.80147 -16810309.49646  20253376.8594                   20253374.3444
 -12148602.25447  -9459770.14545  21353382.7814                   21353377.3674
   9271207.184 5                  24638581.820
 -15308685.94547 -11919797.58644  21535598.3524                   21535595.4304
 -16575974.80947 -12907168.28945  21648658.7814                   21648658.4534
 11  8 18  2  5 30.0000000  0  9G26G10G29G12G05G02G04G30G25
  -8090892.94945  -6292121.77742  24348867.1174                   24348864.7974
  -4952229.58646  -3851052.70743  22879752.1484                   22879748.9104
 -11693795.90246  -9035524.90243  23145019.9064                   23145017.4064
 -15965534.31647 -12603052.09045  21081258.0704                   21081255.0084
 -21586068.80547 -16785506.09846  20259434.7114                   20259431.4614
 -12087291.07047  -9411995.18745  21365049.4614                   21365044.6644
   9375411.13315                  24658410.469
 -15283992.45747 -11900555.91044  21540297.6094                   21540294.3404
 -16571193.65647 -12903442.72345  21649568.0554                   21649568.0984
 11  8 18  2  6  0.0000000  0  8G26G10G29G12G05G02G30G25
  -8159473.46545  -6345560.99642  24335815.5004                   24335815.4494
  -4829502.29746  -3755421.04343  22903106.0634                   22903103.2734
 -11750798.75046  -9079942.66043  23134172.6644                   23134170.6844
 -15894549.77047 -12547739.45745  21094766.1174                   21094763.4344
 -21553676.14147 -16760265.04346  20265598.4774                   20265595.3954
 -12025882.56247  -9364144.37545  21376735.3754                   21376730.1484
 -15258694.79747 -11880843.43745  21545111.6094                   21545108.7544
 -16565839.27047 -12899270.47345  21650587.5554                   21650586.9884
 11  8 18  2  6 30.0000000  0  8G26G10G29G12G05G02G30G25
  -8228118.32045  -6399050.34442  24322753.9924                   24322752.7034
  -4706520.68046  -3659591.21543  22926509.2344                   22926506.6484
 -11807792.19146  -9124353.09844  23123327.6024                   23123325.5594
 -15823063.30547 -12492035.72345  21108369.0784                   21108366.7934
 -21520729.07047 -16734591.98446  20271867.8364                   20271865.6094
 -11964383.69147  -9316223.14545  21388438.3444                   21388433.1254
 -15232800.02747 -11860665.68444  21550038.5704                   21550036.2464
 -16559917.63347 -12894656.20345  21651714.2034                   21651713.5554
 11  8 18  2  7  0.0000000  0  8G26G10G29G12G05G02G30G25
  -8296818.47345  -6452582.74642  24309679.8834                   24309679.2664
  -4583281.92246  -3563560.98843  22949959.7584                   22949957.8554
 -11864769.30546  -9168750.83644  23112485.1334                   23112481.7624
 -15751070.94147 -12435937.78145  21122069.2664                   21122065.8634
 -21487222.54747 -16708482.97746  20278244.3754                   20278241.3634
 -11902789.35247  -9268227.53945  21400158.6804                   21400154.4184
 -15206302.91847 -11840018.57845  21555080.7584                   21555078.6804
 -16553422.55547 -12889595.10245  21652950.0554                   21652949.7384
 11  8 18  2  7 30.0000000  0  8G26G10G29G12G05G02G30G25
  -8365570.82845  -6506155.85942  24296594.4924                   24296596.2234
  -4459788.89546  -3467332.67643  22973459.9534                   22973457.5944
 -11921728.28946  -9213134.41843  23101645.9304                   23101643.8794
 -15678574.61747 -12379447.14145  21135865.0634                   21135861.7664
 -21453157.31647 -16681938.62546  20284726.7584                   20284723.4694
 -11841099.87947  -9220157.80945  21411898.0634                   21411893.5234
 -15179203.85247 -11818902.41045  21560237.7664                   21560235.5554
 -16546353.44147 -12884086.69945  21654295.1094                   21654294.9964
 11  8 18  2  8  0.0000000  0  8G26G10G29G12G05G02G30G25
  -8434368.84045  -6559764.48842  24283504.7344                   24283503.9774
  -4336040.87946  -3370905.62543  22997008.8284                   22997006.7704
 -11978664.32846  -9257500.16043  23090810.4454                   23090809.0824
 -15605572.53147 -12322562.40245  21149756.3834                   21149753.7854
 -21418531.02347 -16654957.09046  20291315.7734                   20291312.6454
 -11779312.20347  -9172011.54745  21423656.1174                   21423650.8634
 -15151499.91447 -11797314.91844  21565509.9774                   21565507.4774
 -16538706.28947 -12878127.89145  21655750.4064                   21655750.1454
 11  8 18  2  8 30.0000000  0  8G26G10G29G12G05G02G30G25
  -8503212.76245  -6613408.90242  24270403.9844                   24270402.5824
  -4212044.18446  -3274284.83643  23020605.0234                   23020602.5704
 -12035579.05546  -9301849.27744  23079980.5554                   23079978.7424
 -15532070.19947 -12265287.85245  21163743.4304                   21163740.5314
 -21383347.90647 -16627541.64546  20298011.0004                   20298007.9614
 -11717430.17247  -9123791.77345  21435431.2974                   21435426.8634
 -15123195.02347 -11775259.14144  21570895.8524                   21570893.8524
 -16530484.23447 -12871721.09045  21657315.5554                   21657315.0554
 11  8 18  2  9  0.0000000  0  8G26G10G29G12G05G02G30G25
  -8572102.57045  -6667089.21142  24257294.4844                   24257293.0594
  -4087804.50446  -3177474.67643  23044246.3834                   23044244.0084
 -12092474.12146  -9346183.04343  23069154.0634                   23069151.7034
 -15458072.45347 -12207627.27045  21177824.5784                   21177821.7934
 -21347612.18747 -16599695.61746  20304811.4844                   20304808.3874
 -11655457.16847  -9075501.10245  21447224.4924                   21447219.8714
 -15094292.92647 -11752738.01245  21576395.7664                   21576393.4344
 -16521689.87947 -12864868.34845  21658988.2734                   21658988.5204
 11  8 18  2  9 30.0000000  0  8G26G10G29G12G05G02G30G25
  -8641033.15245  -6720801.15642  24244178.3914                   24244175.7934
  -3963322.99646  -3080476.11743  23067934.5704                   23067931.9384
 -12149346.21946  -9390498.92643  23058331.8834                   23058328.6524
 -15383579.51247 -12149580.82445  21192000.5004                   21191997.5004
 -21311322.69147 -16571418.07046  20311716.4844                   20311713.6174
 -11593392.22347  -9027138.77745  21459035.7344                   21459030.2664
 -15064792.48847 -11729750.64844  21582008.7664                   21582007.1684
 -16512321.10547 -12857568.00445  21660771.3054                   21660770.9884
 11  8 18  2 10  0.0000000  0  8G26G10G29G12G05G02G30G25
  -8710001.55145  -6774542.60242  24231053.5314                   24231050.9144
  -3838602.86746  -2983291.59443  23091667.8754                   23091665.8404
 -12206194.25046  -9434796.03143  23047513.7974                   23047511.4224
 -15308593.98447 -12091150.54745  21206269.6484                   21206265.9804
 -21274480.86747 -16542710.14546  20318728.2034                   20318724.5944
 -11531235.65247  -8978705.07045  21470863.1254                   21470858.3594
 -15034694.69947 -11706297.82044  21587737.3204                   21587734.7114
 -16502377.78947 -12849819.95345  21662663.6174                   21662663.1914
 11  8 18  2 10 30.0000000  0  8G26G10G29G12G05G02G30G25
  -8779004.38346  -6828310.91442  24217922.9064                   24217919.4844
  -3713646.65246  -2885923.12143  23115447.0474                   23115443.9344
 -12263016.03946  -9479072.70343  23036701.1254                   23036697.7664
 -15233117.39847 -12032337.61745  21220632.5084                   21220629.5664
 -21237087.53547 -16513572.46946  20325843.4454                   20325840.4344
 -11468987.44547  -8930199.95345  21482709.0634                   21482703.5434
 -15003999.72747 -11682379.63744  21593578.1644                   21593575.3164
 -16491859.30147 -12841623.73845  21664665.3674                   21664664.7704
 11  8 18  2 11  0.0000000  0  8G26G10G29G12G05G02G30G25
  -8848043.52745  -6882107.55142  24204784.1884                   24204782.9304
  -3588462.47746  -2788377.03143  23139267.7974                   23139265.3134
 -12319815.25446  -9523331.77743  23025891.8594                   23025889.8444
 -15157156.66847 -11973147.43745  21235087.0704                   21235084.1294
 -21199148.81647 -16484009.80946  20333063.0004                   20333060.0044
 -11406653.22347  -8881627.82445  21494570.7734                   21494565.2114
 -14972713.57047 -11658000.80544  21599531.5554                   21599528.7894
 -16480770.52747 -12832983.11345  21666775.4844                   21666774.9884
 11  8 18  2 11 30.0000000  0  8G26G10G29G12G05G02G30G25
  -8917109.07046  -6935924.76642  24191642.1724                   24191640.6334
  -3463046.46146  -2690650.25443  23163133.7274                   23163131.8984
 -12376583.76246  -9567566.94143  23015089.8834                   23015086.7034
 -15080707.50447 -11913576.66445  21249634.9384                   21249632.0944
 -21160659.16047 -16454017.85246  20340387.0474                   20340384.2464
 -11344226.70347  -8832983.75845  21506449.5474                   21506445.2894
 -14940830.31647 -11633156.70345  21605598.7194                   21605596.0634
 -16469104.58247 -12823892.75845  21668994.9694                   21668994.4964
 11  8 18  2 12  0.0000000  0  8G26G10G29G12G05G02G30G25
  -8986207.99646  -6989767.95342  24178493.0314                   24178490.8014
  -3337411.23046  -2592752.68743  23187041.5084                   23187039.4184
 -12433329.76246  -9611784.54744  23004291.1884                   23004288.2384
 -15003781.96947 -11853634.68445  21264272.8524                   21264270.6994
 -21121629.50447 -16423605.10946  20347814.2814                   20347811.4614
 -11281718.39147  -8784275.97345  21518345.2734                   21518339.8014
 -14908360.62947 -11607855.64845  21611777.5394                   21611774.7034
 -16456871.06247 -12814360.12545  21671322.8984                   21671322.6214
 11  8 18  2 12 30.0000000  0  8G26G10G29G12G05G02G30G25
  -9055329.12546  -7043628.41842  24165339.2584                   24165337.0274
  -3211552.29346  -2494680.78543  23210990.3914                   23210988.9304
 -12490044.11346  -9655977.50043  22993498.8524                   22993496.1564
 -14926374.27747 -11793317.00445  21279003.6414                   21279000.2624
 -21082053.46947 -16392766.62946  20355345.0084                   20355342.4304
 -11219120.86347  -8735498.67245  21530256.9454                   21530251.4774
 -14875297.62947 -11582092.28945  21618069.4694                   21618066.2624
 -16444062.19947 -12804379.18445  21673760.7344                   21673759.8794
 11  8 18  2 13  0.0000000  0  8G26G10G29G12G05G02G30G25
  -9124470.96145  -7097505.06242  24152182.0474                   24152179.6644
  -3085474.08646  -2396438.03143  23234983.7734                   23234980.6054
 -12546727.09046  -9700146.01243  22982712.6174                   22982710.2194
 -14848488.43047 -11732626.73045  21293824.3984                   21293822.0204
 -21041933.80947 -16361504.52746  20362979.7034                   20362976.7894
 -11156436.30147  -8686653.53145  21542184.7194                   21542179.9454
 -14841643.95747 -11555868.64545  21624473.3594                   21624470.5084
 -16430679.44947 -12793951.05145  21676307.6094                   21676306.5354
 11  8 18  2 13 30.0000000  0  8G26G10G29G12G05G02G30G25
  -9193635.66846  -7151399.55543  24139019.9844                   24139018.1334
  -2959184.87946  -2298030.84843  23259016.1174                   23259012.6054
 -12603382.26646  -9744292.84844  22971931.0704                   22971929.1334
 -14770132.11747 -11671569.87945  21308735.5704                   21308732.4454
 -21001277.14547 -16329823.98846  20370716.3364                   20370713.6564
 -11093670.52047  -8637745.12545  21554129.0634                   21554124.2974
 -14807405.77747 -11529189.55544  21630988.3134                   21630986.1414
 -16416728.15247 -12783079.89845  21678961.7034                   21678961.6254
 11  8 18  2 14  0.0000000  0  8G26G10G29G12G05G02G30G25
  -9262814.97746  -7205305.33242  24125855.7274                   24125853.4144
  -2832682.30945  -2199457.44143  23283087.5634                   23283085.3204
 -12660002.69946  -9788412.60943  22961155.2034                   22961154.0744
 -14691301.84847 -11610143.69145  21323736.4064                   21323733.2504
 -20960079.14847 -16297721.64146  20378556.0784                   20378553.1564
 -11030818.40647  -8588769.43445  21566089.6334                   21566084.5004
 -14772578.63747 -11502051.53945  21637616.0314                   21637613.6684
 -16402202.78947 -12771761.41845  21681726.0784                   21681725.8444
 11  8 18  2 14 30.0000000  0  8G26G10G29G12G05G02G30G25
  -9332003.87545  -7259218.64142  24112689.6254                   24112687.5864
  -2705967.53945  -2100718.63743  23307200.6334                   23307199.4414
 -12716585.25846  -9832502.84844  22950389.6724                   22950386.5704
 -14611998.21147 -11548348.65645  21338827.4304                   21338824.1254
 -20918339.44547 -16265197.16846  20386498.5634                   20386495.9694
 -10967878.78547  -8539725.56645  21578065.7584                   21578061.4734
 -14737161.98847 -11474454.15644  21644355.4384                   21644352.7664
 -16387101.73847 -12759994.35545  21684599.7664                   21684599.1454
 11  8 18  2 15  0.0000000  0  8G26G10G29G12G05G02G30G25
  -9401201.71545  -7313138.87542  24099520.5634                   24099519.6054
  -2579046.10546  -2001818.86343  23331354.4454                   23331351.0704
 -12773130.96946  -9876564.39844  22939628.3594                   22939625.9924
 -14532226.32447 -11486188.75045  21354007.2344                   21354004.0084
 -20876062.15247 -16232253.80146  20394543.8054                   20394541.1684
 -10904854.88747  -8490616.02745  21590059.6024                   21590054.5234
 -14701159.55947 -11446400.33245  21651206.6954                   21651204.0554
 -16371427.80547 -12747780.88745  21687582.7734                   21687582.0084
 11  8 18  2 15 30.0000000  0  8G26G10G29G12G05G02G30G25
  -9470403.57845  -7367062.30542  24086352.6484                   24086350.7384
  -2451919.18746  -1902758.94143  23355545.2274                   23355543.0944
 -12829636.85946  -9920594.90644  22928875.8594                   22928873.8054
 -14451986.74647 -11423664.39845  21369276.2974                   21369273.1764
 -20833247.16447 -16198891.46946  20402691.5474                   20402688.1684
 -10841745.12547  -8441439.57844  21602068.9534                   21602063.7814
 -14664570.55947 -11417889.44545  21658169.4064                   21658167.0394
 -16355179.07847 -12735119.53545  21690674.2664                   21690674.1094
 11  8 18  2 16  0.0000000  0  8G26G10G29G12G05G02G30G25
  -9539608.92645  -7420988.41842  24073183.4224                   24073181.5274
  -2324592.48846  -1803543.34043  23379774.9384                   23379772.1214
 -12886103.61346  -9964594.91844  22918130.2664                   22918128.4414
 -14371284.37947 -11360779.44545  21384633.6564                   21384630.3984
 -20789898.41447 -16165113.19946  20410940.4144                   20410937.4184
 -10778552.65247  -8392198.67645  21614094.4384                   21614088.6214
 -14627398.70347 -11388924.37944  21665243.0864                   21665240.0984
 -16338358.39147 -12722012.50445  21693875.8134                   21693875.1174
 11  8 18  2 16 30.0000000  0  8G26G10G29G12G05G02G30G25
  -9608808.03945  -7474909.70742  24060015.5864                   24060013.7734
  -2197062.37546  -1704169.22743  23404042.9064                   23404040.6724
 -12942523.08646 -10008558.09044  22907394.3914                   22907392.1414
 -14290114.82047 -11297530.43745  21400079.9774                   21400076.7114
 -20746010.22747 -16130914.59446  20419291.5704                   20419288.9264
 -10715271.46947  -8342888.64845  21626136.6414                   21626130.8674
 -14589638.54747 -11359500.88744  21672428.3594                   21672425.6684
 -16320959.16847 -12708454.66445  21697186.5554                   21697185.3204
 11  8 18  2 17  0.0000000  0  8G26G10G29G12G05G02G30G25
  -9678004.03145  -7528828.53943  24046847.1024                   24046845.2734
  -2069337.66046  -1604643.45743  23428348.0234                   23428345.5394
 -12998900.09446 -10052488.15244  22896666.2734                   22896663.5904
 -14208486.79747 -11233924.18045  21415613.4694                   21415609.7934
 -20701590.26647 -16096301.62146  20427744.7974                   20427741.6024
 -10651908.22347  -8293514.69145  21638193.9614                   21638188.5664
 -14551297.43747 -11329624.71944  21679724.5634                   21679722.2664
 -16302987.82447 -12694451.02345  21700606.1024                   21700605.0944
 11  8 18  2 17 30.0000000  0  8G26G10G29G12G05G02G30G25
  -9747190.57845  -7582740.07042  24033680.4064                   24033678.9024
  -1941418.75046  -1504966.37943  23452689.4534                   23452688.2894
 -13055230.21546 -10096381.68744  22885947.1414                   22885944.7774
 -14126399.79747 -11169960.28545  21431234.0554                   21431230.7274
 -20656637.48047 -16061273.46546  20436298.7814                   20436296.1134
 -10588460.30147  -8244074.73845  21650267.5944                   21650262.2504
 -14512373.75047 -11299294.59845  21687130.9844                   21687129.0514
 -16284441.68447 -12679999.48045  21704135.6564                   21704134.4344
 11  8 18  2 18  0.0000000  0  8G26G10G29G12G05G02G30G25
  -9816362.91445  -7636640.52042  24020518.6414                   24020515.7774
  -1813306.84846  -1405138.91443  23477069.3364                   23477066.3404
 -13111510.11346 -10140236.12144  22875237.4304                   22875235.0784
 -14043854.87547 -11105639.57045  21446941.0944                   21446938.7114
 -20611151.53947 -16025829.84446  20444955.0474                   20444951.9304
 -10524926.62947  -8194567.97344  21662357.3284                   21662352.2504
 -14472867.13747 -11268510.23445  21694649.2734                   21694646.6254
 -16265319.30147 -12665098.92645  21707773.6804                   21707773.3874
 11  8 18  2 18 30.0000000  0  8G26G10G29G12G05G02G30G25
  -9885520.05545  -7690529.14542  24007358.7894                   24007355.4924
  -1685007.01646  -1305165.04743  23501483.4614                   23501481.3914
 -13167740.13346 -10184051.64544  22864536.4614                   22864534.4104
 -13960856.33247 -11040965.37945  21462735.8134                   21462732.7304
 -20565136.37547 -15989973.85246  20453711.1094                   20453708.4574
 -10461309.53947  -8144996.20345  21674463.2424                   21674458.1914
 -14432780.80147 -11237274.12544  21702277.4844                   21702274.8714
 -16245623.03147 -12649751.18045  21711522.1174                   21711521.4344
 11  8 18  2 19  0.0000000  0  8G26G10G29G12G05G02G30G25
  -9954654.26645  -7744399.89843  23994202.3364                   23994200.0864
  -1556517.68446  -1205043.48043  23525934.1254                   23525932.1564
 -13223914.56246 -10227823.88344  22853846.9304                   22853844.2504
 -13877402.29747 -10975936.25045  21478616.4844                   21478613.3794
 -20518588.69947 -15953702.92646  20462568.8524                   20462565.4734
 -10397604.97747  -8095356.28945  21686585.9694                   21686580.8834
 -14392111.68747 -11205583.91045  21710016.1804                   21710014.0554
 -16225348.64547 -12633952.96545  21715379.7734                   21715379.6604
 11  8 18  2 19 30.0000000  0  8G26G10G29G12G05G02G30G25
 -10023766.83246  -7798253.73842  23981050.5864                   23981048.5514
  -1427846.01646  -1104779.85543  23550419.5314                   23550417.1914
 -13280036.19146 -10271554.94944  22843166.9774                   22843165.8014
 -13793499.26247 -10910557.25845  21494582.4694                   21494579.9184
 -20471514.14547 -15917021.43046  20471526.6414                   20471523.8364
 -10333817.89847  -8045652.07045  21698724.1644                   21698719.2034
 -14350865.47347 -11173443.98844  21717865.5704                   21717863.1174
 -16204500.92247 -12617707.98845  21719347.7664                   21719346.8634
 11  8 18  2 20  0.0000000  0  8G26G10G29G12G05G02G30G25
 -10092849.04346  -7852083.96942  23967905.0634                   23967901.8634
  -1298989.76646  -1004372.43042  23574940.8054                   23574937.8954
 -13336098.21146 -10315239.57444  22832499.2034                   22832497.0394
 -13709145.07047 -10844826.73445  21510634.9844                   21510631.9654
 -20423909.46147 -15879926.85546  20480585.6724                   20480582.3324
 -10269943.49247  -7995879.79745  21710878.8524                   21710874.3594
 -14309038.34847 -11140851.41844  21725825.2114                   21725822.3594
 -16183074.94547 -12601012.42245  21723424.5004                   21723424.0354
 11  8 18  2 20 30.0000000  0  8G26G10G29G12G05G02G30G25
 -10161903.88746  -7905892.89542  23954764.0084                   23954760.5354
  -1169958.44946   -903828.52743  23599494.3914                   23599491.9614
 -13392105.32846 -10358881.42244  22821841.2664                   22821838.9614
 -13624348.02047 -10778751.10545  21526771.1174                   21526768.3914
 -20375782.76247 -15842425.51246  20489744.0234                   20489740.4384
 -10205988.35547  -7946044.62545  21723049.0084                   21723044.5944
 -14266637.78547 -11107811.99244  21733893.1174                   21733890.8444
 -16161077.29347 -12583871.40645  21727610.2194                   21727610.1604
 11  8 18  2 21  0.0000000  0  8G26G10G29G12G05G02G30G25
 -10230924.66446  -7959675.26243  23941629.7974                   23941627.4534
  -1040751.03946   -803147.42242  23624081.5474                   23624079.5434
 -13448052.03146 -10402476.19544  22811195.3834                   22811192.0744
 -13539107.51247 -10712329.95745  21542991.8674                   21542989.0634
 -20327131.50447 -15804515.42245  20499002.1094                   20498998.6054
 -10141949.31247  -7896144.07445  21735235.4924                   21735230.7194
 -14223661.64847 -11074324.08644  21742071.7344                   21742069.1564
 -16138504.65247 -12566282.32045  21731906.4774                   21731905.4964
 11  8 18  2 21 30.0000000  0  8G26G10G29G12G05G02G30G25
 -10299911.44146  -8013431.10543  23928502.2344                   23928500.4924
   -911373.81646   -702334.02742  23648701.1484                   23648699.1414
 -13503940.09446 -10446025.28144  22800559.8754                   22800557.0664
 -13453429.19547 -10645567.62545  21559295.5864                   21559292.8244
 -20277960.94147 -15766200.67646  20508358.7664                   20508355.7504
 -10077830.18047  -7846181.11744  21747437.5474                   21747432.1724
 -14180114.73447 -11040391.40244  21750357.8524                   21750355.3484
 -16115360.88347 -12548248.21945  21736310.6094                   21736309.5204
 11  8 18  2 22  0.0000000  0  8G26G10G29G12G05G02G30G25
 -10368863.31246  -8067159.74643  23915380.8284                   23915378.1684
   -781831.78146   -601392.19142  23673351.9534                   23673349.6054
 -13559770.19146 -10489529.21144  22789936.0554                   22789932.6994
 -13367317.80547 -10578467.85545  21575681.8914                   21575679.3954
 -20228274.96947 -15727484.31246  20517813.6484                   20517810.3914
 -10013633.49647  -7796157.71144  21759652.9924                   21759647.8134
 -14136000.78547 -11006016.88744  21758753.1024                   21758750.9064
 -16091648.71147 -12529771.19145  21740822.5554                   21740822.1724
 11  8 18  2 22 30.0000000  0  8G26G10G29G12G05G02G30G25
 -12013194.80145  -9348456.94142  23602474.7974                   23602471.7774
  -2227539.71146  -1727917.94142  23398242.1644                   23398239.8364
 -15190958.87146 -11760585.28144  22479530.3984                   22479528.6484
 -14856188.72347 -11738627.02045  21292359.3834                   21292356.9844
 -21753489.43047 -16915963.09846  20227574.9454                   20227572.0824
 -11524773.01647  -8973669.03544  21472092.6884                   21472087.6214
 -15666735.52347 -12198797.17644  21467464.0784                   21467461.2234
 -17642783.51647 -13738447.66445  21445651.3134                   21445651.1884
 11  8 18  2 23  0.0000000  0  8G26G10G29G12G05G02G30G25
 -12082057.40245  -9402116.07442  23589370.7114                   23589367.3134
  -2097668.13745  -1626719.28542  23422957.0634                   23422953.7234
 -15246658.82446 -11803987.78944  22468931.6644                   22468929.0864
 -14769209.47747 -11670850.98845  21308911.0234                   21308908.2074
 -21702768.31647 -16876440.12946  20237227.1564                   20237223.8014
 -11460412.85947  -8923518.25845  21484339.9694                   21484335.4494
 -15621482.49647 -12163535.05544  21476074.8984                   21476072.7034
 -17617926.41847 -13719078.48845  21450381.7504                   21450380.9804
 11  8 18  2 23 30.0000000  0  8G26G10G29G12G05G02G30G25
 -12150870.82445  -9455736.80943  23576275.4064                   23576272.6604
  -1967635.86345  -1525395.48442  23447701.7424                   23447697.6524
 -15302291.24646 -11847337.68744  22458345.0084                   22458342.3364
 -14681800.58647 -11602740.18045  21325544.3444                   21325541.1954
 -21651532.42247 -16836516.03946  20246976.9304                   20246973.6174
 -11395971.59447  -8873304.29345  21496603.1484                   21496598.0204
 -15575662.41047 -12127831.07844  21484793.9454                   21484791.8014
 -17592497.89147 -13699264.04345  21455220.5394                   21455220.1884
 11  8 18  2 24  0.0000000  0  9G26G10G29G12G05G02G15G30G25
 -12219628.75845  -9509314.34442  23563190.7194                   23563188.3284
  -1837443.07845  -1423946.54742  23472476.7734                   23472472.6134
 -15357851.82446 -11890631.59444  22447772.3444                   22447769.5434
 -14593961.84847 -11534294.41845  21342258.9144                   21342256.4064
 -21599780.19147 -16796189.60545  20256824.5394                   20256820.7934
 -11331446.89147  -8823025.30945  21508881.6954                   21508876.4414
  -7980738.53515                  24472951.641
 -15529273.92647 -12091684.18445  21493621.9924                   21493619.3014
 -17566495.53147 -13679002.44145  21460168.3204                   21460167.8674
 11  8 18  2 24 30.0000000  0  9G26G10G29G12G05G02G15G30G25
 -12288332.09846  -9562849.32842  23550116.7034                   23550115.0044
  -1707097.17645  -1322378.32842  23497280.1484                   23497276.9804
 -15413343.03946 -11933871.45344  22437212.4224                   22437209.4774
 -14505699.72747 -11465518.74245  21359055.4454                   21359052.7544
 -21547517.77047 -16755465.62945  20266770.1414                   20266766.9844
 -11266843.43047  -8772684.94545  21521175.3594                   21521171.0984
  -8048078.867 5                  24460138.078
 -15482322.96147 -12055098.99244  21502556.0234                   21502553.4694
 -17539924.19147 -13658297.48845  21465225.4694                   21465224.5234
 11  8 18  2 25  0.0000000  0  9G26G10G29G12G05G02G15G30G25
 -12356976.70746  -9616338.53943  23537054.3914                   23537053.4414
  -1576599.89545  -1220692.21142  23522112.5004                   23522110.0944
 -15468762.18746 -11977055.16844  22426666.5234                   22426663.4804
 -14417016.27747 -11396414.75845  21375930.8364                   21375928.5274
 -21494746.30147 -16714344.97745  20276812.0944                   20276808.8404
 -11202160.16447  -8722282.39845  21533483.9614                   21533478.7734
  -8115553.21145  -6313161.07852  24447296.6724                   24447297.2624
 -15434810.04347 -12018075.94944  21511596.8284                   21511594.7664
 -17512783.46947 -13637148.84045  21470389.2344                   21470389.2544
 11  8 18  2 25 30.0000000  0  9G26G10G29G12G05G02G15G30G25
 -12425559.82445  -9669779.81643  23524004.0864                   23524001.9774
  -1445954.93045  -1118890.92642  23546974.8914                   23546971.7704
 -15524108.39146 -12020182.03944  22416133.7424                   22416131.3364
 -14327914.91847 -11326985.13345  21392886.9144                   21392883.2624
 -21441468.12547 -16672829.49645  20286950.4614                   20286947.3404
 -11137398.49247  -8671818.74244  21545807.1334                   21545802.9884
  -8183160.09045  -6365841.63342  24434431.9694                   24434430.4614
 -15386737.61747 -11980616.89144  21520745.5004                   21520742.9414
 -17485074.74247 -13615557.60945  21475662.3984                   21475661.5554
 11  8 18  2 26  0.0000000  0  9G26G10G29G12G05G02G15G30G25
 -12494078.71946  -9723171.12543  23510963.5394                   23510963.3404
  -1315165.47745  -1016977.15242  23571862.8674                   23571859.4774
 -15579380.38746 -12063251.08244  22405616.2274                   22405614.1954
 -14238398.56647 -11257232.14545  21409920.8054                   21409918.2304
 -21387685.28147 -16630920.77745  20297184.8754                   20297181.6844
 -11072559.12147  -8621294.57444  21558145.9614                   21558141.0274
  -8250897.39845  -6418623.81242  24421541.7734                   24421540.2154
 -15338107.76647 -11942723.48044  21529999.2034                   21529996.5314
 -17456799.14847 -13593524.66045  21481043.2034                   21481042.3364
 11  8 18  2 26 30.0000000  0  9G26G10G29G12G05G02G15G30G25
 -12562523.35545  -9776504.47743  23497940.6724                   23497938.8164
  -1184227.60245   -914947.66442  23596779.1644                   23596776.6214
 -15634569.64146 -12106255.64544  22395114.1174                   22395111.6914
 -14148463.29746 -11187152.71945  21427035.0784                   21427032.0394
 -21333392.94947 -16588615.03545  20307516.4694                   20307513.3244
 -11007635.76247  -8570704.94945  21570500.5164                   21570495.8404
  -8318755.94545  -6471500.44942  24408627.8594                   24408626.5514
 -15288915.42647 -11904391.77344  21539360.3674                   21539357.7624
 -17427950.61347 -13571045.27345  21486532.7114                   21486532.3674
 11  8 18  2 27  0.0000000  0  9G26G10G29G12G05G02G15G30G25
 -12630895.23846  -9829781.17243  23484929.8054                   23484927.7464
  -1053149.16445   -812808.65242  23621723.8364                   23621719.8484
 -15689679.40246 -12149198.25444  22384627.0084                   22384624.0514
 -14058116.39147 -11116752.52745  21444228.3914                   21444224.8094
 -21278597.85947 -16545917.54746  20317943.7974                   20317940.2234
 -10942633.44947  -8520053.77745  21582870.5004                   21582865.2344
  -8386738.19145  -6524473.48042  24395691.4304                   24395689.2034
 -15239167.28947 -11865626.98844  21548826.6484                   21548825.0704
 -17398534.75047 -13548123.82445  21492131.1724                   21492129.5784
 11  8 18  2 27 30.0000000  0  9G26G10G29G12G05G02G15G30G25
 -12699190.21546  -9882997.96143  23471932.7814                   23471931.6174
   -921932.25045   -710561.69942  23646693.0164                   23646689.6414
 -15744707.29746 -12192077.09044  22374156.1804                   22374152.7704
 -13967360.22747 -11046033.44145  21461498.1954                   21461494.9384
 -21223301.26247 -16502829.25845  20328466.3984                   20328462.2344
 -10877552.01247  -8469340.97745  21595255.2344                   21595250.4344
  -8454841.30145  -6577540.64542  24382732.7504                   24382729.5274
 -15188864.25447 -11826429.82444  21558399.4924                   21558397.1564
 -17368551.54747 -13524760.27345  21497836.3444                   21497835.9454
 11  8 18  2 28  0.0000000  0  9G26G10G29G12G05G02G15G30G25
 -12767403.98046  -9936151.47743  23458953.0864                   23458951.5824
   -790578.31645   -608208.11742  23671688.4924                   23671686.2194
 -15799650.31646 -12234889.79344  22363700.5784                   22363697.5204
 -13876196.66847 -10974996.89845  21478845.4774                   21478843.2304
 -21167503.93447 -16459350.81245  20339084.2664                   20339081.2584
 -10812390.27747  -8418565.58244  21607654.4144                   21607649.4574
  -8523061.90645  -6630699.37942  24369749.5554                   24369747.9844
 -15138007.12547 -11786800.87944  21568077.4614                   21568074.9454
 -17338000.69547 -13500954.40645  21503649.2424                   21503649.4574
 11  8 18  2 28 30.0000000  0  9G26G10G29G12G05G02G15G30G25
 -12835529.44146  -9989236.13343  23445988.8754                   23445986.1134
   -659086.41045   -505746.88742  23696709.5084                   23696708.3284
 -15854503.16846 -12277632.22744  22353262.1174                   22353259.4774
 -13784623.98847 -10903641.56245  21496271.5164                   21496268.7274
 -21111204.11747 -16415480.80545  20349797.8834                   20349794.7894
 -10747144.85947  -8367724.98044  21620070.5864                   21620065.1804
  -8591393.52745  -6683944.65642  24356746.2194                   24356744.6724
 -15086593.77347 -11746738.52045  21577860.9844                   21577858.4264
 -17306879.13747 -13476703.83645  21509571.1484                   21509571.4344
 11  8 18  2 29  0.0000000  0  9G26G10G29G12G05G02G15G30G25
 -12903566.97346 -10042252.33642  23433042.5164                   23433038.7114
   -527463.40645   -403183.59842  23721757.3984                   23721754.9064
 -15909267.52346 -12320305.69544  22342840.2974                   22342837.7234
 -13692649.42647 -10831973.07845  21513773.9384                   21513770.7734
 -21054407.25447 -16371223.50046  20360605.5234                   20360602.3484
 -10681819.68447  -8316822.23845  21632501.6334                   21632496.8284
  -8659837.67646  -6737277.65642  24343722.9614                   24343720.8444
 -15034629.83247 -11706247.12944  21587748.7584                   21587747.1764
 -17275191.55947 -13452012.19145  21515601.7894                   21515600.8054
 11  8 18  2 29 30.0000000  0  9G26G10G29G12G05G02G15G30G25
 -12971509.46946 -10095194.46942  23420113.4694                   23420110.4964
   -395708.516 5                  23746830.055
 -15963938.03946 -12362906.05544  22332436.8984                   22332434.8054
 -13600272.08647 -10759990.72345  21531352.6954                   21531349.7774
 -20997111.52047 -16326577.45345  20371508.2274                   20371504.7974
 -10616411.69947  -8265854.96544  21644948.4454                   21644943.9304
  -8728388.30146  -6790693.62942  24330677.5004                   24330675.4884
 -14982113.46947 -11665325.27744  21597742.2894                   21597740.2424
 -17242935.14847 -13426877.32445  21521740.3444                   21521739.3244
 11  8 18  2 30  0.0000000  0  9G26G10G29G12G05G02G15G30G25
 -13039360.57446 -10148065.42643  23407200.9304                   23407198.9884
   -263831.496 5                  23771923.977
 -16018520.00446 -12405437.41044  22322050.6254                   22322048.0634
 -13507501.37547 -10687701.86745  21549006.1024                   21549003.3284
 -20939325.81647 -16281549.62545  20382504.7974                   20382501.2234
 -10550928.01647  -8214828.72344  21657409.0554                   21657404.1844
  -8797049.88746  -6844195.99242  24317611.2114                   24317609.5864
 -14929053.51247 -11623979.87144  21607840.3204                   21607837.1844
 -17210117.60247 -13401305.19945  21527985.1254                   21527983.9614
 11  8 18  2 30 30.0000000  0  9G26G10G29G12G05G02G15G30G25
 -13107107.23846 -10200854.96543  23394308.3134                   23394307.0044
   -131825.223 5                  23797044.508
 -16073001.88346 -12447890.78144  22311682.6804                   22311680.1454
 -13414330.28147 -10615101.00445  21566735.6804                   21566733.1024
 -20881042.60547 -16236134.12145  20393596.0084                   20393592.4614
 -10485359.11347  -8163736.03944  21669887.3204                   21669882.0554
  -8865810.20745  -6897775.33242  24304526.0004                   24304523.9574
 -14875442.00447 -11582204.65244  21618041.5864                   21618039.2734
 -17176730.06247 -13375288.91845  21534338.6884                   21534337.6644
 11  8 18  2 31  0.0000000  0  9G26G10G29G12G05G02G15G30G25
 -13174751.02745 -10253564.30943  23381436.3284                   23381434.7734
       302.227 5                  23822188.273
 -16127387.13746 -12490268.85544  22301334.3284                   22301331.2344
 -13320766.96547 -10542194.53145  21584540.7814                   21584537.5274
 -20822268.87947 -16190336.40246  20404779.9614                   20404776.9734
 -10419710.56647  -8112581.32844  21682379.3594                   21682374.7894
  -8934672.23845  -6951433.93042  24291421.7584                   24291420.9144
 -14821286.15647 -11540005.29744  21628347.1484                   21628344.4654
 -17142778.81247 -13348833.38345  21540799.2974                   21540798.4264
 11  8 18  2 31 30.0000000  0  9G26G10G29G12G05G02G15G30G25
 -13242291.66846 -10306193.32842  23368584.4144                   23368582.2114
    132545.035 5                  23847353.508
 -16181676.85946 -12532572.50844  22291002.5394                   22291000.0044
 -13226817.26647 -10468986.97344  21602418.8284                   21602415.5664
 -20763009.51247 -16144160.26645  20416057.3204                   20416053.6954
 -10353985.31247  -8061366.82044  21694885.7894                   21694881.0394
  -9003636.43445  -7005172.04742  24278299.1094                   24278297.9184
 -14766590.78547 -11497385.50844  21638755.2894                   21638753.2194
 -17108267.56247 -13321941.48845  21547366.1804                   21547365.7034
 11  8 18  2 32  0.0000000  0  9G26G10G29G12G05G02G15G30G25
 -13309716.74246 -10358732.27342  23355753.5234                   23355751.5314
    264909.473 5                  23872541.102
 -16235860.10246 -12574793.16444  22280691.3674                   22280688.6174
 -13132474.87547 -10395473.42645  21620371.6094                   21620368.4614
 -20703257.37547 -16097600.15245  20427427.3444                   20427424.3484
 -10288174.53946  -8010085.68444  21707409.3364                   21707404.6134
  -9072691.10945  -7058980.73843  24265157.7734                   24265156.2464
 -14711348.76647 -11454339.77744  21649267.0164                   21649264.8094
 -17073188.30947 -13294607.00045  21554041.7344                   21554040.9454
 11  8 18  2 32 30.0000000  0  9G26G10G29G12G05G02G15G30G25
 -13377033.02746 -10411186.45743  23342943.8284                   23342940.8284
    397382.637 5                  23897750.836
 -16289945.37546 -12616937.49244  22270399.4304                   22270396.6914
 -13037752.46546 -10321663.76645  21638396.2814                   21638393.7384
 -20643024.80147 -16050665.68045  20438889.2974                   20438885.5084
 -10222288.99646  -7958746.30544  21719947.0784                   21719942.3014
  -9141844.19945  -7112866.07443  24251998.6804                   24251997.1294
 -14655572.40247 -11410877.65244  21659882.0164                   21659879.3054
 -17037552.29747 -13266838.67245  21560822.6174                   21560822.5824
 11  8 18  2 33  0.0000000  0  9G26G10G29G12G05G02G15G30G25
 -13444229.66046 -10463547.38743  23330155.9774                   23330154.1914
    529969.676 5                  23922979.766
 -16343923.08246 -12658997.98844  22260128.5314                   22260125.4454
 -12942646.07847 -10247554.89845  21656494.9304                   21656491.6804
 -20582306.28147 -16003352.53545  20450443.4454                   20450440.4024
 -10156321.18746  -7907342.78944  21732500.7974                   21732495.1724
  -9211085.43746  -7166820.17243  24238822.3914                   24238820.6724
 -14599256.12546 -11366994.83645  21670598.2894                   21670595.5434
 -17001352.93447 -13238631.36745  21567711.2894                   21567710.9344
 11  8 18  2 33 30.0000000  0  9G26G10G29G12G05G02G15G30G25
 -13511302.73446 -10515812.09043  23317393.1094                   23317390.0594
    662667.945 5                  23948232.836
 -16397791.35246 -12700973.24244  22249877.3834                   22249874.9494
 -12847158.19547 -10173148.75845  21674664.9454                   21674662.2504
 -20521103.82047 -15955662.30145  20462089.4534                   20462086.3714
 -10090271.02346  -7855875.13344  21745069.5864                   21745064.5634
  -9280412.26246  -7220840.95743  24225630.0864                   24225628.2304
 -14542401.52046 -11322692.53944  21681417.2274                   21681415.1024
 -16964590.93447 -13209985.64145  21574706.9454                   21574706.3794
 11  8 18  2 34  0.0000000  0  9G26G10G29G12G05G02G15G30G25
 -13578252.89546 -10567981.01243  23304652.4224                   23304650.5784
    795470.621 4                  23973504.336
 -16451552.56246 -12742865.07044  22239646.9534                   22239644.2504
 -12751295.51647 -10098450.58245  21692907.0704                   21692904.4224
 -20459423.03947 -15907599.34846  20473827.2584                   20473824.0204
 -10024142.93046  -7804346.74644  21757653.1334                   21757648.2194
  -9349826.05946  -7274929.51242  24212420.3134                   24212418.8094
 -14485014.74247 -11277975.56244  21692337.7814                   21692335.0784
 -16927271.50047 -13180905.54745  21581808.8754                   21581807.8324
 11  8 18  2 34 30.0000000  0  9G26G10G29G12G05G02G15G30G25
 -13645079.41446 -10620053.55943  23291936.3594                   23291934.4774
                                  23998792.453
 -16505207.41846 -12784674.01644  22229436.4224                   22229434.2464
 -12655063.61746 -10023464.69945  21711219.4384                   21711216.6994
 -20397268.95347 -15859167.59445  20485655.0004                   20485651.6294
  -9957939.60547  -7752759.72744  21770250.9224                   21770245.8984
  -9419327.30545  -7329086.21542  24199193.6094                   24199192.6764
 -14427100.60547 -11232847.66444  21703358.1724                   21703356.1134
 -16889398.38747 -13151394.02045  21589015.3054                   21589015.2504
 11  8 18  2 35  0.0000000  0  9G26G10G29G12G05G02G15G30G25
 -13711775.77746 -10672024.69543  23279244.1024                   23279241.3404
   1061373.17615                  24024102.414
 -16558750.65646 -12826395.99244  22219247.7274                   22219244.9304
 -12558462.19147  -9948190.87545  21729602.6174                   21729599.3954
 -20334640.55547 -15810366.24645  20497572.5314                   20497569.4144
  -9891658.00047  -7701111.71544  21782864.3284                   21782859.4774
  -9488910.06645  -7383306.38342  24185952.3444                   24185951.4454
 -14368658.05947 -11187308.02044  21714478.9774                   21714477.2384
 -16850969.59847 -13121449.49245  21596328.3364                   21596328.0004
 11  8 18  2 35 30.0000000  0  9G26G10G29G12G05G02G15G30G25
 -13778334.16446 -10723888.30943  23266577.9224                   23266576.3204
                                  24049431.352
 -16612176.16046 -12868026.23844  22209081.8284                   22209078.1254
 -12461489.88746  -9872628.04745  21748055.7504                   21748053.0554
 -20271535.58247 -15761193.53145  20509581.2274                   20509577.7934
  -9825294.23046  -7649399.68745  21795493.4844                   21795487.6684
  -9558567.42245  -7437584.74642  24172698.3134                   24172696.6764
 -14309684.82447 -11141354.83644  21725701.6564                   21725699.4064
 -16811981.90247 -13091069.45345  21603747.9844                   21603747.0904
 11  8 18  2 36  0.0000000  0  9G26G10G29G12G05G02G15G30G25
 -13844752.93446 -10775643.18043  23253938.7584                   23253936.9924
   1327673.12915                  24074777.086
 -16665483.67646 -12909564.52344  22198937.1644                   22198934.1914
 -12364151.38346  -9796779.87545  21766578.4144                   21766575.8594
 -20207957.55947 -15711652.20745  20521679.6724                   20521676.3204
  -9758849.96547  -7597624.91844  21808136.5864                   21808131.9344
  -9628298.67245  -7491920.55942  24159428.8204                   24159426.1214
 -14250184.53547 -11094990.98844  21737023.8444                   21737022.6254
 -16772438.08647 -13060256.07845  21611272.6094                   21611272.0234
 11  8 18  2 36 30.0000000  0  9G26G10G29G12G05G02G15G30G25
 -13911025.22746 -10827283.87943  23241328.1484                   23241325.7734
   1460968.375 5                  24100143.797
 -16718668.29746 -12951007.05544  22188816.4924                   22188813.7704
 -12266446.21547  -9720645.99645  21785170.5944                   21785168.4884
 -20143905.67647 -15661741.65245  20533868.0944                   20533864.8524
  -9692322.39546  -7545785.25444  21820797.0554                   21820792.1724
  -9698098.03546  -7546309.51642  24146145.2114                   24146143.8324
 -14190156.46947 -11048215.87144  21748446.6024                   21748444.6024
 -16732336.28947 -13029007.91445  21618903.0784                   21618902.6294
 11  8 18  2 37  0.0000000  0  9G26G10G29G12G05G02G15G30G25
 -13977147.50446 -10878807.65243  23228745.0864                   23228743.2504
   1594358.492 5                  24125526.781
 -16771728.00446 -12992352.24644  22178720.0474                   22178716.7974
 -12168377.08647  -9644228.51245  21803833.0004                   21803830.2814
 -20079381.86747 -15611463.35545  20546146.4614                   20546143.3594
  -9625711.64547  -7493880.77044  21833471.8594                   21833466.7854
  -9767963.01246  -7600749.62143  24132851.3834                   24132850.3754
 -14129602.47747 -11001030.94144  21759969.6334                   21759967.7584
 -16691677.48047 -12997325.71145  21626641.0864                   21626640.1414
 11  8 18  2 37 30.0000000  0  9G26G10G29G12G05G02G15G30G25
 -14043119.66046 -10930214.51243  23216191.4844                   23216189.3524
   1727837.16015                  24150927.250
 -16824664.09046 -13033601.11344  22168646.1884                   22168642.9494
 -12069950.64847  -9567532.60244  21822563.4304                   21822560.4774
 -20014391.53147 -15560821.52345  20558513.9384                   20558510.3984
  -9559020.59446  -7441913.70744  21846163.3674                   21846157.0554
  -9837893.96546  -7655241.16843  24119543.8914                   24119542.5084
 -14068527.96547 -10953440.42244  21771591.5784                   21771590.2034
 -16650466.21147 -12965213.03145  21634483.2894                   21634482.6374
 11  8 18  2 38  0.0000000  0  9G26G10G29G12G05G02G15G30G25
 -14108942.25046 -10981504.76643  23203666.0394                   23203663.8524
   1861397.781 5                  24176343.563
 -16877478.68746 -13074755.31244  22158596.0554                   22158592.7154
 -11971173.66447  -9490563.52744  21841359.8984                   21841356.9414
 -19948940.76647 -15509820.92645  20570968.4924                   20570965.6684
  -9492253.69547  -7389887.55144  21858868.1724                   21858863.2624
  -9907892.85246  -7709785.62543  24106223.2034                   24106221.2034
 -14006939.23447 -10905449.20344  21783311.8444                   21783309.8554
 -16608707.68047 -12932673.91045  21642429.4614                   21642428.6254
 11  8 18  2 38 30.0000000  0  9G26G10G29G12G05G02G15G30G25
 -14174607.04746 -11032672.10243  23191169.7664                   23191167.4024
   1995042.449 5                  24201775.148
 -16930165.14146 -13115809.63344  22148569.0634                   22148567.1024
 -11872044.53947  -9413320.08244  21860223.3754                   21860220.0984
 -19883027.35547 -15458459.81245  20583511.6334                   20583508.6254
  -9425406.51647  -7337798.84444  21871589.6414                   21871583.5274
  -9977952.20745  -7764377.18442  24092891.2504                   24092888.0744
 -13944833.99247 -10857055.52344  21795130.4224                   21795127.9224
 -16566398.76247 -12899705.91845  21650480.1174                   21650479.8204
 11  8 18  2 39  0.0000000  0  9G26G10G29G12G05G02G15G30G25
 -14240107.98846 -11083711.73443  23178705.4304                   23178703.2344
   2128770.895 5                  24227222.625
 -16982718.66446 -13156760.39144  22138569.8524                   22138566.6254
 -11772563.46547  -9335802.37945  21879154.5474                   21879150.9734
 -19816650.49247 -15406737.59045  20596142.8054                   20596139.5514
  -9358476.65647  -7285645.69144  21884325.2664                   21884319.8914
 -10048066.49645  -7819011.55142  24079548.1884                   24079545.6994
 -13882211.68047 -10808258.91044  21807046.8754                   21807044.8714
 -16523537.85947 -12866307.80545  21658636.4924                   21658635.7034
 11  8 18  2 39 30.0000000  0  9G26G10G29G12G05G02G15G30G25
 -14305443.92646 -11134622.79743  23166271.5784                   23166270.3324
   2262578.50815                  24252685.766
 -17035139.94146 -13197608.07844  22128593.3674                   22128590.1884
 -11672735.91847  -9258014.69544  21898151.0314                   21898148.0634
 -19749815.04347 -15354657.99645  20608860.9384                   20608858.1294
  -9291466.22747  -7233429.77744  21897077.0004                   21897071.7814
 -10118235.80946  -7873688.85242  24066197.0394                   24066193.0944
 -13819076.94147 -10759063.02044  21819061.0004                   21819058.4924
 -16480128.81247 -12832482.56645  21666897.1254                   21666896.1884
 11  8 18  2 40  0.0000000  0  9G26G10G29G12G05G02G15G30G25
 -14370617.03146 -11185406.97343  23153870.6024                   23153868.6414
   2396456.80114                  24278160.680
 -17087432.82846 -13238355.73444  22118642.6484                   22118639.8754
 -11572570.25047  -9179963.53944  21917211.7734                   21917208.9924
 -19682528.74247 -15302227.11345  20621665.7424                   20621662.1764
  -9224381.09846  -7181155.62944  21909842.1414                   21909837.1254
 -10188463.02746  -7928411.27342  24052832.2194                   24052829.5044
 -13755437.69947 -10709474.00444  21831171.5004                   21831168.7194
 -16436178.40647 -12798235.48445  21675260.4224                   21675259.4694
 11  8 18  2 40 30.0000000  0  9G26G10G29G12G05G02G15G30G25
 -14435615.60546 -11236055.18043  23141502.3054                   23141499.1054
   2530411.145 4                  24303652.352
 -17139586.97747 -13278995.28144  22108717.8914                   22108715.1994
 -11472061.60947  -9101645.11344  21936337.4384                   21936334.9304
 -19614785.59847 -15249440.23845  20634556.3284                   20634552.7894
  -9157213.46146  -7128817.21144  21922623.9774                   21922619.7974
 -10258737.48446  -7983170.43443  24039459.1724                   24039457.4654
 -13691288.12147 -10659487.33244  21843378.8364                   21843376.5434
 -16391680.23047 -12763561.59445  21683728.0704                   21683727.1884
 11  8 18  2 41  0.0000000  0  9G26G10G29G12G05G02G15G30G25
 -14500442.75846 -11286569.76243  23129165.0084                   23129162.9224
   2664432.83615                  24329154.742
 -17191607.12546 -13319530.40244  22098819.5084                   22098815.9844
 -11371219.41447  -9023066.78945  21955527.0634                   21955524.2624
 -19546594.68047 -15196304.44545  20647532.4224                   20647529.5434
  -9089969.76647  -7076419.53144  21935420.7814                   21935415.1764
 -10329063.00846  -8037969.45743  24026077.4924                   24026074.5514
 -13626637.18446 -10609109.96944  21855681.1954                   21855679.1764
 -16346642.06247 -12728466.91445  21692298.1484                   21692297.6524
 11  8 18  2 41 30.0000000  0  9G26G10G29G12G05G02G15G30G25
 -14565090.60546 -11336944.66443  23116863.3284                   23116860.6294
   2798522.89515                  24354671.078
 -17243487.00046 -13359956.22744  22088946.4304                   22088943.7344
 -11270042.33647  -8944227.52345  21974781.0234                   21974777.9344
 -19477953.70747 -15142817.96545  20660594.0084                   20660591.1214
  -9022646.05546  -7023959.49244  21948232.0474                   21948226.5984
 -10399432.89145  -8092803.00843  24012685.2584                   24012684.0554
 -13561482.85547 -10558340.37144  21868080.4924                   21868077.8794
 -16301061.10947 -12692949.28945  21700972.1024                   21700971.4024
 11  8 18  2 42  0.0000000  0  9G26G10G29G12G05G02G15G30G25
 -14629556.63746 -11387177.88743  23104596.4064                   23104593.0864
   2932678.426 5                  24380200.555
 -17295225.46946 -13400271.85944  22079101.1724                   22079097.7464
 -11168534.46147  -8865130.47744  21994096.6644                   21994094.2154
 -19408865.47347 -15088982.97345  20673741.5474                   20673737.8984
  -8955242.94146  -6971437.56644  21961058.3364                   21961053.3554
 -10469845.34845  -8147669.72343  23999285.1414                   23999284.9804
 -13495828.42647 -10507181.05944  21880572.8754                   21880571.1884
 -16254939.67647 -12657010.50845  21709749.0314                   21709748.3874
 11  8 18  2 42 30.0000000  0  9G26G10G29G12G05G02G15G30G25
 -14693838.60946 -11437267.72343  23092364.1954                   23092361.0204
   3066895.844 5                  24405741.750
 -17346821.66446 -13440476.64144  22069281.5164                   22069279.2384
 -11066699.83647  -8785778.82444  22013475.9304                   22013472.5234
 -19339333.82447 -15034802.45745  20686972.9384                   20686969.8554
  -8887762.11746  -6918855.11744  21973898.7734                   21973893.9384
 -10540298.78145  -8202568.41842  23985878.2584                   23985877.2544
 -13429677.41447 -10455634.81244  21893161.8524                   21893158.9804
 -16208280.35547 -12620652.59445  21718628.2114                   21718626.8754
 11  8 18  2 43  0.0000000  0  9G26G10G29G12G05G02G15G30G25
 -14757931.11746 -11487209.87543  23080166.5084                   23080163.4494
   3201173.906 5                  24431293.508
 -17398271.86346 -13480567.64144  22059491.5704                   22059488.8954
 -10964539.71147  -8706173.54744  22032915.5394                   22032912.8134
 -19269359.19547 -14980276.76245  20700288.2034                   20700285.1884
  -8820201.70746  -6866210.62944  21986755.4144                   21986750.5944
 -10610788.77045  -8257495.56242  23972464.9224                   23972463.8014
 -13363030.45347 -10403702.10944  21905843.7974                   21905841.9104
 -16161082.89847 -12583875.34845  21727609.1174                   21727608.6334
 11  8 18  2 43 30.0000000  0  9G26G10G29G12G05G02G15G30G25
 -14821828.27746 -11536999.81643  23068007.2034                   23068005.3954
   3335512.105 5                  24456857.531
 -17449571.73046 -13520541.52344  22049729.7974                   22049726.5314
 -10862055.01247  -8626315.34844  22052418.2114                   22052414.8874
 -19198941.59447 -14925405.89545  20713689.0084                   20713685.4384
  -8752559.47746  -6813502.41444  21999627.8364                   21999622.3324
 -10681310.49245  -8312447.46143  23959046.3594                   23959043.4184
 -13295887.66846 -10351383.06644  21918621.0004                   21918618.2814
 -16113346.57847 -12546678.21945  21736693.6414                   21736692.4614
 11  8 18  2 44  0.0000000  0  9G26G10G29G12G05G02G15G30G25
 -14885530.00446 -11586637.48443  23055885.0704                   23055882.9304
   3469904.941 5                  24482431.727
 -17500722.85946 -13560399.50444  22039995.9614                   22039992.9304
 -10759252.11747  -8546209.20344  22071981.1724                   22071977.6094
 -19128086.72347 -14870194.30945  20727172.2814                   20727168.7584
  -8684839.05547  -6760733.23844  22012514.7664                   22012509.0234
 -10751864.52045  -8367424.56643  23945619.7194                   23945617.3794
 -13228255.03946 -10298682.30144  21931490.4144                   21931487.9964
 -16065076.42247 -12509065.09845  21745878.7734                   21745878.5634
 11  8 18  2 44 30.0000000  0  9G26G10G29G12G05G02G15G30G25
 -14949029.86346 -11636117.81243  23043801.9384                   23043799.5044
   3604352.64815                  24508016.875
 -17551719.95346 -13600137.45344  22030290.5164                   22030288.2424
 -10656131.03546  -8465855.12544  22091604.3754                   22091601.2974
 -19056793.98447 -14814641.51245  20740738.8524                   20740735.5004
  -8617037.23047  -6707900.65244  22025416.2274                   22025411.8324
 -10822445.12546  -8422422.35943  23932188.5634                   23932186.1024
 -13160131.82047 -10245599.26644  21944454.2974                   21944451.7774
 -16016270.78947 -12471034.73445  21755166.0784                   21755165.6454
 11  8 18  2 45  0.0000000  0  9G26G10G29G12G05G02G15G30G25
 -15012323.13746 -11685437.20343  23031757.3364                   23031754.8484
                                  24533612.320
 -17602560.00846 -13639753.02744  22020616.1254                   22020613.6024
 -10552694.04346  -8385254.87944  22111287.3754                   22111285.0314
 -18985064.53947 -14758748.41445  20754388.3444                   20754385.2584
  -8549153.06247  -6655003.89144  22038334.0864                   22038329.2664
 -10893048.65645  -8477437.99643  23918752.5704                   23918751.1994
 -13091519.63746 -10192135.23044  21957511.2734                   21957508.2584
 -15966930.39147 -12432587.66445  21764555.2114                   21764555.0044
 11  8 18  2 45 30.0000000  0  8G26G29G12G05G02G15G30G25
 -15075408.09046 -11734594.27343  23019752.4144                   23019750.6254
 -17653242.82047 -13679246.10545  22010972.1484                   22010969.1764
 -10448945.39847  -8304411.78544  22131030.6484                   22131027.4614
 -18912902.34847 -14702518.12545  20768120.3524                   20768117.1564
  -8481188.23846  -6602044.28944  22051267.9844                   22051262.8094
 -10963674.16045  -8532470.73443  23905313.5164                   23905311.5474
 -13022422.71947 -10138293.46944  21970659.9304                   21970656.8674
 -15917058.65647 -12393726.57445  21774045.6884                   21774045.0904
 11  8 18  2 46  0.0000000  0  9G26G29G12G05G02G15G30G25G21
 -15138280.50846 -11783585.71943  23007788.7194                   23007785.6564
 -17703765.72746 -13718614.56644  22001358.4454                   22001355.3674
 -10344887.93046  -8223328.03944  22150831.7664                   22150828.6454
 -18840308.97747 -14645951.84845  20781934.7584                   20781931.0904
  -8413142.23447  -6549021.42244  22064216.3914                   22064211.3674
 -11034318.27746  -8587518.04743  23891870.1884                   23891868.0744
 -12952842.77046 -10084075.32044  21983899.7814                   21983897.4654
 -15866656.33247 -12354452.02345  21783637.0784                   21783636.0394
  -7924200.31615                  25258031.977
 11  8 18  2 46 30.0000000  0  9G26G29G12G05G02G15G30G25G21
 -15200936.66846 -11832408.63343  22995865.3594                   22995862.9574
 -17754126.30546 -13757856.53144  21991774.1094                   21991771.8284
 -10240524.21947  -8142005.68744  22170691.7194                   22170688.6054
 -18767286.59447 -14589051.28945  20795829.6094                   20795826.6684
  -8345014.89847  -6495935.19144  22077181.0704                   22077175.4344
 -11104978.00446  -8642577.52343  23878423.6414                   23878421.3244
 -12882781.98847 -10029482.50844  21997231.6644                   21997229.6564
 -15815724.92247 -12314765.19145  21793328.4064                   21793327.9184
  -7954852.703 5                  25252199.516
 11  8 18  2 47  0.0000000  0  9G26G29G12G05G02G15G30G25G21
 -15263379.31246 -11881065.20343  22983982.5004                   22983980.1374
 -17804328.70746 -13796975.25844  21982221.5474                   21982218.7194
 -10135863.96146  -8060452.24644  22190607.6024                   22190604.9884
 -18693844.14847 -14531823.39145  20809805.9924                   20809802.4654
  -8276812.36347  -6442790.36344  22090158.8594                   22090154.1334
 -11175656.93746  -8697651.93743  23864974.6564                   23864971.3244
 -12812249.37146  -9974522.02344  22010654.0704                   22010651.5084
 -15764272.32847 -12274672.25845  21803120.0394                   21803119.2274
  -7985505.156 5                  25246365.313
 11  8 18  2 47 30.0000000  0  9G26G29G12G05G02G15G30G25G21
 -15325599.99246 -11929548.77743  22972142.3134                   22972140.0084
 -17854366.14546 -13835965.44944  21972699.4224                   21972696.9184
 -10030904.78946  -7978665.88744  22210581.0704                   22210578.0594
 -18619978.91447 -14474266.05945  20823861.7194                   20823857.6054
  -8208530.16046  -6389583.44944  22103151.8524                   22103147.6024
 -11246347.33646  -8752735.31243  23851522.3754                   23851519.2734
 -12741242.50047  -9919191.98844  22024166.7974                   22024163.7624
 -15712295.44947 -12234170.79345  21813010.7814                   21813010.1254
  -8016153.289 5                  25240533.109
 11  8 18  2 48  0.0000000  0  9G26G29G12G05G02G15G30G25G21
 -15387601.80146 -11977861.82443  22960344.2974                   22960341.4694
 -17904243.34846 -13874830.78144  21963208.9144                   21963205.1914
  -9925657.16047  -7896654.78145  22230608.6334                   22230605.7464
 -18545699.91447 -14416386.30545  20837996.2814                   20837993.1994
  -8140174.47746  -6336319.27744  22116160.6724                   22116155.2194
 -11317053.44946  -8807830.94143  23838066.5784                   23838064.7974
 -12669770.77747  -9863499.73044  22037766.8204                   22037764.5084
 -15659802.74647 -12193267.38345  21823000.1094                   21822999.3954
  -8046804.664 5                  25234701.953
 11  8 18  2 48 30.0000000  0  9G26G29G12G05G02G15G30G25G21
 -15449376.13346 -12025997.61743  22948588.4224                   22948586.7624
 -17953952.71947 -13913565.35245  21953748.6254                   21953745.7034
  -9820118.58646  -7814416.94944  22250691.9534                   22250689.1334
 -18471004.18747 -14358181.82845  20852210.2344                   20852207.2974
  -8071740.31647  -6282993.96544  22129183.0944                   22129178.0164
 -11387767.06645  -8862932.36743  23824610.7194                   23824608.4654
 -12597831.50046  -9807443.14144  22051456.3834                   22051454.2114
 -15606790.68747 -12151959.27745  21833088.0164                   21833086.9734
  -8077454.602 5                  25228867.539
 11  8 18  2 49  0.0000000  0  9G26G29G12G05G02G15G30G25G21
 -15510917.68446 -12073952.03543  22936877.4064                   22936875.5354
 -18003490.87146 -13952166.50045  21944321.7114                   21944319.1804
  -9714290.79746  -7731953.77344  22270830.5634                   22270827.9304
 -18395892.72747 -14299653.42245  20866503.3594                   20866500.7194
  -8003226.23447  -6229606.37144  22142221.3204                   22142215.3324
 -11458484.08246  -8918036.44143  23811154.3754                   23811151.2464
 -12525425.81246  -9751023.12944  22065235.0634                   22065232.1054
 -15553259.53547 -12110246.68045  21843274.0634                   21843273.8054
  -8108102.426 5                  25223036.828
 11  8 18  2 49 30.0000000  0  9G26G29G12G05G02G15G30G25G21
 -15572215.20346 -12121716.27043  22925211.9694                   22925210.7624
 -18052847.90246 -13990626.50845  21934929.5164                   21934926.8364
  -9608169.07046  -7649261.53544  22291024.6884                   22291022.2464
 -18320360.24647 -14240796.92645  20880877.2274                   20880873.9264
  -7934624.21946  -6176150.26244  22155274.4534                   22155270.3524
 -11529193.71146  -8973134.76643  23797697.4384                   23797696.0394
 -12452548.41447  -9694235.54744  22079103.0164                   22079100.8094
 -15499203.22347 -12068124.88745  21853560.7344                   21853560.5944
  -8138740.891 5                  25217204.242
 11  8 18  2 50  0.0000000  0  9G26G29G12G05G02G15G30G25G21
 -15633266.59446 -12169288.75043  22913595.3204                   22913592.9384
 -18102023.02747 -14028944.78145  21925571.5394                   21925569.0354
  -9501757.75846  -7566343.65644  22311274.1564                   22311271.6954
 -18244410.21547 -14181615.07845  20895329.5864                   20895326.3134
  -7865935.89546  -6122626.90244  22168346.2114                   22168341.3754
 -11599894.63346  -9028226.35243  23784244.5704                   23784241.4964
 -12379203.42246  -9637083.59444  22093059.8834                   22093057.5784
 -15444625.05147 -12025596.44145  21863946.9224                   21863946.0234
  -8169372.117 5                  25211376.258
 11  8 18  2 50 30.0000000  0  9G26G29G12G05G02G15G30G25G21
 -15694072.29746 -12216669.77743  22902024.9694                   22902022.2154
 -18151018.10547 -14067122.74644  21916248.6954                   21916245.4694
  -9395064.35247  -7483205.96544  22331577.9774                   22331574.5514
 -18168049.29347 -14122113.05145  20909861.6644                   20909857.9344
  -7797165.32847  -6069039.44144  22181433.0634                   22181427.5354
 -11670588.36345  -9083312.34043  23770791.0704                   23770788.9534
 -12305397.65646  -9579572.62544  22107104.1884                   22107102.6484
 -15389530.94947 -11982665.96945  21874430.9694                   21874430.1214
  -8200000.992 5                  25205547.602
 11  8 18  2 51  0.0000000  0  9G26G29G12G05G02G15G30G25G21
 -15754620.67246 -12263850.27343  22890501.9304                   22890500.0634
 -18199823.12147 -14105152.61345  21906961.1334                   21906958.4144
  -9288083.53546  -7399844.32044  22351935.3054                   22351932.3674
 -18091271.93747 -14062286.53545  20924471.5864                   20924467.9184
  -7728303.91846  -6015381.21944  22194536.3674                   22194531.3364
 -11741263.68745  -9138383.93443  23757342.8054                   23757340.3164
 -12231125.41447  -9521698.12544  22121238.1024                   22121236.0904
 -15333914.46147 -11939328.45345  21885014.5084                   21885014.1294
  -8230620.051 5                  25199722.000
 11  8 18  2 51 30.0000000  0  9G26G29G12G05G02G15G30G25G21
 -15814920.74646 -12310837.31643  22879027.1334                   22879025.8834
 -18248448.44947 -14143042.47345  21897708.2894                   21897704.5044
  -9180831.03146  -7316270.96144  22372344.7974                   22372341.5234
 -18014093.09847 -14002147.17245  20939157.8284                   20939154.3634
  -7659364.40646  -5961662.12944  22207655.8984                   22207650.3674
 -11811930.78546  -9193449.15243  23743895.0944                   23743892.3954
 -12156402.28147  -9463472.32444  22135456.9924                   22135455.3164
 -15277790.18747 -11895595.25045  21895694.8134                   21895693.9884
  -8261242.539 5                  25193892.594
 11  8 18  2 52  0.0000000  0  9G26G29G12G05G02G15G30G25G21
 -15874965.94946 -12357625.71943  22867602.2034                   22867599.5664
 -18296889.04747 -14180788.36345  21888490.2974                   21888486.9654
  -9073307.02746  -7232486.02344  22392806.0704                   22392802.8244
 -17936512.17647 -13941694.48845  20953920.8984                   20953917.7344
  -7590344.05946  -5907880.04744  22220789.4384                   22220784.1994
 -11882583.54746  -9248503.22343  23730449.2424                   23730447.8874
 -12081227.87947  -9404894.87144  22149762.9064                   22149760.4844
 -15221157.10247 -11851465.58245  21906471.6804                   21906470.8524
  -8291866.188 5                  25188067.023
 11  8 18  2 52 30.0000000  0  9G26G29G12G05G02G15G30G25G21
 -15934749.04746 -12404209.92243  22856224.8754                   22856222.3634
 -18345138.99247 -14218385.69145  21879308.6414                   21879305.3404
  -8965511.25846  -7148489.34444  22413318.3364                   22413315.8874
 -17858527.78147 -13880927.41445  20968761.1804                   20968757.3984
  -7521238.85546  -5854031.83644  22233939.5944                   22233935.2624
 -11953215.58246  -9303541.14143  23717009.1024                   23717006.7544
 -12005601.28146  -9345965.06244  22164154.8054                   22164151.7194
 -15164013.40247 -11806938.03145  21917345.7504                   21917345.1914
  -8322488.008 5                  25182238.484
 11  8 18  2 53  0.0000000  0  9G26G29G12G05G02G15G30G25G21
 -17569691.10946 -13678190.71543  22545105.6804                   22545103.0164
 -19968620.22347 -15483435.97345  21570370.3444                   21570367.2234
 -10432865.51246  -8291882.29344  22134089.9844                   22134087.4774
 -19355562.48447 -15047447.94945  20683885.2274                   20683881.7034
  -9027469.14546  -7027717.78144  21947314.3984                   21947308.6374
 -13599248.99246 -10586164.52743  23403779.9304                   23403777.2704
 -13504945.14146 -10514284.95344  21878838.3524                   21878836.3164
 -16681781.61347 -12989614.56645  21628523.1954                   21628523.0434
  -9928532.500 5                  24876619.008
 11  8 18  2 53 30.0000000  0  9G26G29G12G05G02G15G30G25G21
 -17628941.94946 -13724360.18443  22533830.7974                   22533828.3204
 -20016484.96147 -15520733.13345  21561262.0554                   21561258.5634
 -10324537.55946  -8207470.92244  22154704.6804                   22154701.6024
 -19276781.20747 -14986059.94145  20698876.6024                   20698873.2814
  -8958196.73446  -6973739.29344  21960496.3834                   21960490.5354
 -13669833.62946 -10641165.51643  23390347.1174                   23390345.6454
 -13428424.64146 -10454658.61744  21893399.7344                   21893396.8794
 -16623624.92247 -12944297.67245  21639590.1954                   21639590.0434
  -9959155.527 5                  24870789.930
 11  8 18  2 54  0.0000000  0  9G26G29G12G05G02G15G30G25G21
 -17687924.04746 -13770320.21543  22522605.9224                   22522603.5704
 -20064156.78947 -15557879.96544  21552190.5164                   21552186.8674
 -10215951.27046  -8122858.24644  22175367.9844                   22175365.0354
 -19197607.89147 -14924366.43745  20713942.8204                   20713939.3134
  -8888843.32047  -6919697.68444  21973693.6174                   21973688.4144
 -13740392.94546 -10696146.74243  23376921.3364                   23376918.4734
 -13351464.16446 -10394689.41844  21908044.4534                   21908042.3554
 -16564967.48847 -12898590.58645  21650752.8204                   21650751.9964
  -9989782.578 5                  24864963.523
 11  8 18  2 54 30.0000000  0  9G26G29G12G05G02G15G30G25G21
 -17746630.73446 -13816065.65643  22511435.4694                   22511432.6724
 -20111630.27047 -15594872.25445  21543156.2974                   21543152.9144
 -10107106.37146  -8038044.08644  22196080.8834                   22196077.9774
 -19118042.34847 -14862367.30545  20729083.8204                   20729080.0944
  -8819405.79346  -6865590.51644  21986907.0634                   21986902.0394
 -13810921.35246 -10751103.89543  23363499.3754                   23363496.3914
 -13274063.46546 -10334377.22344  21922773.5864                   21922771.3054
 -16505808.26247 -12852492.49645  21662010.3204                   21662009.3284
 -10020411.781 5                  24859134.570
 11  8 18  2 55  0.0000000  0  9G26G29G12G05G02G15G30G25G21
 -17805061.20746 -13861595.86743  22500316.3364                   22500313.5784
 -20158905.98447 -15631710.42245  21534159.6254                   21534156.8094
  -9998008.63346  -7953032.87544  22216841.1334                   22216837.8874
 -19038088.97347 -14800065.96945  20744297.9224                   20744294.4614
  -8749886.82846  -6811419.90244  22000136.3364                   22000131.0084
 -13881418.35546 -10806036.57443  23350084.4844                   23350081.9844
 -13196227.82446 -10273726.09844  21937584.7504                   21937583.7304
 -16446151.69947 -12806006.87945  21673362.0314                   21673361.5824
 -10051046.172 5                  24853303.914
 11  8 18  2 55 30.0000000  0  9G26G29G12G05G02G15G30G25G21
 -17863213.03146 -13906908.96143  22489250.1644                   22489247.8324
 -20205983.07847 -15668393.82444  21525201.0944                   21525198.3524
  -9888662.61346  -7867828.21544  22237648.6174                   22237645.7464
 -18957751.45747 -14737465.31645  20759586.0164                   20759582.3914
  -8680287.28946  -6757186.50444  22013380.1804                   22013375.4064
 -13951882.22345 -10860943.41843  23336675.1414                   23336673.0744
 -13117961.30146 -10212739.21544  21952479.1644                   21952476.8094
 -16386001.17647 -12759136.37545  21684809.1804                   21684808.6484
 -10081687.746 5                  24847472.344
 11  8 18  2 56  0.0000000  0  9G26G29G12G05G02G15G30G25G21
 -17921075.36346 -13951996.43043  22478239.8914                   22478236.9844
 -20252852.02047 -15704915.03545  21516282.4614                   21516279.4924
  -9779064.21546  -7782426.89844  22258505.1174                   22258501.7704
 -18877025.64547 -14674562.07045  20774946.8054                   20774943.9344
  -8610599.96546  -6702884.69544  22026641.0314                   22026635.6254
 -14022303.23046 -10915816.85943  23323274.8674                   23323271.5984
 -13039259.50046 -10151413.14144  21967455.0864                   21967453.1134
 -16325351.60947 -12711876.96945  21696349.8524                   21696350.1414
 -10112330.020 5                  24841643.945
 11  8 18  2 56 30.0000000  0  9G26G29G12G05G02G15G30G25G21
 -17978646.99646 -13996857.41443  22467283.9454                   22467280.8634
 -20299512.86747 -15741274.08645  21507403.0474                   21507400.2734
  -9669218.80946  -7696833.07844  22279408.0084                   22279404.9024
 -18795915.63347 -14611359.46945  20790382.1804                   20790378.5864
  -8540827.30546  -6648516.41044  22039919.3444                   22039913.6724
 -14092680.54746 -10970656.28143  23309882.3204                   23309878.6884
 -12960127.50446 -10089751.87544  21982513.7114                   21982511.6024
 -16264207.18847 -12664231.98845  21707985.3444                   21707985.0634
 -10142975.809 5                  24835808.953
 11  8 18  2 57  0.0000000  0  9G26G29G12G05G02G15G30G25G21
 -18035922.05146 -14041487.29343  22456384.6094                   22456381.8874
 -20345961.16447 -15777467.53145  21498564.4534                   21498561.3014
  -9559127.49246  -7611047.66444  22300357.5084                   22300354.2464
 -18714422.12947 -14547858.02345  20805889.8834                   20805886.3874
  -8470966.40246  -6594079.34844  22053212.9064                   22053207.4964
 -14163008.94546 -11025457.55143  23296500.3134                   23296496.5744
 -12880565.83646 -10027755.78544  21997654.1644                   21997651.8324
 -16202567.77347 -12616201.28945  21719715.0394                   21719714.5634
 -10173623.590 5                  24829977.383
 11  8 18  2 57 30.0000000  0  9G26G29G12G05G02G15G30G25G21
 -18092903.55546 -14085888.41843  22445541.6484                   22445538.4224
 -20392201.43047 -15813498.85945  21489764.7344                   21489761.9734
  -9448799.81646  -7525078.07844  22321351.9384                   22321349.2304
 -18632553.95747 -14484064.65245  20821469.0474                   20821465.6214
  -8401023.96546  -6539578.75444  22066522.2504                   22066516.9224
 -14233292.28946 -11080223.72743  23283124.7974                   23283121.9964
 -12800584.19946  -9965432.45744  22012873.2814                   22012871.5744
 -16140442.23047 -12567791.79745  21731537.0234                   21731536.9304
 -10204280.563 5                  24824145.492
 11  8 18  2 58  0.0000000  0  9G26G29G12G05G02G15G30G25G21
 -18149585.73046 -14130056.30543  22434754.0234                   22434752.7704
 -20438229.21147 -15849364.62145  21481005.8594                   21481003.5594
  -9338236.63746  -7438924.96144  22342391.4304                   22342389.0164
 -18550311.36347 -14419979.50845  20837118.7114                   20837115.8984
  -8330997.53946  -6485012.69944  22079847.9924                   22079842.7854
 -14303525.68846 -11134950.97343  23269758.7894                   23269756.4224
 -12720182.91046  -9902782.10944  22028173.9614                   22028171.3244
 -16077830.31347 -12519003.30945  21743451.7194                   21743451.1094
 -10234945.289 5                  24818308.898
 11  8 18  2 58 30.0000000  0  9G26G29G12G05G02G15G30G25G21
 -18205965.46546 -14173988.51643  22424025.2194                   22424023.5784
 -20484042.89847 -15885063.56245  21472287.9534                   21472285.5394
  -9227441.73446  -7352591.28944  22363475.0634                   22363472.0944
 -18467697.57447 -14355605.13345  20852840.0164                   20852836.5634
  -8260887.62546  -6430381.60544  22093189.7814                   22093184.4964
 -14373706.43446 -11189637.21143  23256404.5554                   23256401.5664
 -12639365.53146  -9839807.55544  22043552.9304                   22043550.5864
 -16014734.59447 -12469837.84445  21755458.8284                   21755458.1414
 -10265618.766 5                  24812473.398
 11  8 18  2 59  0.0000000  0  9G26G29G12G05G02G15G30G25G21
 -18262037.11746 -14217680.68043  22413356.5164                   22413353.7424
 -20529637.86747 -15920592.08245  21463611.8054                   21463608.4574
  -9116415.77346  -7266077.58244  22384603.0004                   22384600.1914
 -18384712.74247 -14290941.62545  20868631.2424                   20868628.2034
  -8190691.69946  -6375683.48844  22106547.3674                   22106542.8634
 -14443829.22746 -11244278.23443  23243060.8054                   23243057.7424
 -12558132.56646  -9776509.16444  22059010.9694                   22059008.9144
 -15951155.03547 -12420295.32845  21767557.5234                   21767557.4614
 -10296299.234 5                  24806634.180
 11  8 18  2 59 30.0000000  0  9G26G29G12G05G02G15G30G25G21
 -18317801.16846 -14261133.14843  22402743.6484                   22402741.8404
 -20575016.09047 -15955951.70345  21454976.4924                   21454973.7544
  -9005166.28946  -7179389.68444  22405772.9774                   22405770.5004
 -18301363.47747 -14225994.14545  20884492.0314                   20884489.0864
  -8120413.94146  -6320921.59844  22119920.9694                   22119915.6134
 -14513895.70346 -11298875.42643  23229727.0164                   23229724.1414
 -12476491.16046  -9712892.50444  22074546.7814                   22074544.5944
 -15887098.04347 -12370380.80545  21779746.9144                   21779746.6254
 -10326991.648 5                  24800792.539
 11  8 18  3  0  0.0000000  0  9G26G29G12G05G02G15G30G25G21
 -18373257.84046 -14304346.09843  22392191.4304                   22392189.0634
 -20620178.80147 -15991143.39545  21446382.7584                   21446379.4734
  -8893700.21146  -7092533.03544  22426983.5004                   22426981.6454
 -18217655.83647 -14160767.41845  20900420.9694                   20900417.6724
  -8050057.99246  -6266098.79344  22133309.4614                   22133303.9064
 -14583906.39546 -11353429.15243  23216404.6334                   23216401.8634
 -12394447.85946  -9648962.67644  22090158.5864                   22090156.7854
 -15822569.38347 -12320098.75045  21792025.9384                   21792026.1484
 -10357700.586 5                  24794949.875
 11  8 18  3  0 30.0000000  0  9G26G29G12G05G02G15G30G25G21
 -18428392.06246 -14347307.77343  22381699.5394                   22381697.6994
 -20665112.87947 -16026156.94145  21437831.6564                   21437828.4454
  -8782009.13746  -7005501.04744  22448238.5634                   22448235.3094
 -18133581.18447 -14095254.69545  20916420.5004                   20916416.4534
  -7979612.11346  -6211205.89544  22146714.4534                   22146709.6564
 -14653847.54346 -11407928.68043  23203095.4774                   23203092.3594
 -12311994.40246  -9584713.25444  22105849.4614                   22105846.9774
 -15757560.18447 -12269442.24645  21804397.6884                   21804396.7464
 -10388415.316 5                  24789103.578
 11  8 18  3  1  0.0000000  0  9G26G29G12G05G02G15G30G25G21
 -18483205.32046 -14390019.36743  22371268.9224                   22371267.1294
 -20709820.46547 -16060994.00845  21429324.5164                   21429320.7894
  -8670101.24646  -6918300.08244  22469533.6254                   22469530.3674
 -18049147.19147 -14029461.98445  20932487.5704                   20932484.1334
  -7909080.91446  -6156246.52344  22160136.6174                   22160131.3204
 -14723720.35246 -11462374.96943  23189799.1884                   23189796.2734
 -12229138.37146  -9520150.14144  22121616.3204                   22121615.0004
 -15692077.30547 -12218416.64145  21816858.4144                   21816857.9844
 -10419141.441 5                  24783257.430
 11  8 18  3  1 30.0000000  0  9G26G29G12G05G02G15G30G25G21
 -18537690.41846 -14432475.25444  22360900.8284                   22360898.8484
 -20754296.08247 -16095650.32045  21420860.3984                   21420857.6414
  -8557975.97346  -6830929.76244  22490870.6644                   22490867.2034
 -17964352.42247 -13963388.13745  20948623.2424                   20948619.6604
  -7838460.99246  -6101218.01644  22173574.4924                   22173569.9494
 -14793518.59846 -11516763.12543  23176516.6724                   23176513.8984
 -12145879.22746  -9455272.89544  22137460.5004                   22137457.6684
 -15626119.44547 -12167020.91045  21829409.3364                   21829408.9494
 -10449875.574 5                  24777408.617
 11  8 18  3  2  0.0000000  0  9G26G29G12G05G02G15G30G25G21
 -18591842.88746 -14474671.92244  22350595.6564                   22350593.5634
 -20798536.67247 -16130123.48445  21412442.1804                   21412438.8134
  -8445635.77746  -6743391.96144  22512247.9454                   22512245.4694
 -17879198.19147 -13897034.18745  20964827.5314                   20964824.5664
  -7767750.88346  -6046119.24644  22187030.7114                   22187025.3554
 -14863238.41446 -11571090.19543  23163249.0164                   23163246.5554
 -12062218.91446  -9390083.05944  22153381.0234                   22153378.0864
 -15559687.93047 -12115256.11745  21842051.1484                   21842050.8404
 -10480617.625 5                  24771559.547
 11  8 18  3  2 30.0000000  0  9G26G29G12G05G02G15G30G25G21
 -18645661.54746 -14516608.50443  22340355.1564                   22340352.6844
 -20842541.98047 -16164413.32845  21404068.1954                   21404064.5044
  -8333085.95746  -6655690.82444  22533665.6334                   22533661.9344
 -17793689.71947 -13830404.20745  20981099.5164                   20981096.2584
  -7696952.70746  -5990951.84844  22200503.2814                   22200497.7114
 -14932878.95746 -11625355.48843  23149997.0554                   23149994.6604
 -11978162.87546  -9324584.85244  22169376.1564                   22169373.6054
 -15492787.49247 -12063125.91045  21854781.6024                   21854781.7194
 -10511370.641 5                  24765705.641
 11  8 18  3  3  0.0000000  0  9G26G29G12G05G02G15G30G25G21
 -18699143.62546 -14558282.80944  22330177.3834                   22330175.2234
 -20886310.99647 -16198519.04745  21395739.0634                   21395736.1954
  -8220330.44946  -6567829.39544  22555122.4144                   22555119.3204
 -17707830.10947 -13763500.61745  20997437.4844                   20997434.3364
  -7626067.09446  -5935716.32044  22213990.7504                   22213987.2584
 -15002438.44146 -11679557.63743  23136761.3524                   23136758.5124
 -11893714.68046  -9258781.08644  22185445.2974                   22185443.4804
 -15425421.11747 -12010632.63344  21867600.9774                   21867600.8094
 -10542135.922 5                  24759850.898
 11  8 18  3  3 30.0000000  0  9G26G29G12G05G02G15G30G25G21
 -18752289.02346 -14599694.80944  22320064.1804                   22320062.0084
 -20929844.70747 -16232441.42245  21387454.6094                   21387451.8444
  -8107376.23046  -6479813.13744  22576616.6174                   22576613.8054
 -17621625.35247 -13696328.07845  21013842.2114                   21013838.7664
  -7555097.48446  -5880415.32044  22227497.3754                   22227491.9344
 -15071917.31646 -11733696.93043  23123538.6724                   23123536.7814
 -11808880.90646  -9192676.87544  22201588.8834                   22201586.6604
 -15357594.62147 -11957780.83245  21880508.1024                   21880508.1484
 -10572917.629 5                  24753995.000
 11  8 18  3  4  0.0000000  0  9G26G29G12G05G02G15G30G25G21
 -18805085.86746 -14640835.16044  22310017.5704                   22310015.3444
 -20973132.25847 -16266171.97345  21379216.9774                   21379214.7154
  -7994217.48446  -6391637.52044  22598150.5474                   22598146.8674
 -17535069.74247 -13628882.15245  21030313.0784                   21030310.2304
  -7484035.27746  -5825042.18444  22241019.7194                   22241014.6884
 -15141304.00446 -11787764.43443  23110334.5394                   23110332.4654
 -11723656.03946  -9126267.87544  22217806.5474                   22217803.9144
 -15289301.78147 -11904565.63745  21893503.7664                   21893503.8284
 -10603707.887 5                  24748134.875
 11  8 18  3  4 30.0000000  0  9G26G29G12G05G02G15G30G25G21
 -18857534.05146 -14681703.82444  22300036.2274                   22300033.8444
 -21016174.81247 -16299711.62545  21371026.4304                   21371023.9494
  -7880860.95346  -6303307.74644  22619721.4774                   22619718.7664
 -17448169.23447 -13561167.46545  21046849.9694                   21046845.8244
  -7412883.54746  -5769599.29744  22254559.9304                   22254554.3874
 -15210598.88746 -11841760.38743  23097148.2814                   23097145.8204
 -11638046.52046  -9059559.17244  22234098.0554                   22234094.9494
 -15220548.49247 -11850991.65245  21906586.6884                   21906587.3324
 -10634510.836 5                  24742271.555
 11  8 18  3  5  0.0000000  0  9G26G29G12G05G02G15G30G25G21
 -18909634.68046 -14722301.68444  22290122.1564                   22290120.2344
 -21058974.99247 -16333062.39845  21362881.9774                   21362878.8594
  -7767314.63746  -6214830.13344  22641328.1414                   22641325.3444
 -17360930.98047 -13493189.60945  21063450.2424                   21063447.5044
  -7341646.83246  -5714090.19144  22268115.4144                   22268110.3954
 -15279803.88746 -11895686.30143  23083979.4844                   23083976.4534
 -11552060.10946  -8992556.77344  22250460.3204                   22250457.4694
 -15151341.83247 -11797064.40245  21919756.8054                   21919756.3914
 -10665331.754 5                  24736408.391
 11  8 18  3  5 30.0000000  0  9G26G29G12G05G02G15G30G25G21
 -18961381.57446 -14762623.92644  22280276.3594                   22280273.1844
 -21101527.62147 -16366220.29745  21354784.6174                   21354781.8714
  -7653579.14146  -6126205.10544  22662972.3134                   22662968.9804
 -17273354.70347 -13424948.35945  21080115.7734                   21080112.5124
  -7270322.23846  -5658512.58644  22281688.2584                   22281682.7504
 -15348913.30546 -11949537.75443  23070827.5004                   23070825.2734
 -11465697.07846  -8925260.93044  22266895.0554                   22266892.7624
 -15081681.41047 -11742783.55145  21933012.7894                   21933012.1294
 -10696168.51615                  24730541.063
 11  8 18  3  6  0.0000000  0  9G26G29G12G05G02G15G30G25G21
 -19012767.37146 -14802664.77044  22270497.5554                   22270494.6374
 -21143826.74247 -16399180.63745  21346735.0704                   21346732.2424
  -7539653.44546  -6037431.84444  22684651.4774                   22684648.1024
 -17185439.08247 -13356442.67245  21096845.8054                   21096842.4024
  -7198905.54746  -5602863.21944  22295277.9304                   22295273.4144
 -15417920.27046 -12003309.35943  23057696.8364                   23057693.8754
 -11378956.58246  -8857670.95344  22283401.5634                   22283398.3164
 -15011565.78947 -11688148.01245  21946355.4144                   21946355.0824
 -10727017.887 5                  24724669.703
 11  8 18  3  6 30.0000000  0  9G26G29G12G05G02G15G30G25G21
 -19063792.32046 -14842424.43043  22260787.0234                   22260784.7624
 -21185873.52747 -16431944.36345  21338734.7584                   21338731.1374
  -7425544.68046  -5948515.93044  22706365.1414                   22706362.4384
 -17097190.37947 -13287677.45345  21113639.0784                   21113635.4964
  -7127400.33246  -5547144.88744  22308884.8204                   22308879.8714
 -15486825.52346 -12057001.73443  23044584.6094                   23044581.6054
 -11291845.51246  -8789792.21144  22299978.1254                   22299974.8594
 -14941001.20347 -11633162.63345  21959783.8914                   21959783.2704
 -10757884.281 5                  24718795.195
 11  8 18  3  7  0.0000000  0  9G26G29G12G05G02G15G30G25G21
 -19114457.68046 -14881903.88743  22251145.7814                   22251142.9304
 -21227670.69947 -16464513.57845  21330780.0314                   21330777.5514
  -7311260.85246  -5859463.62544  22728113.0234                   22728109.2424
 -17008616.18747 -13218658.59045  21130493.6644                   21130490.4884
  -7055811.35546  -5491361.28144  22322508.4224                   22322502.5704
 -15555630.97746 -12110616.30943  23031491.1414                   23031488.3874
 -11204371.71546  -8721630.79744  22316623.4064                   22316621.1454
 -14869994.85947 -11577833.03144  21973295.5394                   21973295.1644
 -10788773.145 5                  24712918.508
 11  8 18  3  7 30.0000000  0  9G26G29G12G05G02G15G30G25G21
 -19164748.57046 -14921091.57843  22241576.2664                   22241572.8324
 -21269204.88347 -16496877.87145  21322876.5234                   21322873.7114
  -7196793.48446  -5770268.30544  22749895.0314                   22749892.5704
 -16919707.40647 -13149379.02745  21147412.7584                   21147409.7894
  -6984126.76646  -5435503.19944  22336149.1644                   22336144.0704
 -15624322.37946 -12164142.03543  23018419.3754                   23018416.6024
 -11116526.73446  -8653180.19544  22333339.6884                   22333337.3484
 -14798537.88347 -11522152.28544  21986893.2194                   21986893.2934
 -10819673.66445  -8420010.04353  24707037.0394                   24707037.2974
 11  8 18  3  8  0.0000000  0  9G26G29G12G05G02G15G30G25G21
 -19214670.01246 -14959991.35544  22232076.3754                   22232073.2424
 -21310481.97747 -16529041.83245  21315022.0944                   21315018.8554
  -7082154.27046  -5680939.04744  22771710.5944                   22771707.3244
 -16830475.14547 -13079847.38345  21164392.9454                   21164390.0234
  -6912354.69546  -5379576.92244  22349806.8364                   22349802.2424
 -15692904.75046 -12217582.80143  23005368.3754                   23005365.3594
 -11028322.18446  -8584449.39844  22350124.1564                   22350122.3594
 -14726641.02047 -11466128.75844  22000574.5554                   22000574.3204
 -10850594.77746  -8444104.32042  24701153.0784                   24701150.3794
 11  8 18  3  8 30.0000000  0  9G26G29G12G05G02G15G30G25G21
 -19264219.32846 -14998601.18743  22222647.0784                   22222644.2734
 -21351500.41847 -16561004.24245  21307216.4534                   21307213.3594
  -6967347.19946  -5591479.01644  22793556.9924                   22793554.5984
 -16740922.65647 -13010066.21545  21181434.0944                   21181430.9534
  -6840495.90246  -5323583.07844  22363481.1884                   22363475.7664
 -15761376.10246 -12270937.04744  22992338.7814                   22992336.6334
 -10939761.94546  -8515441.43444  22366976.4774                   22366974.7424
 -14654307.67247 -11409765.13345  22014339.2274                   22014338.7934
 -10881537.84446  -8468215.72742  24695265.2894                   24695261.3444
 11  8 18  3  9  0.0000000  0  9G26G29G12G05G02G15G30G25G21
 -19313387.00446 -15036913.63744  22213291.0554                   22213287.6254
 -21392252.13747 -16592758.82445  21299461.2584                   21299458.2114
  -6852369.10646  -5501885.70544  22815437.4224                   22815433.7384
 -16651046.42647 -12940032.78945  21198537.0554                   21198533.6954
  -6768543.83246  -5267516.54344  22377173.6414                   22377168.0784
 -15829727.24646 -12324197.62143  22979332.2114                   22979328.5314
 -10850842.95746  -8446153.93044  22383897.7344                   22383895.6684
 -14581534.26247 -11353058.57845  22028187.7814                   22028187.1844
 -10912497.56346  -8492340.07442  24689373.3524                   24689369.4884
 11  8 18  3  9 30.0000000  0 10G26G18G29G12G05G02G15G30G25G21
 -19362174.27746 -15074929.65643  22204006.4224                   22204003.9574
  -9577940.32015                  24680484.492
 -21432739.32047 -16624307.26645  21291757.4774                   21291753.9884
  -6737228.18846  -5412165.53544  22837348.1414                   22837345.1724
 -16560853.77747 -12869752.79745  21215700.1174                   21215696.3524
  -6696503.13346  -5211380.93844  22390882.9064                   22390877.8054
 -15897960.05546 -12377365.99243  22966348.1884                   22966344.4064
 -10761573.08246  -8376593.01244  22400886.3054                   22400883.5234
 -14508327.96547 -11296014.70745  22042119.0084                   22042118.0784
 -10943478.94546  -8516481.36742  24683476.9614                   24683473.4184
 11  8 18  3 10  0.0000000  0 10G26G18G29G12G05G02G15G30G25G21
 -19410576.75846 -15112645.84444  22194796.1804                   22194793.5394
  -9641939.215 5                  24668305.938
 -21472958.80147 -16655647.10245  21284103.3364                   21284100.2934
  -6621926.57046  -5322320.12544  22859288.3284                   22859286.0234
 -16470346.21547 -12799227.42245  21232923.5394                   21232919.8204
  -6624372.56346  -5155175.31344  22404608.1644                   22404603.0904
 -15966070.37946 -12430438.89843  22953386.1804                   22953383.7934
 -10671954.53946  -8306760.37944  22417939.1884                   22417936.9024
 -14434690.43047 -11238634.84445  22056130.8054                   22056130.7504
 -10974481.84845  -8540639.37542  24677578.8364                   24677573.5204
 11  8 18  3 10 30.0000000  0 10G26G18G29G12G05G02G15G30G25G21
 -19458590.93746 -15150059.46144  22185659.0474                   22185656.9734
  -9705779.695 5                  24656157.047
 -21512908.44547 -16686776.68445  21276501.0004                   21276498.0394
  -6506467.92646  -5232352.35944  22881259.7974                   22881257.0704
 -16379526.54347 -12728458.82445  21250205.5234                   21250202.5944
  -6552152.09846  -5098899.65244  22418350.8444                   22418346.0984
 -16034055.16446 -12483414.03143  22940449.7814                   22940446.8134
 -10581990.43046  -8236658.51243  22435058.6954                   22435056.2704
 -14360624.22747 -11180920.95744  22070225.3754                   22070225.7704
 -11005506.75045  -8564814.61342  24671674.4534                   24671669.6334
 11  8 18  3 11  0.0000000  0 10G26G18G29G12G05G02G15G30G25G21
 -19506219.11746 -15187172.27044  22176595.4924                   22176593.1844
  -9769466.254 5                  24644038.977
 -21552591.52347 -16717698.54745  21268949.7584                   21268946.6804
  -6390860.54746  -5142268.70344  22903258.5164                   22903255.8714
 -16288402.83647 -12657453.34445  21267546.0394                   21267542.9344
  -6479846.98446  -5042558.00944  22432110.7504                   22432105.3134
 -16101917.55146 -12536293.74243  22927536.3984                   22927532.8134
 -10491689.46946  -8166294.13744  22452242.6804                   22452239.7894
 -14286137.51247 -11122879.37144  22084399.9534                   22084399.9224
 -11036560.16845  -8589011.96142  24665764.8364                   24665759.7194
 11  8 18  3 11 30.0000000  0 10G26G18G29G12G05G02G15G30G25G21
 -19553444.82446 -15223971.49244  22167609.2814                   22167605.7154
  -9832984.887 5                  24631950.523
 -21591992.74247 -16748400.78545  21261451.8284                   21261448.9694
  -6275094.75846  -5052061.60244  22925288.9694                   22925285.4804
 -16196964.69947 -12586202.85545  21284945.5314                   21284941.9344
  -6407443.92246  -4986140.04744  22445888.3674                   22445884.0744
 -16169641.39846 -12589065.52743  22914648.4774                   22914645.3404
 -10401041.91446  -8095659.68044  22469492.1094                   22469489.7854
 -14211219.98047 -11064502.10545  22098655.7894                   22098655.8094
 -11067629.55145  -8613221.76642  24659851.5554                   24659847.3594
 11  8 18  3 12  0.0000000  0 10G26G18G29G12G05G02G15G30G25G21
 -19600272.15646 -15260460.28544  22158697.7194                   22158695.2344
  -9896341.559 5                  24619894.734
 -21631117.21147 -16778887.38345  21254007.2814                   21254003.8204
  -6159181.06646  -4961739.26243  22947346.3284                   22947343.7034
 -16105222.48847 -12514715.40645  21302404.0314                   21302400.4654
  -6334950.01646  -4929651.33244  22459684.2344                   22459678.5514
 -16237230.98446 -12641732.69543  22901786.7894                   22901783.9184
 -10310058.46546  -8024763.48044  22486805.8444                   22486803.1334
 -14135881.71147 -11005796.98044  22112992.5234                   22112992.2504
 -11098723.08245  -8637450.41842  24653936.0634                   24653930.4694
 11  8 18  3 12 30.0000000  0 10G26G18G29G12G05G02G15G30G25G21
 -19646694.21946 -15296633.31244  22149864.1644                   22149862.1054
  -9959531.645 5                  24607869.406
 -21669959.24647 -16809153.89145  21246615.0634                   21246612.7974
  -6043118.94546  -4871301.25843  22969432.7504                   22969429.1804
 -16013174.73447 -12442989.87545  21319920.0234                   21319916.7384
  -6262361.61346  -4873088.95344  22473496.9304                   22473491.4574
 -16304679.74246 -12694290.11343  22888951.6254                   22888949.1454
 -10218738.55146  -7953605.10544  22504183.0474                   22504180.9574
 -14060121.57447 -10946763.12144  22127409.8284                   22127408.8324
 -11129837.52745  -8661695.32842  24648013.9614                   24648010.5314
 11  8 18  3 13  0.0000000  0 10G26G18G29G12G05G02G15G30G25G21
 -19692702.27346 -15332483.69144  22141108.6804                   22141106.6804
 -10022548.715 4                  24595878.273
 -21708510.94547 -16839194.15645  21239278.6644                   21239276.1644
  -5926906.45346  -4780746.06344  22991547.1724                   22991544.1334
 -15920818.55547 -12371024.02045  21337494.8054                   21337491.6484
  -6189672.89846  -4816448.41044  22487328.9224                   22487324.0474
 -16371979.53946 -12746731.47343  22876144.3754                   22876141.8984
 -10127079.93446  -7882182.82444  22521625.4224                   22521623.7344
 -13983936.99247 -10887398.53145  22141906.5704                   22141906.7854
 -11160967.95745  -8685952.70342  24642091.3674                   24642086.4844
 11  8 18  3 13 30.0000000  0 10G26G18G29G12G05G02G15G30G25G21
 -19738297.74246 -15368012.59844  22132432.6174                   22132429.1604
                                  24583916.906
 -21746774.97747 -16869010.27345  21231997.7504                   21231994.7664
  -5810551.31646  -4690079.74644  23013688.5394                   23013685.4494
 -15828161.43047 -12298823.67245  21355126.9774                   21355123.5864
  -6116888.40246  -4759733.22344  22501179.2194                   22501173.7974
 -16439131.60546 -12799057.71943  22863365.9454                   22863362.5004
 -10035090.64146  -7810502.87544  22539130.5554                   22539127.7074
 -13907335.30947 -10827708.92244  22156484.0164                   22156483.4104
 -11192120.48045  -8710227.32442  24636162.6954                   24636158.9064
 11  8 18  3 14  0.0000000  0 10G26G18G29G12G05G02G15G30G25G21
 -19783484.97746 -15403223.38344  22123833.7194                   22123830.3324
 -10148080.87115                  24571987.406
 -21784756.86747 -16898606.54345  21224770.8834                   21224766.9734
  -5694064.59446  -4599310.90243  23035855.0704                   23035852.3714
 -15735213.77347 -12226396.92245  21372814.4534                   21372810.4844
  -6044015.71946  -4702949.36344  22515046.4774                   22515041.5234
 -16506141.12146 -12851272.88343  22850614.0004                   22850611.5634
  -9942781.61746  -7738573.78144  22556696.9144                   22556693.9184
 -13830326.98847 -10767702.46944  22171137.6094                   22171137.3954
 -11223302.84445  -8734525.15642  24630227.5944                   24630225.2344
 11  8 18  3 14 30.0000000  0 10G26G18G29G12G05G02G15G30G25G21
 -19828260.44946 -15438113.35944  22115313.5164                   22115310.9304
 -10210601.375 5                  24560091.039
 -21822454.53547 -16927981.33245  21217596.5634                   21217593.5474
  -5577449.66846  -4508442.12943  23058045.9614                   23058043.0554
 -15641978.25447 -12153745.85945  21390556.0634                   21390552.8954
  -5971054.74246  -4646096.68044  22528930.4454                   22528925.4024
 -16573005.00046 -12903374.57443  22837890.9694                   22837888.2504
  -9850156.10246  -7666398.07444  22574322.2194                   22574320.0594
 -13752914.75847 -10707381.25044  22185868.9304                   22185868.7424
 -11254515.69945  -8758846.83643  24624288.8054                   24624285.6094
 11  8 18  3 15  0.0000000  0 10G26G18G29G12G05G02G15G30G25G21
 -19872605.93446 -15472668.23444  22106874.8054                   22106871.6524
 -10272941.480 5                  24548227.547
 -21859850.21547 -16957120.81245  21210480.9224                   21210477.4924
  -5460694.34046  -4417463.98043  23080263.5084                   23080261.0164
 -15548441.95347 -12080860.43045  21408355.5164                   21408352.0044
  -5897989.87146  -4589163.04744  22542835.2734                   22542829.1134
 -16639704.90246 -12955348.45744  22825198.1174                   22825196.1644
  -9757202.12146  -7593966.39843  22592010.4844                   22592008.1174
 -13675086.06347 -10646735.54344  22200679.2114                   22200679.0124
 -11285744.45345  -8783180.83642  24618347.0164                   24618343.2154
 11  8 18  3 15 30.0000000  0 10G26G18G29G12G05G02G15G30G25G21
 -19916524.29746 -15506890.30544  22098516.7664                   22098514.3874
 -10335106.258 5                  24536398.430
 -21896948.23447 -16986028.35245  21203421.1334                   21203417.6454
  -5343808.13746  -4326383.82444  23102506.7734                   23102503.9384
 -15454614.24247 -12007747.91845  21426210.8054                   21426207.0664
  -5824827.10546  -4532153.12543  22556756.7274                   22556752.0004
 -16706244.26246 -13007197.27044  22812535.8984                   22812532.9804
  -9663929.18446  -7521286.20344  22609760.0784                   22609757.2464
 -13596850.05947 -10585772.44944  22215566.7664                   22215566.4844
 -11316996.24646  -8807532.83242  24612399.2974                   24612395.9104
 11  8 18  3 16  0.0000000  0 10G26G18G29G12G05G02G15G30G25G21
 -19960014.10246 -15540778.44944  22090241.0864                   22090237.9614
 -10397096.871 5                  24524603.805
 -21933748.16047 -17014703.59845  21196418.1954                   21196414.7544
  -5226796.02046  -4235205.59843  23124771.8204                   23124770.9184
 -15360499.38347 -11934411.66845  21444120.0784                   21444117.1454
  -5751568.00846  -4475068.13744  22570698.3834                   22570692.7274
 -16772622.10546 -13058920.22343  22799904.6024                   22799901.6214
  -9570342.60546  -7448361.60543  22627569.1334                   22627566.6884
 -13518211.39547 -10524495.57844  22230531.6724                   22230531.2664
 -11348273.22745  -8831904.47343  24606448.5474                   24606444.3324
 11  8 18  3 16 30.0000000  0 10G26G18G29G12G05G02G15G30G25G21
 -20003070.78546 -15574329.07844  22082047.3594                   22082045.2424
 -10458910.227 5                  24512840.070
 -21970246.21947 -17043143.62545  21189472.6414                   21189469.7114
  -5109659.81346  -4143930.64143  23147063.0004                   23147060.7894
 -15266098.33647 -11860852.40245  21462084.0944                   21462080.7274
  -5678210.82846  -4417906.72744  22584656.7504                   22584652.4494
 -16838833.84446 -13110513.71943  22787305.1644                   22787302.2704
  -9476443.87146  -7375193.77044  22645436.9224                   22645434.6564
 -13439171.25047 -10462905.88344  22245571.9774                   22245572.2234
 -11379574.55945  -8856295.09842  24600490.8134                   24600486.8674
 11  8 18  3 17  0.0000000  0 10G26G18G29G12G05G02G15G30G25G21
 -20045694.15246 -15607542.07444  22073936.5234                   22073933.9654
 -10520548.914 5                  24501110.148
 -22006443.59447 -17071349.35245  21182584.5474                   21182581.2544
  -4992406.15246  -4052564.19143  23169376.6484                   23169373.8714
 -15171417.39147 -11787075.03145  21480101.2734                   21480098.4654
  -5604758.86346  -4360671.45744  22598635.0634                   22598629.5124
 -16904879.82046 -13161978.06644  22774736.6564                   22774734.4534
  -9382239.78146  -7301788.00443  22663363.5084                   22663361.3324
 -13359735.85547 -10401008.19144  22260689.0784                   22260688.2544
 -11410904.18845  -8880707.70342  24594528.8284                   24594525.5084
 11  8 18  3 17 30.0000000  0 10G26G18G29G12G05G02G15G30G25G21
 -20087878.39846 -15640412.88744  22065909.9614                   22065906.6954
 -10582008.734 5                  24489413.641
 -22042334.89847 -17099316.59045  21175754.5704                   21175751.4224
  -4875035.05546  -3961106.21943  23191711.0314                   23191709.0004
 -15076456.23447 -11713079.33245  21498171.3204                   21498168.6844
  -5531209.23446  -4303360.11344  22612631.2344                   22612625.9304
 -16970754.22746 -13213308.72744  22762201.3284                   22762198.0514
  -9287730.64146  -7228144.53143  22681347.3914                   22681346.0704
 -13279905.03947 -10338802.35944  22275880.0084                   22275879.9804
 -11442260.08645  -8905140.82042  24588561.3524                   24588557.5004
 11  8 18  3 18  0.0000000  0 10G26G18G29G12G05G02G15G30G25G21
 -20129618.32446 -15672937.47744  22057965.6334                   22057963.6254
 -10643287.184 5                  24477752.789
 -22077916.30547 -17127042.34445  21168984.2584                   21168980.4024
  -4757548.29746  -3869558.10243  23214068.1644                   23214065.1024
 -14981215.41847 -11638865.69945  21516295.5394                   21516291.7974
  -5457559.31646  -4245970.60544  22626645.5234                   22626640.9144
 -17036452.07046 -13264501.78944  22749699.8524                   22749696.8164
  -9192917.84446  -7154264.44543  22699390.6564                   22699388.4694
 -13199679.79347 -10276289.20344  22291146.1174                   22291145.3984
 -11473640.84045  -8929593.30142  24582590.0554                   24582585.6844
 11  8 18  3 18 30.0000000  0 10G26G18G29G12G05G02G15G30G25G21
 -20170907.28546 -15705110.67244  22050109.7114                   22050107.1254
 -10704379.785 5                  24466127.477
 -22113182.34447 -17154522.34845  21162273.0314                   21162269.4104
  -4639945.31346  -3777919.42243  23236447.9384                   23236444.1764
 -14885694.15247 -11564433.55545  21534471.9144                   21534469.2734
  -5383805.86746  -4188500.40244  22640680.0784                   22640675.7304
 -17101967.48046 -13315552.73044  22737232.6644                   22737229.3284
  -9097801.51246  -7080147.82844  22717490.4384                   22717488.4534
 -13119059.75047 -10213468.40244  22306487.6564                   22306487.5824
 -11505043.48445  -8954062.84042  24576614.5784                   24576609.5744
 11  8 18  3 19  0.0000000  0 10G26G18G29G12G05G02G15G30G25G21
 -20211749.27746 -15736935.57844  22042337.3134                   22042334.4804
 -10765292.617 5                  24454536.164
 -22148137.72347 -17181760.29745  21155620.8674                   21155618.1884
  -4522236.86346  -3686198.57043  23258846.6334                   23258844.2584
 -14789902.32447 -11489790.58245  21552701.1564                   21552697.5044
  -5309955.22346  -4130954.48444  22654734.3134                   22654729.0474
 -17167304.30146 -13366464.48044  22724799.0784                   22724796.0394
  -9002392.01646  -7005802.75844  22735646.2664                   22735644.4924
 -13038054.77047 -10150347.65644  22321902.4064                   22321902.6454
 -11536475.82045  -8978555.49642  24570633.7894                   24570629.0124
 11  8 18  3 19 30.0000000  0 10G26G18G29G12G05G02G15G30G25G21
 -20252138.86746 -15768407.96544  22034652.1484                   22034649.3364
 -10826022.395 5                  24442979.000
 -22182778.22347 -17208752.87945  21149029.2894                   21149025.9454
  -4404423.78546  -3594396.17643  23281266.4774                   23281262.9734
 -14693840.63747 -11414937.30945  21570981.6254                   21570977.4804
  -5236005.57446  -4073331.41843  22668805.8054                   22668800.9884
 -17232457.41046 -13417233.10244  22712399.9924                   22712398.0164
  -8906690.45746  -6931230.13343  22753858.3134                   22753855.4774
 -12956665.60247 -10086927.53544  22337389.7034                   22337390.2774
 -11567936.63346  -9003070.34842  24564647.3284                   24564642.0634
 11  8 18  3 20  0.0000000  0 10G26G18G29G12G05G02G15G30G25G21
 -20292073.70746 -15799525.99644  22027052.5394                   22027049.5354
 -10886568.656 5                  24431458.227
 -22217102.19947 -17235498.81245  21142497.5164                   21142494.3164
  -4286509.88346  -3502515.21543  23303704.0634                   23303700.7664
 -14597511.96547 -11339876.00445  21589312.0084                   21589308.5554
  -5161957.25846  -4015631.46544  22682897.2424                   22682892.1414
 -17297424.42646 -13467856.70744  22700037.2034                   22700035.3094
  -8810700.66846  -6856432.86743  22772123.5234                   22772121.6524
 -12874895.60546 -10023210.67244  22352950.4454                   22352950.6564
 -11599426.91046  -9027608.16042  24558653.9304                   24558649.4264
 11  8 18  3 20 30.0000000  0 10G26G18G29G12G05G02G15G30G25G21
 -20331549.98446 -15830286.71144  22019540.2114                   22019537.0704
 -10946930.059 5                  24419970.391
 -22251107.12947 -17261996.15245  21136026.7664                   21136023.1764
  -4168497.57846  -3410557.58243  23326160.5864                   23326157.9304
 -14500918.72347 -11264608.53545  21607692.3594                   21607689.2274
  -5087809.20746  -3957853.78543  22697007.3444                   22697001.8554
 -17362201.87946 -13518332.61344  22687711.0004                   22687708.7154
  -8714425.57846  -6781413.34443  22790445.4694                   22790442.5314
 -12792747.25447  -9959198.99244  22368582.6414                   22368582.2934
 -11630946.56346  -9052168.87943  24552656.2194                   24552652.2114
 11  8 18  3 21  0.0000000  0 10G26G18G29G12G05G02G15G30G25G21
 -20370559.40246 -15860683.64844  22012117.1564                   22012114.5784
 -11007100.523 5                  24408521.352
 -22284785.49247 -17288239.02045  21129617.5004                   21129614.7854
  -4050385.31346  -3318522.07043  23348637.2424                   23348634.0314
 -14404057.91847 -11189132.58245  21626124.6564                   21626121.4614
  -5013556.12946  -3899994.28543  22711136.5234                   22711131.8634
 -17426781.55146 -13568654.39144  22675421.7194                   22675419.4574
  -8617863.41046  -6706170.07043  22808819.9614                   22808817.6334
 -12710218.36746  -9894890.78144  22384287.6254                   22384287.4964
 -11662490.89846  -9076748.81642  24546653.5784                   24546650.1564
 11  8 18  3 21 30.0000000  0 10G26G18G29G12G05G02G15G30G25G21
 -20409100.94546 -15890715.98844  22004782.8674                   22004780.3054
 -11067080.770 5                  24397106.352
 -22318136.82047 -17314227.05945  21123271.4774                   21123268.3524
  -3932177.92246  -3226412.41043  23371130.7584                   23371128.0864
 -14306934.34447 -11113451.87545  21644606.3594                   21644603.6764
  -4939199.82846  -3842054.31643  22725286.6334                   22725280.7274
 -17491162.71546 -13618821.48444  22663170.4844                   22663167.8134
  -8521019.35546  -6630707.18043  22827249.1024                   22827246.8714
 -12627313.73047  -9830289.77744  22400063.9774                   22400063.5434
 -11694062.80146  -9101350.23843  24540646.0394                   24540642.2074
 11  8 18  3 22  0.0000000  0 10G26G18G29G12G05G02G15G30G25G21
 -20447174.22346 -15920383.45344  21997537.3754                   21997534.7154
 -11126872.727 5                  24385727.984
 -22351162.21547 -17339961.12145  21116986.9774                   21116983.0514
  -3813881.62946  -3134233.50843  23393642.3444                   23393639.2934
 -14209553.69947 -11037570.85545  21663137.4774                   21663134.2304
  -4864742.91446  -3784035.94543  22739454.7894                   22739449.9494
 -17555345.12946 -13668833.71544  22650956.9144                   22650953.5824
  -8423899.76646  -6555029.57843  22845730.2664                   22845727.6294
 -12544039.25446  -9765400.58644  22415910.8134                   22415910.1804
 -11725665.71546  -9125975.83243  24534631.6884                   24534627.7814
 11  8 18  3 22 30.0000000  0 10G26G18G29G12G05G02G15G30G25G21
 -20484771.25046 -15949679.83644  21990383.1094                   21990379.4454
 -11186470.367 5                  24374387.258
 -22383854.29747 -17365435.45745  21110765.8444                   21110762.5314
  -3695494.67246  -3041983.92243  23416170.3284                   23416166.9454
 -14111913.38347 -10961487.50045  21681717.3284                   21681715.2584
  -4790179.97346  -3725934.98044  22753644.4614                   22753639.0554
 -17619320.82846 -13718684.87944  22638782.7734                   22638780.0514
  -8326502.80946  -6479135.84843  22864263.5234                   22864261.7664
 -12460392.74246  -9700221.50044  22431828.2504                   22431827.3444
 -11757294.78946  -9150621.76643  24528613.0784                   24528608.7664
